<?xml version="1.0" encoding="UTF-8" standalone="no" ?>
<gpx xmlns="http://www.topografix.com/GPX/1/1" xmlns:xsi="http://www.w3.org/2001/XMLSchema-instance" xsi:schemaLocation="http://www.topografix.com/GPX/1/1 http://www.topografix.com/GPX/1/1/gpx.xsd" version="1.1" creator="VisuGPX - https://www.visugpx.com">
  <metadata>
    <name>Rando VTT Seb Nico David Adrien 02/11/2014</name>
    <desc><![CDATA[Rando VTT monts du lyonnais. Départ Grezieu la varenne]]></desc>
  </metadata>
  <trk>
    <name><![CDATA[Tracé actuel: 02 NOV 2014 09:03]]></name>
    <trkseg>
      <trkpt lat="45.74824" lon="4.67962">
        <ele>370.24</ele>
        <time>2014-11-02T08:03:32Z</time>
      </trkpt>
      <trkpt lat="45.74827" lon="4.67873">
        <ele>372.65</ele>
        <time>2014-11-02T08:03:48Z</time>
      </trkpt>
      <trkpt lat="45.7483" lon="4.67793">
        <ele>373.61</ele>
        <time>2014-11-02T08:04:04Z</time>
      </trkpt>
      <trkpt lat="45.74834" lon="4.67709">
        <ele>375.53</ele>
        <time>2014-11-02T08:04:20Z</time>
      </trkpt>
      <trkpt lat="45.74839" lon="4.67634">
        <ele>376.49</ele>
        <time>2014-11-02T08:04:35Z</time>
      </trkpt>
      <trkpt lat="45.74842" lon="4.67571">
        <ele>377.94</ele>
        <time>2014-11-02T08:04:48Z</time>
      </trkpt>
      <trkpt lat="45.74844" lon="4.67527">
        <ele>380.34</ele>
        <time>2014-11-02T08:04:58Z</time>
      </trkpt>
      <trkpt lat="45.74847" lon="4.67454">
        <ele>380.82</ele>
        <time>2014-11-02T08:05:15Z</time>
      </trkpt>
      <trkpt lat="45.74851" lon="4.67371">
        <ele>383.7</ele>
        <time>2014-11-02T08:05:33Z</time>
      </trkpt>
      <trkpt lat="45.74852" lon="4.67305">
        <ele>384.18</ele>
        <time>2014-11-02T08:05:47Z</time>
      </trkpt>
      <trkpt lat="45.74851" lon="4.6724">
        <ele>386.59</ele>
        <time>2014-11-02T08:06:02Z</time>
      </trkpt>
      <trkpt lat="45.74855" lon="4.67179">
        <ele>388.51</ele>
        <time>2014-11-02T08:06:16Z</time>
      </trkpt>
      <trkpt lat="45.74858" lon="4.67126">
        <ele>392.36</ele>
        <time>2014-11-02T08:06:29Z</time>
      </trkpt>
      <trkpt lat="45.74866" lon="4.67072">
        <ele>394.28</ele>
        <time>2014-11-02T08:06:42Z</time>
      </trkpt>
      <trkpt lat="45.74876" lon="4.67006">
        <ele>396.68</ele>
        <time>2014-11-02T08:06:57Z</time>
      </trkpt>
      <trkpt lat="45.74888" lon="4.66921">
        <ele>397.64</ele>
        <time>2014-11-02T08:07:15Z</time>
      </trkpt>
      <trkpt lat="45.74897" lon="4.66852">
        <ele>399.57</ele>
        <time>2014-11-02T08:07:31Z</time>
      </trkpt>
      <trkpt lat="45.74902" lon="4.66792">
        <ele>401.01</ele>
        <time>2014-11-02T08:07:46Z</time>
      </trkpt>
      <trkpt lat="45.74901" lon="4.66721">
        <ele>404.37</ele>
        <time>2014-11-02T08:08:04Z</time>
      </trkpt>
      <trkpt lat="45.74902" lon="4.66662">
        <ele>407.26</ele>
        <time>2014-11-02T08:08:21Z</time>
      </trkpt>
      <trkpt lat="45.74902" lon="4.66605">
        <ele>412.06</ele>
        <time>2014-11-02T08:08:38Z</time>
      </trkpt>
      <trkpt lat="45.74903" lon="4.66556">
        <ele>413.02</ele>
        <time>2014-11-02T08:08:54Z</time>
      </trkpt>
      <trkpt lat="45.74902" lon="4.66513">
        <ele>417.35</ele>
        <time>2014-11-02T08:09:07Z</time>
      </trkpt>
      <trkpt lat="45.749" lon="4.66476">
        <ele>420.71</ele>
        <time>2014-11-02T08:09:19Z</time>
      </trkpt>
      <trkpt lat="45.74894" lon="4.66426">
        <ele>421.19</ele>
        <time>2014-11-02T08:09:34Z</time>
      </trkpt>
      <trkpt lat="45.74889" lon="4.66381">
        <ele>422.64</ele>
        <time>2014-11-02T08:09:48Z</time>
      </trkpt>
      <trkpt lat="45.74879" lon="4.66335">
        <ele>424.56</ele>
        <time>2014-11-02T08:10:03Z</time>
      </trkpt>
      <trkpt lat="45.74869" lon="4.66289">
        <ele>426.96</ele>
        <time>2014-11-02T08:10:19Z</time>
      </trkpt>
      <trkpt lat="45.74859" lon="4.6624">
        <ele>428.4</ele>
        <time>2014-11-02T08:10:35Z</time>
      </trkpt>
      <trkpt lat="45.74846" lon="4.66196">
        <ele>431.29</ele>
        <time>2014-11-02T08:10:49Z</time>
      </trkpt>
      <trkpt lat="45.74828" lon="4.66134">
        <ele>435.13</ele>
        <time>2014-11-02T08:11:08Z</time>
      </trkpt>
      <trkpt lat="45.74827" lon="4.66083">
        <ele>437.54</ele>
        <time>2014-11-02T08:11:23Z</time>
      </trkpt>
      <trkpt lat="45.74832" lon="4.66036">
        <ele>440.9</ele>
        <time>2014-11-02T08:11:38Z</time>
      </trkpt>
      <trkpt lat="45.74839" lon="4.65992">
        <ele>441.38</ele>
        <time>2014-11-02T08:11:52Z</time>
      </trkpt>
      <trkpt lat="45.74842" lon="4.65932">
        <ele>444.75</ele>
        <time>2014-11-02T08:12:08Z</time>
      </trkpt>
      <trkpt lat="45.74839" lon="4.65901">
        <ele>445.71</ele>
        <time>2014-11-02T08:12:21Z</time>
      </trkpt>
      <trkpt lat="45.74839" lon="4.65901">
        <ele>447.15</ele>
        <time>2014-11-02T08:12:38Z</time>
      </trkpt>
      <trkpt lat="45.74839" lon="4.65901">
        <ele>447.63</ele>
        <time>2014-11-02T08:12:57Z</time>
      </trkpt>
      <trkpt lat="45.74839" lon="4.65901">
        <ele>447.63</ele>
        <time>2014-11-02T08:13:19Z</time>
      </trkpt>
      <trkpt lat="45.74839" lon="4.65901">
        <ele>447.15</ele>
        <time>2014-11-02T08:13:42Z</time>
      </trkpt>
      <trkpt lat="45.74839" lon="4.65901">
        <ele>447.15</ele>
        <time>2014-11-02T08:14:05Z</time>
      </trkpt>
      <trkpt lat="45.7484" lon="4.65899">
        <ele>447.63</ele>
        <time>2014-11-02T08:14:29Z</time>
      </trkpt>
      <trkpt lat="45.7484" lon="4.65898">
        <ele>448.59</ele>
        <time>2014-11-02T08:14:54Z</time>
      </trkpt>
      <trkpt lat="45.74841" lon="4.65898">
        <ele>449.07</ele>
        <time>2014-11-02T08:15:18Z</time>
      </trkpt>
      <trkpt lat="45.74839" lon="4.65886">
        <ele>451</ele>
        <time>2014-11-02T08:15:37Z</time>
      </trkpt>
      <trkpt lat="45.74838" lon="4.65877">
        <ele>451.48</ele>
        <time>2014-11-02T08:15:41Z</time>
      </trkpt>
      <trkpt lat="45.74829" lon="4.65845">
        <ele>453.4</ele>
        <time>2014-11-02T08:15:54Z</time>
      </trkpt>
      <trkpt lat="45.74827" lon="4.65841">
        <ele>453.88</ele>
        <time>2014-11-02T08:15:56Z</time>
      </trkpt>
      <trkpt lat="45.74823" lon="4.65826">
        <ele>455.32</ele>
        <time>2014-11-02T08:16:02Z</time>
      </trkpt>
      <trkpt lat="45.74816" lon="4.65801">
        <ele>456.28</ele>
        <time>2014-11-02T08:16:15Z</time>
      </trkpt>
      <trkpt lat="45.74806" lon="4.65776">
        <ele>459.65</ele>
        <time>2014-11-02T08:16:28Z</time>
      </trkpt>
      <trkpt lat="45.74785" lon="4.65764">
        <ele>463.49</ele>
        <time>2014-11-02T08:16:42Z</time>
      </trkpt>
      <trkpt lat="45.7478" lon="4.65762">
        <ele>464.45</ele>
        <time>2014-11-02T08:16:46Z</time>
      </trkpt>
      <trkpt lat="45.74765" lon="4.65749">
        <ele>467.82</ele>
        <time>2014-11-02T08:16:59Z</time>
      </trkpt>
      <trkpt lat="45.74765" lon="4.65747">
        <ele>468.3</ele>
        <time>2014-11-02T08:17:00Z</time>
      </trkpt>
      <trkpt lat="45.74761" lon="4.65736">
        <ele>470.22</ele>
        <time>2014-11-02T08:17:06Z</time>
      </trkpt>
      <trkpt lat="45.74749" lon="4.65706">
        <ele>469.74</ele>
        <time>2014-11-02T08:17:21Z</time>
      </trkpt>
      <trkpt lat="45.74733" lon="4.65674">
        <ele>472.14</ele>
        <time>2014-11-02T08:17:38Z</time>
      </trkpt>
      <trkpt lat="45.74716" lon="4.65636">
        <ele>473.59</ele>
        <time>2014-11-02T08:17:54Z</time>
      </trkpt>
      <trkpt lat="45.74698" lon="4.65597">
        <ele>474.07</ele>
        <time>2014-11-02T08:18:09Z</time>
      </trkpt>
      <trkpt lat="45.74671" lon="4.65546">
        <ele>478.39</ele>
        <time>2014-11-02T08:18:26Z</time>
      </trkpt>
      <trkpt lat="45.74652" lon="4.65512">
        <ele>479.35</ele>
        <time>2014-11-02T08:18:40Z</time>
      </trkpt>
      <trkpt lat="45.7464" lon="4.65482">
        <ele>481.28</ele>
        <time>2014-11-02T08:18:53Z</time>
      </trkpt>
      <trkpt lat="45.74629" lon="4.65452">
        <ele>484.64</ele>
        <time>2014-11-02T08:19:05Z</time>
      </trkpt>
      <trkpt lat="45.74625" lon="4.65436">
        <ele>485.6</ele>
        <time>2014-11-02T08:19:12Z</time>
      </trkpt>
      <trkpt lat="45.74621" lon="4.65415">
        <ele>487.53</ele>
        <time>2014-11-02T08:19:21Z</time>
      </trkpt>
      <trkpt lat="45.74615" lon="4.65384">
        <ele>489.45</ele>
        <time>2014-11-02T08:19:34Z</time>
      </trkpt>
      <trkpt lat="45.74614" lon="4.65382">
        <ele>489.45</ele>
        <time>2014-11-02T08:19:35Z</time>
      </trkpt>
      <trkpt lat="45.7461" lon="4.6537">
        <ele>489.93</ele>
        <time>2014-11-02T08:19:41Z</time>
      </trkpt>
      <trkpt lat="45.74608" lon="4.65361">
        <ele>490.89</ele>
        <time>2014-11-02T08:19:46Z</time>
      </trkpt>
      <trkpt lat="45.74606" lon="4.65355">
        <ele>492.33</ele>
        <time>2014-11-02T08:19:49Z</time>
      </trkpt>
      <trkpt lat="45.74604" lon="4.65318">
        <ele>493.77</ele>
        <time>2014-11-02T08:20:03Z</time>
      </trkpt>
      <trkpt lat="45.74613" lon="4.65259">
        <ele>495.7</ele>
        <time>2014-11-02T08:20:20Z</time>
      </trkpt>
      <trkpt lat="45.74619" lon="4.6521">
        <ele>494.26</ele>
        <time>2014-11-02T08:20:37Z</time>
      </trkpt>
      <trkpt lat="45.74619" lon="4.65196">
        <ele>496.18</ele>
        <time>2014-11-02T08:20:42Z</time>
      </trkpt>
      <trkpt lat="45.74618" lon="4.65179">
        <ele>498.58</ele>
        <time>2014-11-02T08:20:51Z</time>
      </trkpt>
      <trkpt lat="45.74619" lon="4.65172">
        <ele>500.02</ele>
        <time>2014-11-02T08:20:55Z</time>
      </trkpt>
      <trkpt lat="45.7462" lon="4.65164">
        <ele>500.98</ele>
        <time>2014-11-02T08:20:59Z</time>
      </trkpt>
      <trkpt lat="45.74623" lon="4.65141">
        <ele>504.35</ele>
        <time>2014-11-02T08:21:11Z</time>
      </trkpt>
      <trkpt lat="45.74625" lon="4.65127">
        <ele>505.79</ele>
        <time>2014-11-02T08:21:19Z</time>
      </trkpt>
      <trkpt lat="45.74624" lon="4.65117">
        <ele>506.75</ele>
        <time>2014-11-02T08:21:24Z</time>
      </trkpt>
      <trkpt lat="45.74625" lon="4.65085">
        <ele>508.67</ele>
        <time>2014-11-02T08:21:40Z</time>
      </trkpt>
      <trkpt lat="45.74629" lon="4.65049">
        <ele>509.64</ele>
        <time>2014-11-02T08:21:56Z</time>
      </trkpt>
      <trkpt lat="45.7463" lon="4.65017">
        <ele>513</ele>
        <time>2014-11-02T08:22:07Z</time>
      </trkpt>
      <trkpt lat="45.74639" lon="4.64982">
        <ele>513.48</ele>
        <time>2014-11-02T08:22:22Z</time>
      </trkpt>
      <trkpt lat="45.74648" lon="4.64955">
        <ele>513.48</ele>
        <time>2014-11-02T08:22:33Z</time>
      </trkpt>
      <trkpt lat="45.74663" lon="4.64905">
        <ele>514.44</ele>
        <time>2014-11-02T08:22:50Z</time>
      </trkpt>
      <trkpt lat="45.74676" lon="4.64866">
        <ele>517.81</ele>
        <time>2014-11-02T08:23:04Z</time>
      </trkpt>
      <trkpt lat="45.74677" lon="4.64821">
        <ele>522.61</ele>
        <time>2014-11-02T08:23:20Z</time>
      </trkpt>
      <trkpt lat="45.74676" lon="4.64819">
        <ele>522.61</ele>
        <time>2014-11-02T08:23:21Z</time>
      </trkpt>
      <trkpt lat="45.74671" lon="4.64813">
        <ele>524.06</ele>
        <time>2014-11-02T08:23:25Z</time>
      </trkpt>
      <trkpt lat="45.74662" lon="4.64805">
        <ele>526.46</ele>
        <time>2014-11-02T08:23:32Z</time>
      </trkpt>
      <trkpt lat="45.74639" lon="4.64784">
        <ele>531.75</ele>
        <time>2014-11-02T08:23:47Z</time>
      </trkpt>
      <trkpt lat="45.74636" lon="4.64779">
        <ele>532.71</ele>
        <time>2014-11-02T08:23:50Z</time>
      </trkpt>
      <trkpt lat="45.74628" lon="4.6477">
        <ele>534.15</ele>
        <time>2014-11-02T08:23:57Z</time>
      </trkpt>
      <trkpt lat="45.74611" lon="4.64751">
        <ele>537.03</ele>
        <time>2014-11-02T08:24:14Z</time>
      </trkpt>
      <trkpt lat="45.74604" lon="4.64745">
        <ele>537.51</ele>
        <time>2014-11-02T08:24:19Z</time>
      </trkpt>
      <trkpt lat="45.74598" lon="4.64738">
        <ele>538.48</ele>
        <time>2014-11-02T08:24:24Z</time>
      </trkpt>
      <trkpt lat="45.74591" lon="4.6473">
        <ele>539.44</ele>
        <time>2014-11-02T08:24:30Z</time>
      </trkpt>
      <trkpt lat="45.74581" lon="4.64725">
        <ele>540.88</ele>
        <time>2014-11-02T08:24:38Z</time>
      </trkpt>
      <trkpt lat="45.74572" lon="4.64716">
        <ele>542.8</ele>
        <time>2014-11-02T08:24:45Z</time>
      </trkpt>
      <trkpt lat="45.74556" lon="4.64687">
        <ele>543.76</ele>
        <time>2014-11-02T08:25:00Z</time>
      </trkpt>
      <trkpt lat="45.74546" lon="4.64661">
        <ele>546.65</ele>
        <time>2014-11-02T08:25:14Z</time>
      </trkpt>
      <trkpt lat="45.74534" lon="4.64633">
        <ele>549.53</ele>
        <time>2014-11-02T08:25:27Z</time>
      </trkpt>
      <trkpt lat="45.74527" lon="4.64611">
        <ele>550.01</ele>
        <time>2014-11-02T08:25:36Z</time>
      </trkpt>
      <trkpt lat="45.74526" lon="4.646">
        <ele>550.97</ele>
        <time>2014-11-02T08:25:41Z</time>
      </trkpt>
      <trkpt lat="45.74516" lon="4.64562">
        <ele>552.41</ele>
        <time>2014-11-02T08:25:56Z</time>
      </trkpt>
      <trkpt lat="45.74511" lon="4.64533">
        <ele>552.9</ele>
        <time>2014-11-02T08:26:10Z</time>
      </trkpt>
      <trkpt lat="45.74506" lon="4.64507">
        <ele>554.34</ele>
        <time>2014-11-02T08:26:20Z</time>
      </trkpt>
      <trkpt lat="45.74507" lon="4.64494">
        <ele>556.74</ele>
        <time>2014-11-02T08:26:26Z</time>
      </trkpt>
      <trkpt lat="45.74505" lon="4.64484">
        <ele>558.18</ele>
        <time>2014-11-02T08:26:29Z</time>
      </trkpt>
      <trkpt lat="45.74499" lon="4.64457">
        <ele>562.03</ele>
        <time>2014-11-02T08:26:41Z</time>
      </trkpt>
      <trkpt lat="45.74498" lon="4.64436">
        <ele>562.99</ele>
        <time>2014-11-02T08:26:51Z</time>
      </trkpt>
      <trkpt lat="45.74495" lon="4.64403">
        <ele>566.83</ele>
        <time>2014-11-02T08:27:05Z</time>
      </trkpt>
      <trkpt lat="45.74495" lon="4.64391">
        <ele>567.32</ele>
        <time>2014-11-02T08:27:10Z</time>
      </trkpt>
      <trkpt lat="45.745" lon="4.64385">
        <ele>568.76</ele>
        <time>2014-11-02T08:27:15Z</time>
      </trkpt>
      <trkpt lat="45.74517" lon="4.64403">
        <ele>572.6</ele>
        <time>2014-11-02T08:27:28Z</time>
      </trkpt>
      <trkpt lat="45.74526" lon="4.64419">
        <ele>575.01</ele>
        <time>2014-11-02T08:27:36Z</time>
      </trkpt>
      <trkpt lat="45.74529" lon="4.64427">
        <ele>575.97</ele>
        <time>2014-11-02T08:27:40Z</time>
      </trkpt>
      <trkpt lat="45.74535" lon="4.64442">
        <ele>576.93</ele>
        <time>2014-11-02T08:27:47Z</time>
      </trkpt>
      <trkpt lat="45.74556" lon="4.64468">
        <ele>578.37</ele>
        <time>2014-11-02T08:28:02Z</time>
      </trkpt>
      <trkpt lat="45.74577" lon="4.64481">
        <ele>581.25</ele>
        <time>2014-11-02T08:28:15Z</time>
      </trkpt>
      <trkpt lat="45.74597" lon="4.6449">
        <ele>584.62</ele>
        <time>2014-11-02T08:28:30Z</time>
      </trkpt>
      <trkpt lat="45.74625" lon="4.64484">
        <ele>587.5</ele>
        <time>2014-11-02T08:28:46Z</time>
      </trkpt>
      <trkpt lat="45.74645" lon="4.64482">
        <ele>589.91</ele>
        <time>2014-11-02T08:28:58Z</time>
      </trkpt>
      <trkpt lat="45.74661" lon="4.64479">
        <ele>594.71</ele>
        <time>2014-11-02T08:29:10Z</time>
      </trkpt>
      <trkpt lat="45.74666" lon="4.64477">
        <ele>594.23</ele>
        <time>2014-11-02T08:29:22Z</time>
      </trkpt>
      <trkpt lat="45.74666" lon="4.64478">
        <ele>592.79</ele>
        <time>2014-11-02T08:29:55Z</time>
      </trkpt>
      <trkpt lat="45.74666" lon="4.64479">
        <ele>593.27</ele>
        <time>2014-11-02T08:30:32Z</time>
      </trkpt>
      <trkpt lat="45.74666" lon="4.64478">
        <ele>595.19</ele>
        <time>2014-11-02T08:31:10Z</time>
      </trkpt>
      <trkpt lat="45.74665" lon="4.64477">
        <ele>593.75</ele>
        <time>2014-11-02T08:31:43Z</time>
      </trkpt>
      <trkpt lat="45.74665" lon="4.64476">
        <ele>592.31</ele>
        <time>2014-11-02T08:32:18Z</time>
      </trkpt>
      <trkpt lat="45.74665" lon="4.64475">
        <ele>591.83</ele>
        <time>2014-11-02T08:32:49Z</time>
      </trkpt>
      <trkpt lat="45.74666" lon="4.64476">
        <ele>591.35</ele>
        <time>2014-11-02T08:33:21Z</time>
      </trkpt>
      <trkpt lat="45.74667" lon="4.64475">
        <ele>591.35</ele>
        <time>2014-11-02T08:33:46Z</time>
      </trkpt>
      <trkpt lat="45.74668" lon="4.64475">
        <ele>591.35</ele>
        <time>2014-11-02T08:34:10Z</time>
      </trkpt>
      <trkpt lat="45.74669" lon="4.64475">
        <ele>591.35</ele>
        <time>2014-11-02T08:34:39Z</time>
      </trkpt>
      <trkpt lat="45.74669" lon="4.64475">
        <ele>592.79</ele>
        <time>2014-11-02T08:35:03Z</time>
      </trkpt>
      <trkpt lat="45.74671" lon="4.64476">
        <ele>592.79</ele>
        <time>2014-11-02T08:35:17Z</time>
      </trkpt>
      <trkpt lat="45.74671" lon="4.64475">
        <ele>593.27</ele>
        <time>2014-11-02T08:35:38Z</time>
      </trkpt>
      <trkpt lat="45.74674" lon="4.64472">
        <ele>592.79</ele>
        <time>2014-11-02T08:35:55Z</time>
      </trkpt>
      <trkpt lat="45.74685" lon="4.6446">
        <ele>594.23</ele>
        <time>2014-11-02T08:36:08Z</time>
      </trkpt>
      <trkpt lat="45.74698" lon="4.64442">
        <ele>596.15</ele>
        <time>2014-11-02T08:36:21Z</time>
      </trkpt>
      <trkpt lat="45.74702" lon="4.64436">
        <ele>596.15</ele>
        <time>2014-11-02T08:36:25Z</time>
      </trkpt>
      <trkpt lat="45.74715" lon="4.64412">
        <ele>600.96</ele>
        <time>2014-11-02T08:36:40Z</time>
      </trkpt>
      <trkpt lat="45.74719" lon="4.64408">
        <ele>601.44</ele>
        <time>2014-11-02T08:36:43Z</time>
      </trkpt>
      <trkpt lat="45.74724" lon="4.644">
        <ele>601.92</ele>
        <time>2014-11-02T08:36:47Z</time>
      </trkpt>
      <trkpt lat="45.74746" lon="4.64369">
        <ele>602.4</ele>
        <time>2014-11-02T08:37:03Z</time>
      </trkpt>
      <trkpt lat="45.7476" lon="4.64349">
        <ele>605.29</ele>
        <time>2014-11-02T08:37:16Z</time>
      </trkpt>
      <trkpt lat="45.74783" lon="4.64324">
        <ele>609.13</ele>
        <time>2014-11-02T08:37:32Z</time>
      </trkpt>
      <trkpt lat="45.74793" lon="4.64304">
        <ele>612.02</ele>
        <time>2014-11-02T08:37:42Z</time>
      </trkpt>
      <trkpt lat="45.74801" lon="4.64293">
        <ele>612.98</ele>
        <time>2014-11-02T08:37:48Z</time>
      </trkpt>
      <trkpt lat="45.74805" lon="4.64288">
        <ele>613.94</ele>
        <time>2014-11-02T08:37:51Z</time>
      </trkpt>
      <trkpt lat="45.7481" lon="4.64281">
        <ele>614.42</ele>
        <time>2014-11-02T08:37:55Z</time>
      </trkpt>
      <trkpt lat="45.74828" lon="4.64259">
        <ele>615.38</ele>
        <time>2014-11-02T08:38:07Z</time>
      </trkpt>
      <trkpt lat="45.74842" lon="4.64239">
        <ele>616.82</ele>
        <time>2014-11-02T08:38:16Z</time>
      </trkpt>
      <trkpt lat="45.74868" lon="4.64213">
        <ele>618.26</ele>
        <time>2014-11-02T08:38:32Z</time>
      </trkpt>
      <trkpt lat="45.74875" lon="4.642">
        <ele>619.71</ele>
        <time>2014-11-02T08:38:39Z</time>
      </trkpt>
      <trkpt lat="45.74888" lon="4.64169">
        <ele>621.63</ele>
        <time>2014-11-02T08:38:54Z</time>
      </trkpt>
      <trkpt lat="45.74897" lon="4.64156">
        <ele>623.07</ele>
        <time>2014-11-02T08:39:01Z</time>
      </trkpt>
      <trkpt lat="45.7491" lon="4.64132">
        <ele>622.59</ele>
        <time>2014-11-02T08:39:13Z</time>
      </trkpt>
      <trkpt lat="45.74927" lon="4.64101">
        <ele>624.51</ele>
        <time>2014-11-02T08:39:28Z</time>
      </trkpt>
      <trkpt lat="45.74941" lon="4.64074">
        <ele>627.88</ele>
        <time>2014-11-02T08:39:41Z</time>
      </trkpt>
      <trkpt lat="45.74956" lon="4.64048">
        <ele>629.32</ele>
        <time>2014-11-02T08:39:54Z</time>
      </trkpt>
      <trkpt lat="45.74962" lon="4.64038">
        <ele>630.76</ele>
        <time>2014-11-02T08:40:00Z</time>
      </trkpt>
      <trkpt lat="45.74965" lon="4.64031">
        <ele>631.72</ele>
        <time>2014-11-02T08:40:04Z</time>
      </trkpt>
      <trkpt lat="45.74977" lon="4.64005">
        <ele>634.13</ele>
        <time>2014-11-02T08:40:18Z</time>
      </trkpt>
      <trkpt lat="45.74988" lon="4.63997">
        <ele>635.57</ele>
        <time>2014-11-02T08:40:24Z</time>
      </trkpt>
      <trkpt lat="45.74994" lon="4.6399">
        <ele>637.49</ele>
        <time>2014-11-02T08:40:30Z</time>
      </trkpt>
      <trkpt lat="45.74997" lon="4.63986">
        <ele>638.93</ele>
        <time>2014-11-02T08:40:33Z</time>
      </trkpt>
      <trkpt lat="45.75005" lon="4.63967">
        <ele>643.74</ele>
        <time>2014-11-02T08:40:44Z</time>
      </trkpt>
      <trkpt lat="45.7501" lon="4.63957">
        <ele>645.66</ele>
        <time>2014-11-02T08:40:50Z</time>
      </trkpt>
      <trkpt lat="45.75017" lon="4.63943">
        <ele>647.59</ele>
        <time>2014-11-02T08:41:02Z</time>
      </trkpt>
      <trkpt lat="45.75028" lon="4.63931">
        <ele>648.07</ele>
        <time>2014-11-02T08:41:13Z</time>
      </trkpt>
      <trkpt lat="45.75048" lon="4.63912">
        <ele>649.03</ele>
        <time>2014-11-02T08:41:25Z</time>
      </trkpt>
      <trkpt lat="45.75053" lon="4.63909">
        <ele>649.03</ele>
        <time>2014-11-02T08:41:29Z</time>
      </trkpt>
      <trkpt lat="45.75075" lon="4.63893">
        <ele>651.43</ele>
        <time>2014-11-02T08:41:44Z</time>
      </trkpt>
      <trkpt lat="45.75079" lon="4.6389">
        <ele>651.91</ele>
        <time>2014-11-02T08:41:47Z</time>
      </trkpt>
      <trkpt lat="45.75086" lon="4.63886">
        <ele>652.87</ele>
        <time>2014-11-02T08:41:52Z</time>
      </trkpt>
      <trkpt lat="45.7509" lon="4.63884">
        <ele>653.35</ele>
        <time>2014-11-02T08:41:55Z</time>
      </trkpt>
      <trkpt lat="45.75101" lon="4.63878">
        <ele>654.31</ele>
        <time>2014-11-02T08:42:02Z</time>
      </trkpt>
      <trkpt lat="45.75121" lon="4.63862">
        <ele>656.72</ele>
        <time>2014-11-02T08:42:15Z</time>
      </trkpt>
      <trkpt lat="45.75124" lon="4.6386">
        <ele>657.2</ele>
        <time>2014-11-02T08:42:17Z</time>
      </trkpt>
      <trkpt lat="45.7516" lon="4.63847">
        <ele>656.72</ele>
        <time>2014-11-02T08:42:28Z</time>
      </trkpt>
      <trkpt lat="45.75205" lon="4.63821">
        <ele>657.2</ele>
        <time>2014-11-02T08:42:41Z</time>
      </trkpt>
      <trkpt lat="45.75232" lon="4.63795">
        <ele>658.64</ele>
        <time>2014-11-02T08:42:51Z</time>
      </trkpt>
      <trkpt lat="45.75256" lon="4.63765">
        <ele>658.64</ele>
        <time>2014-11-02T08:43:02Z</time>
      </trkpt>
      <trkpt lat="45.75265" lon="4.63746">
        <ele>658.16</ele>
        <time>2014-11-02T08:43:07Z</time>
      </trkpt>
      <trkpt lat="45.75273" lon="4.63705">
        <ele>659.12</ele>
        <time>2014-11-02T08:43:16Z</time>
      </trkpt>
      <trkpt lat="45.75271" lon="4.6367">
        <ele>665.37</ele>
        <time>2014-11-02T08:43:29Z</time>
      </trkpt>
      <trkpt lat="45.75271" lon="4.63668">
        <ele>665.85</ele>
        <time>2014-11-02T08:43:30Z</time>
      </trkpt>
      <trkpt lat="45.75267" lon="4.63656">
        <ele>669.7</ele>
        <time>2014-11-02T08:43:37Z</time>
      </trkpt>
      <trkpt lat="45.75265" lon="4.63638">
        <ele>674.5</ele>
        <time>2014-11-02T08:43:46Z</time>
      </trkpt>
      <trkpt lat="45.75264" lon="4.63634">
        <ele>675.46</ele>
        <time>2014-11-02T08:43:48Z</time>
      </trkpt>
      <trkpt lat="45.75258" lon="4.63601">
        <ele>679.79</ele>
        <time>2014-11-02T08:44:01Z</time>
      </trkpt>
      <trkpt lat="45.75254" lon="4.63576">
        <ele>682.19</ele>
        <time>2014-11-02T08:44:13Z</time>
      </trkpt>
      <trkpt lat="45.75252" lon="4.63558">
        <ele>683.63</ele>
        <time>2014-11-02T08:44:22Z</time>
      </trkpt>
      <trkpt lat="45.75251" lon="4.63552">
        <ele>684.6</ele>
        <time>2014-11-02T08:44:25Z</time>
      </trkpt>
      <trkpt lat="45.75248" lon="4.63531">
        <ele>684.12</ele>
        <time>2014-11-02T08:44:34Z</time>
      </trkpt>
      <trkpt lat="45.75248" lon="4.63527">
        <ele>683.63</ele>
        <time>2014-11-02T08:44:37Z</time>
      </trkpt>
      <trkpt lat="45.75248" lon="4.63502">
        <ele>684.6</ele>
        <time>2014-11-02T08:44:51Z</time>
      </trkpt>
      <trkpt lat="45.75245" lon="4.6348">
        <ele>686.52</ele>
        <time>2014-11-02T08:45:02Z</time>
      </trkpt>
      <trkpt lat="45.75242" lon="4.63444">
        <ele>686.52</ele>
        <time>2014-11-02T08:45:16Z</time>
      </trkpt>
      <trkpt lat="45.75242" lon="4.63442">
        <ele>686.04</ele>
        <time>2014-11-02T08:45:17Z</time>
      </trkpt>
      <trkpt lat="45.75244" lon="4.63428">
        <ele>685.08</ele>
        <time>2014-11-02T08:45:23Z</time>
      </trkpt>
      <trkpt lat="45.75247" lon="4.6341">
        <ele>686.04</ele>
        <time>2014-11-02T08:45:31Z</time>
      </trkpt>
      <trkpt lat="45.75248" lon="4.63405">
        <ele>687</ele>
        <time>2014-11-02T08:45:34Z</time>
      </trkpt>
      <trkpt lat="45.7525" lon="4.634">
        <ele>687.48</ele>
        <time>2014-11-02T08:45:37Z</time>
      </trkpt>
      <trkpt lat="45.75255" lon="4.63394">
        <ele>687.96</ele>
        <time>2014-11-02T08:45:41Z</time>
      </trkpt>
      <trkpt lat="45.75268" lon="4.63368">
        <ele>689.4</ele>
        <time>2014-11-02T08:45:53Z</time>
      </trkpt>
      <trkpt lat="45.75276" lon="4.63344">
        <ele>690.36</ele>
        <time>2014-11-02T08:46:03Z</time>
      </trkpt>
      <trkpt lat="45.75288" lon="4.63316">
        <ele>692.29</ele>
        <time>2014-11-02T08:46:13Z</time>
      </trkpt>
      <trkpt lat="45.75314" lon="4.63286">
        <ele>690.36</ele>
        <time>2014-11-02T08:46:26Z</time>
      </trkpt>
      <trkpt lat="45.75328" lon="4.6326">
        <ele>691.33</ele>
        <time>2014-11-02T08:46:37Z</time>
      </trkpt>
      <trkpt lat="45.75333" lon="4.63243">
        <ele>692.77</ele>
        <time>2014-11-02T08:46:44Z</time>
      </trkpt>
      <trkpt lat="45.75339" lon="4.63234">
        <ele>694.21</ele>
        <time>2014-11-02T08:46:50Z</time>
      </trkpt>
      <trkpt lat="45.75343" lon="4.63226">
        <ele>695.17</ele>
        <time>2014-11-02T08:46:54Z</time>
      </trkpt>
      <trkpt lat="45.75359" lon="4.632">
        <ele>696.61</ele>
        <time>2014-11-02T08:47:05Z</time>
      </trkpt>
      <trkpt lat="45.75381" lon="4.63161">
        <ele>696.61</ele>
        <time>2014-11-02T08:47:18Z</time>
      </trkpt>
      <trkpt lat="45.75406" lon="4.63124">
        <ele>697.09</ele>
        <time>2014-11-02T08:47:28Z</time>
      </trkpt>
      <trkpt lat="45.75427" lon="4.63083">
        <ele>697.09</ele>
        <time>2014-11-02T08:47:38Z</time>
      </trkpt>
      <trkpt lat="45.75444" lon="4.63036">
        <ele>697.57</ele>
        <time>2014-11-02T08:47:48Z</time>
      </trkpt>
      <trkpt lat="45.75461" lon="4.62978">
        <ele>697.57</ele>
        <time>2014-11-02T08:47:59Z</time>
      </trkpt>
      <trkpt lat="45.75474" lon="4.62922">
        <ele>699.02</ele>
        <time>2014-11-02T08:48:09Z</time>
      </trkpt>
      <trkpt lat="45.75495" lon="4.62859">
        <ele>699.5</ele>
        <time>2014-11-02T08:48:20Z</time>
      </trkpt>
      <trkpt lat="45.75513" lon="4.62789">
        <ele>701.42</ele>
        <time>2014-11-02T08:48:32Z</time>
      </trkpt>
      <trkpt lat="45.75531" lon="4.62727">
        <ele>702.38</ele>
        <time>2014-11-02T08:48:45Z</time>
      </trkpt>
      <trkpt lat="45.75549" lon="4.62684">
        <ele>703.34</ele>
        <time>2014-11-02T08:48:59Z</time>
      </trkpt>
      <trkpt lat="45.75555" lon="4.62667">
        <ele>705.26</ele>
        <time>2014-11-02T08:49:06Z</time>
      </trkpt>
      <trkpt lat="45.75556" lon="4.62665">
        <ele>705.75</ele>
        <time>2014-11-02T08:49:07Z</time>
      </trkpt>
      <trkpt lat="45.75556" lon="4.62663">
        <ele>706.23</ele>
        <time>2014-11-02T08:49:08Z</time>
      </trkpt>
      <trkpt lat="45.75557" lon="4.62661">
        <ele>706.71</ele>
        <time>2014-11-02T08:49:09Z</time>
      </trkpt>
      <trkpt lat="45.75557" lon="4.62659">
        <ele>706.71</ele>
        <time>2014-11-02T08:49:10Z</time>
      </trkpt>
      <trkpt lat="45.75558" lon="4.62657">
        <ele>707.19</ele>
        <time>2014-11-02T08:49:11Z</time>
      </trkpt>
      <trkpt lat="45.75559" lon="4.62655">
        <ele>707.19</ele>
        <time>2014-11-02T08:49:12Z</time>
      </trkpt>
      <trkpt lat="45.7556" lon="4.62654">
        <ele>707.19</ele>
        <time>2014-11-02T08:49:13Z</time>
      </trkpt>
      <trkpt lat="45.75561" lon="4.62653">
        <ele>707.67</ele>
        <time>2014-11-02T08:49:14Z</time>
      </trkpt>
      <trkpt lat="45.75562" lon="4.62652">
        <ele>707.67</ele>
        <time>2014-11-02T08:49:15Z</time>
      </trkpt>
      <trkpt lat="45.75563" lon="4.62651">
        <ele>708.15</ele>
        <time>2014-11-02T08:49:16Z</time>
      </trkpt>
      <trkpt lat="45.75565" lon="4.6265">
        <ele>708.63</ele>
        <time>2014-11-02T08:49:17Z</time>
      </trkpt>
      <trkpt lat="45.75566" lon="4.62648">
        <ele>709.11</ele>
        <time>2014-11-02T08:49:18Z</time>
      </trkpt>
      <trkpt lat="45.75567" lon="4.62645">
        <ele>710.07</ele>
        <time>2014-11-02T08:49:20Z</time>
      </trkpt>
      <trkpt lat="45.75568" lon="4.62643">
        <ele>710.55</ele>
        <time>2014-11-02T08:49:21Z</time>
      </trkpt>
      <trkpt lat="45.75572" lon="4.62635">
        <ele>712.95</ele>
        <time>2014-11-02T08:49:27Z</time>
      </trkpt>
      <trkpt lat="45.75572" lon="4.62633">
        <ele>713.44</ele>
        <time>2014-11-02T08:49:28Z</time>
      </trkpt>
      <trkpt lat="45.75573" lon="4.62631">
        <ele>713.92</ele>
        <time>2014-11-02T08:49:29Z</time>
      </trkpt>
      <trkpt lat="45.75583" lon="4.62605">
        <ele>720.16</ele>
        <time>2014-11-02T08:49:43Z</time>
      </trkpt>
      <trkpt lat="45.75584" lon="4.62603">
        <ele>720.65</ele>
        <time>2014-11-02T08:49:44Z</time>
      </trkpt>
      <trkpt lat="45.75585" lon="4.62601">
        <ele>721.13</ele>
        <time>2014-11-02T08:49:45Z</time>
      </trkpt>
      <trkpt lat="45.75586" lon="4.62599">
        <ele>721.61</ele>
        <time>2014-11-02T08:49:46Z</time>
      </trkpt>
      <trkpt lat="45.75586" lon="4.62597">
        <ele>721.61</ele>
        <time>2014-11-02T08:49:47Z</time>
      </trkpt>
      <trkpt lat="45.75591" lon="4.62582">
        <ele>723.53</ele>
        <time>2014-11-02T08:49:55Z</time>
      </trkpt>
      <trkpt lat="45.75591" lon="4.6258">
        <ele>723.53</ele>
        <time>2014-11-02T08:49:56Z</time>
      </trkpt>
      <trkpt lat="45.75592" lon="4.62568">
        <ele>724.97</ele>
        <time>2014-11-02T08:50:02Z</time>
      </trkpt>
      <trkpt lat="45.75593" lon="4.62566">
        <ele>724.97</ele>
        <time>2014-11-02T08:50:03Z</time>
      </trkpt>
      <trkpt lat="45.75594" lon="4.62551">
        <ele>725.45</ele>
        <time>2014-11-02T08:50:09Z</time>
      </trkpt>
      <trkpt lat="45.75594" lon="4.62549">
        <ele>725.45</ele>
        <time>2014-11-02T08:50:10Z</time>
      </trkpt>
      <trkpt lat="45.75594" lon="4.62547">
        <ele>725.93</ele>
        <time>2014-11-02T08:50:11Z</time>
      </trkpt>
      <trkpt lat="45.75595" lon="4.62545">
        <ele>725.93</ele>
        <time>2014-11-02T08:50:12Z</time>
      </trkpt>
      <trkpt lat="45.75596" lon="4.62543">
        <ele>726.41</ele>
        <time>2014-11-02T08:50:13Z</time>
      </trkpt>
      <trkpt lat="45.75596" lon="4.62541">
        <ele>726.89</ele>
        <time>2014-11-02T08:50:14Z</time>
      </trkpt>
      <trkpt lat="45.75595" lon="4.62539">
        <ele>726.89</ele>
        <time>2014-11-02T08:50:15Z</time>
      </trkpt>
      <trkpt lat="45.75596" lon="4.62536">
        <ele>726.89</ele>
        <time>2014-11-02T08:50:16Z</time>
      </trkpt>
      <trkpt lat="45.75596" lon="4.62534">
        <ele>727.37</ele>
        <time>2014-11-02T08:50:17Z</time>
      </trkpt>
      <trkpt lat="45.75596" lon="4.62532">
        <ele>727.86</ele>
        <time>2014-11-02T08:50:18Z</time>
      </trkpt>
      <trkpt lat="45.75599" lon="4.6252">
        <ele>729.78</ele>
        <time>2014-11-02T08:50:26Z</time>
      </trkpt>
      <trkpt lat="45.75601" lon="4.62511">
        <ele>731.22</ele>
        <time>2014-11-02T08:50:32Z</time>
      </trkpt>
      <trkpt lat="45.75601" lon="4.62509">
        <ele>731.7</ele>
        <time>2014-11-02T08:50:33Z</time>
      </trkpt>
      <trkpt lat="45.75602" lon="4.62504">
        <ele>732.66</ele>
        <time>2014-11-02T08:50:36Z</time>
      </trkpt>
      <trkpt lat="45.75602" lon="4.62487">
        <ele>735.07</ele>
        <time>2014-11-02T08:50:43Z</time>
      </trkpt>
      <trkpt lat="45.75602" lon="4.62485">
        <ele>736.03</ele>
        <time>2014-11-02T08:50:44Z</time>
      </trkpt>
      <trkpt lat="45.75602" lon="4.62482">
        <ele>736.51</ele>
        <time>2014-11-02T08:50:45Z</time>
      </trkpt>
      <trkpt lat="45.75604" lon="4.62462">
        <ele>738.43</ele>
        <time>2014-11-02T08:50:55Z</time>
      </trkpt>
      <trkpt lat="45.75605" lon="4.62457">
        <ele>738.43</ele>
        <time>2014-11-02T08:50:58Z</time>
      </trkpt>
      <trkpt lat="45.75605" lon="4.62454">
        <ele>738.43</ele>
        <time>2014-11-02T08:50:59Z</time>
      </trkpt>
      <trkpt lat="45.75606" lon="4.62449">
        <ele>738.91</ele>
        <time>2014-11-02T08:51:02Z</time>
      </trkpt>
      <trkpt lat="45.75607" lon="4.62435">
        <ele>740.35</ele>
        <time>2014-11-02T08:51:08Z</time>
      </trkpt>
      <trkpt lat="45.75608" lon="4.62432">
        <ele>740.35</ele>
        <time>2014-11-02T08:51:09Z</time>
      </trkpt>
      <trkpt lat="45.75607" lon="4.62429">
        <ele>740.35</ele>
        <time>2014-11-02T08:51:10Z</time>
      </trkpt>
      <trkpt lat="45.75607" lon="4.62426">
        <ele>740.35</ele>
        <time>2014-11-02T08:51:11Z</time>
      </trkpt>
      <trkpt lat="45.75608" lon="4.62424">
        <ele>740.35</ele>
        <time>2014-11-02T08:51:12Z</time>
      </trkpt>
      <trkpt lat="45.75608" lon="4.62421">
        <ele>740.35</ele>
        <time>2014-11-02T08:51:13Z</time>
      </trkpt>
      <trkpt lat="45.75609" lon="4.62416">
        <ele>740.35</ele>
        <time>2014-11-02T08:51:15Z</time>
      </trkpt>
      <trkpt lat="45.7561" lon="4.62404">
        <ele>741.79</ele>
        <time>2014-11-02T08:51:20Z</time>
      </trkpt>
      <trkpt lat="45.75612" lon="4.62391">
        <ele>742.76</ele>
        <time>2014-11-02T08:51:24Z</time>
      </trkpt>
      <trkpt lat="45.75612" lon="4.62387">
        <ele>743.24</ele>
        <time>2014-11-02T08:51:25Z</time>
      </trkpt>
      <trkpt lat="45.75612" lon="4.62384">
        <ele>743.24</ele>
        <time>2014-11-02T08:51:26Z</time>
      </trkpt>
      <trkpt lat="45.75613" lon="4.6238">
        <ele>743.24</ele>
        <time>2014-11-02T08:51:27Z</time>
      </trkpt>
      <trkpt lat="45.75612" lon="4.62377">
        <ele>743.24</ele>
        <time>2014-11-02T08:51:28Z</time>
      </trkpt>
      <trkpt lat="45.75612" lon="4.62374">
        <ele>743.24</ele>
        <time>2014-11-02T08:51:29Z</time>
      </trkpt>
      <trkpt lat="45.75605" lon="4.62334">
        <ele>746.12</ele>
        <time>2014-11-02T08:51:40Z</time>
      </trkpt>
      <trkpt lat="45.75604" lon="4.6233">
        <ele>747.08</ele>
        <time>2014-11-02T08:51:42Z</time>
      </trkpt>
      <trkpt lat="45.75603" lon="4.62326">
        <ele>747.56</ele>
        <time>2014-11-02T08:51:43Z</time>
      </trkpt>
      <trkpt lat="45.75595" lon="4.62294">
        <ele>751.89</ele>
        <time>2014-11-02T08:51:54Z</time>
      </trkpt>
      <trkpt lat="45.75594" lon="4.62291">
        <ele>752.37</ele>
        <time>2014-11-02T08:51:55Z</time>
      </trkpt>
      <trkpt lat="45.75594" lon="4.62289">
        <ele>752.37</ele>
        <time>2014-11-02T08:51:56Z</time>
      </trkpt>
      <trkpt lat="45.75593" lon="4.62286">
        <ele>752.85</ele>
        <time>2014-11-02T08:51:57Z</time>
      </trkpt>
      <trkpt lat="45.75592" lon="4.62284">
        <ele>753.33</ele>
        <time>2014-11-02T08:51:58Z</time>
      </trkpt>
      <trkpt lat="45.75592" lon="4.62281">
        <ele>753.33</ele>
        <time>2014-11-02T08:51:59Z</time>
      </trkpt>
      <trkpt lat="45.75591" lon="4.62278">
        <ele>753.33</ele>
        <time>2014-11-02T08:52:00Z</time>
      </trkpt>
      <trkpt lat="45.7559" lon="4.62275">
        <ele>753.81</ele>
        <time>2014-11-02T08:52:01Z</time>
      </trkpt>
      <trkpt lat="45.7559" lon="4.62273">
        <ele>753.81</ele>
        <time>2014-11-02T08:52:02Z</time>
      </trkpt>
      <trkpt lat="45.7559" lon="4.62261">
        <ele>754.29</ele>
        <time>2014-11-02T08:52:08Z</time>
      </trkpt>
      <trkpt lat="45.75588" lon="4.62232">
        <ele>753.33</ele>
        <time>2014-11-02T08:52:18Z</time>
      </trkpt>
      <trkpt lat="45.75587" lon="4.6223">
        <ele>753.81</ele>
        <time>2014-11-02T08:52:19Z</time>
      </trkpt>
      <trkpt lat="45.75586" lon="4.62228">
        <ele>753.81</ele>
        <time>2014-11-02T08:52:20Z</time>
      </trkpt>
      <trkpt lat="45.75585" lon="4.62225">
        <ele>753.81</ele>
        <time>2014-11-02T08:52:21Z</time>
      </trkpt>
      <trkpt lat="45.75585" lon="4.62222">
        <ele>753.81</ele>
        <time>2014-11-02T08:52:22Z</time>
      </trkpt>
      <trkpt lat="45.75585" lon="4.62219">
        <ele>754.29</ele>
        <time>2014-11-02T08:52:23Z</time>
      </trkpt>
      <trkpt lat="45.75585" lon="4.62217">
        <ele>754.77</ele>
        <time>2014-11-02T08:52:24Z</time>
      </trkpt>
      <trkpt lat="45.75588" lon="4.62207">
        <ele>755.25</ele>
        <time>2014-11-02T08:52:28Z</time>
      </trkpt>
      <trkpt lat="45.75589" lon="4.62204">
        <ele>754.77</ele>
        <time>2014-11-02T08:52:29Z</time>
      </trkpt>
      <trkpt lat="45.75589" lon="4.62201">
        <ele>754.77</ele>
        <time>2014-11-02T08:52:30Z</time>
      </trkpt>
      <trkpt lat="45.7559" lon="4.62172">
        <ele>753.81</ele>
        <time>2014-11-02T08:52:41Z</time>
      </trkpt>
      <trkpt lat="45.75591" lon="4.6217">
        <ele>754.29</ele>
        <time>2014-11-02T08:52:42Z</time>
      </trkpt>
      <trkpt lat="45.75592" lon="4.62168">
        <ele>754.29</ele>
        <time>2014-11-02T08:52:43Z</time>
      </trkpt>
      <trkpt lat="45.75592" lon="4.62157">
        <ele>753.33</ele>
        <time>2014-11-02T08:52:48Z</time>
      </trkpt>
      <trkpt lat="45.75592" lon="4.62155">
        <ele>753.33</ele>
        <time>2014-11-02T08:52:49Z</time>
      </trkpt>
      <trkpt lat="45.75593" lon="4.62152">
        <ele>752.85</ele>
        <time>2014-11-02T08:52:50Z</time>
      </trkpt>
      <trkpt lat="45.75593" lon="4.62149">
        <ele>752.85</ele>
        <time>2014-11-02T08:52:51Z</time>
      </trkpt>
      <trkpt lat="45.75593" lon="4.62146">
        <ele>753.33</ele>
        <time>2014-11-02T08:52:53Z</time>
      </trkpt>
      <trkpt lat="45.75594" lon="4.62136">
        <ele>754.29</ele>
        <time>2014-11-02T08:52:58Z</time>
      </trkpt>
      <trkpt lat="45.75594" lon="4.62133">
        <ele>754.29</ele>
        <time>2014-11-02T08:52:59Z</time>
      </trkpt>
      <trkpt lat="45.75595" lon="4.62132">
        <ele>754.77</ele>
        <time>2014-11-02T08:53:00Z</time>
      </trkpt>
      <trkpt lat="45.75595" lon="4.62129">
        <ele>754.77</ele>
        <time>2014-11-02T08:53:01Z</time>
      </trkpt>
      <trkpt lat="45.75596" lon="4.62127">
        <ele>755.25</ele>
        <time>2014-11-02T08:53:02Z</time>
      </trkpt>
      <trkpt lat="45.75596" lon="4.62125">
        <ele>755.73</ele>
        <time>2014-11-02T08:53:03Z</time>
      </trkpt>
      <trkpt lat="45.75595" lon="4.62123">
        <ele>756.21</ele>
        <time>2014-11-02T08:53:04Z</time>
      </trkpt>
      <trkpt lat="45.75595" lon="4.62121">
        <ele>756.69</ele>
        <time>2014-11-02T08:53:05Z</time>
      </trkpt>
      <trkpt lat="45.75595" lon="4.62117">
        <ele>757.66</ele>
        <time>2014-11-02T08:53:07Z</time>
      </trkpt>
      <trkpt lat="45.75595" lon="4.62115">
        <ele>758.14</ele>
        <time>2014-11-02T08:53:08Z</time>
      </trkpt>
      <trkpt lat="45.75595" lon="4.62107">
        <ele>758.14</ele>
        <time>2014-11-02T08:53:12Z</time>
      </trkpt>
      <trkpt lat="45.75597" lon="4.62086">
        <ele>758.14</ele>
        <time>2014-11-02T08:53:22Z</time>
      </trkpt>
      <trkpt lat="45.75596" lon="4.62083">
        <ele>758.14</ele>
        <time>2014-11-02T08:53:23Z</time>
      </trkpt>
      <trkpt lat="45.75597" lon="4.62074">
        <ele>760.06</ele>
        <time>2014-11-02T08:53:29Z</time>
      </trkpt>
      <trkpt lat="45.75597" lon="4.62071">
        <ele>760.54</ele>
        <time>2014-11-02T08:53:30Z</time>
      </trkpt>
      <trkpt lat="45.75596" lon="4.62041">
        <ele>763.42</ele>
        <time>2014-11-02T08:53:41Z</time>
      </trkpt>
      <trkpt lat="45.75596" lon="4.62029">
        <ele>764.39</ele>
        <time>2014-11-02T08:53:45Z</time>
      </trkpt>
      <trkpt lat="45.75596" lon="4.62026">
        <ele>764.87</ele>
        <time>2014-11-02T08:53:46Z</time>
      </trkpt>
      <trkpt lat="45.75596" lon="4.62022">
        <ele>764.87</ele>
        <time>2014-11-02T08:53:47Z</time>
      </trkpt>
      <trkpt lat="45.7559" lon="4.6198">
        <ele>769.19</ele>
        <time>2014-11-02T08:53:57Z</time>
      </trkpt>
      <trkpt lat="45.75591" lon="4.61968">
        <ele>771.6</ele>
        <time>2014-11-02T08:54:01Z</time>
      </trkpt>
      <trkpt lat="45.75594" lon="4.6195">
        <ele>776.4</ele>
        <time>2014-11-02T08:54:08Z</time>
      </trkpt>
      <trkpt lat="45.75593" lon="4.61946">
        <ele>777.36</ele>
        <time>2014-11-02T08:54:09Z</time>
      </trkpt>
      <trkpt lat="45.75594" lon="4.61943">
        <ele>777.84</ele>
        <time>2014-11-02T08:54:10Z</time>
      </trkpt>
      <trkpt lat="45.75595" lon="4.61933">
        <ele>779.29</ele>
        <time>2014-11-02T08:54:13Z</time>
      </trkpt>
      <trkpt lat="45.75595" lon="4.61929">
        <ele>779.77</ele>
        <time>2014-11-02T08:54:14Z</time>
      </trkpt>
      <trkpt lat="45.75593" lon="4.61924">
        <ele>779.77</ele>
        <time>2014-11-02T08:54:15Z</time>
      </trkpt>
      <trkpt lat="45.75592" lon="4.61916">
        <ele>780.73</ele>
        <time>2014-11-02T08:54:17Z</time>
      </trkpt>
      <trkpt lat="45.75591" lon="4.61912">
        <ele>781.21</ele>
        <time>2014-11-02T08:54:18Z</time>
      </trkpt>
      <trkpt lat="45.75591" lon="4.6191">
        <ele>781.69</ele>
        <time>2014-11-02T08:54:19Z</time>
      </trkpt>
      <trkpt lat="45.7559" lon="4.61906">
        <ele>782.17</ele>
        <time>2014-11-02T08:54:20Z</time>
      </trkpt>
      <trkpt lat="45.75589" lon="4.61902">
        <ele>782.65</ele>
        <time>2014-11-02T08:54:21Z</time>
      </trkpt>
      <trkpt lat="45.7559" lon="4.61869">
        <ele>786.02</ele>
        <time>2014-11-02T08:54:31Z</time>
      </trkpt>
      <trkpt lat="45.75596" lon="4.61858">
        <ele>785.05</ele>
        <time>2014-11-02T08:54:36Z</time>
      </trkpt>
      <trkpt lat="45.75594" lon="4.61822">
        <ele>780.25</ele>
        <time>2014-11-02T08:54:46Z</time>
      </trkpt>
      <trkpt lat="45.75594" lon="4.61815">
        <ele>779.77</ele>
        <time>2014-11-02T08:54:48Z</time>
      </trkpt>
      <trkpt lat="45.75599" lon="4.61799">
        <ele>775.44</ele>
        <time>2014-11-02T08:54:54Z</time>
      </trkpt>
      <trkpt lat="45.75602" lon="4.61789">
        <ele>774.48</ele>
        <time>2014-11-02T08:54:59Z</time>
      </trkpt>
      <trkpt lat="45.75595" lon="4.61792">
        <ele>773.04</ele>
        <time>2014-11-02T08:55:03Z</time>
      </trkpt>
      <trkpt lat="45.75587" lon="4.61792">
        <ele>770.63</ele>
        <time>2014-11-02T08:55:09Z</time>
      </trkpt>
      <trkpt lat="45.75585" lon="4.61791">
        <ele>767.75</ele>
        <time>2014-11-02T08:55:22Z</time>
      </trkpt>
      <trkpt lat="45.75587" lon="4.61794">
        <ele>766.31</ele>
        <time>2014-11-02T08:55:54Z</time>
      </trkpt>
      <trkpt lat="45.75587" lon="4.61796">
        <ele>764.39</ele>
        <time>2014-11-02T08:56:24Z</time>
      </trkpt>
      <trkpt lat="45.75586" lon="4.61798">
        <ele>762.46</ele>
        <time>2014-11-02T08:56:55Z</time>
      </trkpt>
      <trkpt lat="45.75589" lon="4.61798">
        <ele>762.94</ele>
        <time>2014-11-02T08:57:31Z</time>
      </trkpt>
      <trkpt lat="45.75588" lon="4.61797">
        <ele>761.02</ele>
        <time>2014-11-02T08:58:05Z</time>
      </trkpt>
      <trkpt lat="45.75589" lon="4.61796">
        <ele>761.02</ele>
        <time>2014-11-02T08:58:38Z</time>
      </trkpt>
      <trkpt lat="45.7559" lon="4.61796">
        <ele>761.02</ele>
        <time>2014-11-02T08:59:05Z</time>
      </trkpt>
      <trkpt lat="45.7559" lon="4.61796">
        <ele>760.54</ele>
        <time>2014-11-02T08:59:39Z</time>
      </trkpt>
      <trkpt lat="45.7559" lon="4.61796">
        <ele>760.54</ele>
        <time>2014-11-02T09:00:10Z</time>
      </trkpt>
      <trkpt lat="45.7559" lon="4.61797">
        <ele>760.06</ele>
        <time>2014-11-02T09:00:46Z</time>
      </trkpt>
      <trkpt lat="45.7559" lon="4.61795">
        <ele>761.98</ele>
        <time>2014-11-02T09:01:03Z</time>
      </trkpt>
      <trkpt lat="45.7559" lon="4.61792">
        <ele>762.94</ele>
        <time>2014-11-02T09:01:15Z</time>
      </trkpt>
      <trkpt lat="45.75585" lon="4.61783">
        <ele>764.87</ele>
        <time>2014-11-02T09:01:22Z</time>
      </trkpt>
      <trkpt lat="45.75581" lon="4.61774">
        <ele>765.83</ele>
        <time>2014-11-02T09:01:26Z</time>
      </trkpt>
      <trkpt lat="45.7556" lon="4.61746">
        <ele>765.83</ele>
        <time>2014-11-02T09:01:38Z</time>
      </trkpt>
      <trkpt lat="45.75558" lon="4.61744">
        <ele>765.83</ele>
        <time>2014-11-02T09:01:39Z</time>
      </trkpt>
      <trkpt lat="45.75545" lon="4.61722">
        <ele>768.23</ele>
        <time>2014-11-02T09:01:50Z</time>
      </trkpt>
      <trkpt lat="45.7553" lon="4.617">
        <ele>771.6</ele>
        <time>2014-11-02T09:02:00Z</time>
      </trkpt>
      <trkpt lat="45.75514" lon="4.61684">
        <ele>774</ele>
        <time>2014-11-02T09:02:11Z</time>
      </trkpt>
      <trkpt lat="45.75496" lon="4.61671">
        <ele>775.44</ele>
        <time>2014-11-02T09:02:21Z</time>
      </trkpt>
      <trkpt lat="45.75484" lon="4.61659">
        <ele>778.32</ele>
        <time>2014-11-02T09:02:31Z</time>
      </trkpt>
      <trkpt lat="45.75468" lon="4.61648">
        <ele>782.17</ele>
        <time>2014-11-02T09:02:42Z</time>
      </trkpt>
      <trkpt lat="45.75452" lon="4.61644">
        <ele>786.98</ele>
        <time>2014-11-02T09:02:53Z</time>
      </trkpt>
      <trkpt lat="45.75426" lon="4.61636">
        <ele>791.78</ele>
        <time>2014-11-02T09:03:04Z</time>
      </trkpt>
      <trkpt lat="45.75418" lon="4.61632">
        <ele>792.74</ele>
        <time>2014-11-02T09:03:07Z</time>
      </trkpt>
      <trkpt lat="45.75399" lon="4.61619">
        <ele>794.67</ele>
        <time>2014-11-02T09:03:17Z</time>
      </trkpt>
      <trkpt lat="45.75376" lon="4.61602">
        <ele>795.63</ele>
        <time>2014-11-02T09:03:26Z</time>
      </trkpt>
      <trkpt lat="45.75348" lon="4.61586">
        <ele>795.15</ele>
        <time>2014-11-02T09:03:37Z</time>
      </trkpt>
      <trkpt lat="45.7532" lon="4.61582">
        <ele>795.15</ele>
        <time>2014-11-02T09:03:49Z</time>
      </trkpt>
      <trkpt lat="45.75298" lon="4.61556">
        <ele>792.74</ele>
        <time>2014-11-02T09:03:58Z</time>
      </trkpt>
      <trkpt lat="45.75294" lon="4.61542">
        <ele>792.26</ele>
        <time>2014-11-02T09:04:00Z</time>
      </trkpt>
      <trkpt lat="45.75293" lon="4.61535">
        <ele>792.26</ele>
        <time>2014-11-02T09:04:01Z</time>
      </trkpt>
      <trkpt lat="45.75292" lon="4.61527">
        <ele>792.26</ele>
        <time>2014-11-02T09:04:02Z</time>
      </trkpt>
      <trkpt lat="45.7529" lon="4.61519">
        <ele>791.78</ele>
        <time>2014-11-02T09:04:03Z</time>
      </trkpt>
      <trkpt lat="45.75282" lon="4.61459">
        <ele>790.82</ele>
        <time>2014-11-02T09:04:09Z</time>
      </trkpt>
      <trkpt lat="45.7528" lon="4.61396">
        <ele>789.38</ele>
        <time>2014-11-02T09:04:14Z</time>
      </trkpt>
      <trkpt lat="45.75275" lon="4.6136">
        <ele>789.38</ele>
        <time>2014-11-02T09:04:17Z</time>
      </trkpt>
      <trkpt lat="45.75273" lon="4.61349">
        <ele>789.38</ele>
        <time>2014-11-02T09:04:18Z</time>
      </trkpt>
      <trkpt lat="45.75271" lon="4.61339">
        <ele>788.9</ele>
        <time>2014-11-02T09:04:19Z</time>
      </trkpt>
      <trkpt lat="45.75264" lon="4.61311">
        <ele>788.42</ele>
        <time>2014-11-02T09:04:23Z</time>
      </trkpt>
      <trkpt lat="45.7526" lon="4.61298">
        <ele>788.42</ele>
        <time>2014-11-02T09:04:25Z</time>
      </trkpt>
      <trkpt lat="45.75258" lon="4.61293">
        <ele>788.42</ele>
        <time>2014-11-02T09:04:26Z</time>
      </trkpt>
      <trkpt lat="45.75247" lon="4.61245">
        <ele>789.38</ele>
        <time>2014-11-02T09:04:33Z</time>
      </trkpt>
      <trkpt lat="45.75242" lon="4.61214">
        <ele>789.86</ele>
        <time>2014-11-02T09:04:37Z</time>
      </trkpt>
      <trkpt lat="45.7524" lon="4.61207">
        <ele>789.86</ele>
        <time>2014-11-02T09:04:38Z</time>
      </trkpt>
      <trkpt lat="45.75235" lon="4.61194">
        <ele>788.9</ele>
        <time>2014-11-02T09:04:40Z</time>
      </trkpt>
      <trkpt lat="45.75223" lon="4.61177">
        <ele>787.46</ele>
        <time>2014-11-02T09:04:43Z</time>
      </trkpt>
      <trkpt lat="45.75197" lon="4.61147">
        <ele>784.57</ele>
        <time>2014-11-02T09:04:49Z</time>
      </trkpt>
      <trkpt lat="45.75171" lon="4.61109">
        <ele>780.25</ele>
        <time>2014-11-02T09:04:56Z</time>
      </trkpt>
      <trkpt lat="45.75169" lon="4.61104">
        <ele>779.77</ele>
        <time>2014-11-02T09:04:57Z</time>
      </trkpt>
      <trkpt lat="45.75161" lon="4.6109">
        <ele>778.81</ele>
        <time>2014-11-02T09:05:00Z</time>
      </trkpt>
      <trkpt lat="45.75158" lon="4.61084">
        <ele>777.84</ele>
        <time>2014-11-02T09:05:01Z</time>
      </trkpt>
      <trkpt lat="45.75155" lon="4.61077">
        <ele>777.36</ele>
        <time>2014-11-02T09:05:02Z</time>
      </trkpt>
      <trkpt lat="45.7515" lon="4.61063">
        <ele>776.88</ele>
        <time>2014-11-02T09:05:04Z</time>
      </trkpt>
      <trkpt lat="45.75149" lon="4.61058">
        <ele>775.92</ele>
        <time>2014-11-02T09:05:05Z</time>
      </trkpt>
      <trkpt lat="45.75147" lon="4.61053">
        <ele>775.44</ele>
        <time>2014-11-02T09:05:06Z</time>
      </trkpt>
      <trkpt lat="45.75144" lon="4.61047">
        <ele>774.48</ele>
        <time>2014-11-02T09:05:07Z</time>
      </trkpt>
      <trkpt lat="45.75141" lon="4.61043">
        <ele>774</ele>
        <time>2014-11-02T09:05:08Z</time>
      </trkpt>
      <trkpt lat="45.75138" lon="4.61039">
        <ele>773.52</ele>
        <time>2014-11-02T09:05:09Z</time>
      </trkpt>
      <trkpt lat="45.75134" lon="4.61037">
        <ele>773.52</ele>
        <time>2014-11-02T09:05:10Z</time>
      </trkpt>
      <trkpt lat="45.7513" lon="4.61036">
        <ele>773.04</ele>
        <time>2014-11-02T09:05:11Z</time>
      </trkpt>
      <trkpt lat="45.75126" lon="4.61035">
        <ele>772.56</ele>
        <time>2014-11-02T09:05:12Z</time>
      </trkpt>
      <trkpt lat="45.75121" lon="4.61034">
        <ele>772.08</ele>
        <time>2014-11-02T09:05:13Z</time>
      </trkpt>
      <trkpt lat="45.75116" lon="4.61033">
        <ele>772.08</ele>
        <time>2014-11-02T09:05:14Z</time>
      </trkpt>
      <trkpt lat="45.75098" lon="4.61033">
        <ele>770.63</ele>
        <time>2014-11-02T09:05:17Z</time>
      </trkpt>
      <trkpt lat="45.75086" lon="4.61035">
        <ele>770.15</ele>
        <time>2014-11-02T09:05:19Z</time>
      </trkpt>
      <trkpt lat="45.7508" lon="4.61035">
        <ele>769.67</ele>
        <time>2014-11-02T09:05:20Z</time>
      </trkpt>
      <trkpt lat="45.75073" lon="4.61036">
        <ele>769.19</ele>
        <time>2014-11-02T09:05:21Z</time>
      </trkpt>
      <trkpt lat="45.7506" lon="4.61039">
        <ele>768.23</ele>
        <time>2014-11-02T09:05:23Z</time>
      </trkpt>
      <trkpt lat="45.75054" lon="4.61039">
        <ele>767.75</ele>
        <time>2014-11-02T09:05:24Z</time>
      </trkpt>
      <trkpt lat="45.75049" lon="4.61039">
        <ele>767.27</ele>
        <time>2014-11-02T09:05:25Z</time>
      </trkpt>
      <trkpt lat="45.75043" lon="4.61039">
        <ele>767.27</ele>
        <time>2014-11-02T09:05:26Z</time>
      </trkpt>
      <trkpt lat="45.75037" lon="4.61039">
        <ele>766.31</ele>
        <time>2014-11-02T09:05:27Z</time>
      </trkpt>
      <trkpt lat="45.75031" lon="4.6104">
        <ele>765.83</ele>
        <time>2014-11-02T09:05:28Z</time>
      </trkpt>
      <trkpt lat="45.75026" lon="4.61041">
        <ele>765.83</ele>
        <time>2014-11-02T09:05:29Z</time>
      </trkpt>
      <trkpt lat="45.75008" lon="4.61047">
        <ele>764.87</ele>
        <time>2014-11-02T09:05:33Z</time>
      </trkpt>
      <trkpt lat="45.75002" lon="4.61049">
        <ele>764.39</ele>
        <time>2014-11-02T09:05:34Z</time>
      </trkpt>
      <trkpt lat="45.74998" lon="4.61052">
        <ele>763.9</ele>
        <time>2014-11-02T09:05:35Z</time>
      </trkpt>
      <trkpt lat="45.74992" lon="4.61055">
        <ele>763.42</ele>
        <time>2014-11-02T09:05:36Z</time>
      </trkpt>
      <trkpt lat="45.74986" lon="4.61058">
        <ele>762.46</ele>
        <time>2014-11-02T09:05:37Z</time>
      </trkpt>
      <trkpt lat="45.7498" lon="4.61061">
        <ele>761.98</ele>
        <time>2014-11-02T09:05:38Z</time>
      </trkpt>
      <trkpt lat="45.74931" lon="4.61082">
        <ele>757.66</ele>
        <time>2014-11-02T09:05:46Z</time>
      </trkpt>
      <trkpt lat="45.74926" lon="4.61086">
        <ele>757.18</ele>
        <time>2014-11-02T09:05:47Z</time>
      </trkpt>
      <trkpt lat="45.74921" lon="4.6109">
        <ele>756.69</ele>
        <time>2014-11-02T09:05:48Z</time>
      </trkpt>
      <trkpt lat="45.74916" lon="4.61093">
        <ele>756.21</ele>
        <time>2014-11-02T09:05:49Z</time>
      </trkpt>
      <trkpt lat="45.74911" lon="4.61096">
        <ele>755.25</ele>
        <time>2014-11-02T09:05:50Z</time>
      </trkpt>
      <trkpt lat="45.74908" lon="4.61099">
        <ele>754.77</ele>
        <time>2014-11-02T09:05:51Z</time>
      </trkpt>
      <trkpt lat="45.74902" lon="4.61107">
        <ele>752.85</ele>
        <time>2014-11-02T09:06:00Z</time>
      </trkpt>
      <trkpt lat="45.74896" lon="4.61112">
        <ele>755.25</ele>
        <time>2014-11-02T09:06:24Z</time>
      </trkpt>
      <trkpt lat="45.74896" lon="4.61111">
        <ele>755.73</ele>
        <time>2014-11-02T09:06:48Z</time>
      </trkpt>
      <trkpt lat="45.74895" lon="4.61111">
        <ele>755.73</ele>
        <time>2014-11-02T09:07:01Z</time>
      </trkpt>
      <trkpt lat="45.74895" lon="4.61112">
        <ele>755.25</ele>
        <time>2014-11-02T09:07:21Z</time>
      </trkpt>
      <trkpt lat="45.74894" lon="4.61111">
        <ele>755.25</ele>
        <time>2014-11-02T09:07:25Z</time>
      </trkpt>
      <trkpt lat="45.74893" lon="4.61111">
        <ele>755.25</ele>
        <time>2014-11-02T09:07:26Z</time>
      </trkpt>
      <trkpt lat="45.7489" lon="4.6111">
        <ele>754.77</ele>
        <time>2014-11-02T09:07:29Z</time>
      </trkpt>
      <trkpt lat="45.74889" lon="4.6111">
        <ele>754.77</ele>
        <time>2014-11-02T09:07:30Z</time>
      </trkpt>
      <trkpt lat="45.74886" lon="4.61109">
        <ele>754.29</ele>
        <time>2014-11-02T09:07:32Z</time>
      </trkpt>
      <trkpt lat="45.74885" lon="4.61107">
        <ele>753.81</ele>
        <time>2014-11-02T09:07:34Z</time>
      </trkpt>
      <trkpt lat="45.7487" lon="4.61103">
        <ele>750.93</ele>
        <time>2014-11-02T09:07:40Z</time>
      </trkpt>
      <trkpt lat="45.74856" lon="4.61107">
        <ele>747.56</ele>
        <time>2014-11-02T09:07:46Z</time>
      </trkpt>
      <trkpt lat="45.74844" lon="4.61112">
        <ele>743.24</ele>
        <time>2014-11-02T09:07:51Z</time>
      </trkpt>
      <trkpt lat="45.74829" lon="4.61122">
        <ele>737.95</ele>
        <time>2014-11-02T09:07:58Z</time>
      </trkpt>
      <trkpt lat="45.74803" lon="4.61143">
        <ele>731.7</ele>
        <time>2014-11-02T09:08:10Z</time>
      </trkpt>
      <trkpt lat="45.74797" lon="4.6116">
        <ele>730.74</ele>
        <time>2014-11-02T09:08:17Z</time>
      </trkpt>
      <trkpt lat="45.74794" lon="4.61168">
        <ele>734.1</ele>
        <time>2014-11-02T09:08:31Z</time>
      </trkpt>
      <trkpt lat="45.74794" lon="4.6117">
        <ele>735.55</ele>
        <time>2014-11-02T09:08:54Z</time>
      </trkpt>
      <trkpt lat="45.74794" lon="4.61167">
        <ele>737.47</ele>
        <time>2014-11-02T09:09:13Z</time>
      </trkpt>
      <trkpt lat="45.74775" lon="4.61142">
        <ele>739.39</ele>
        <time>2014-11-02T09:09:24Z</time>
      </trkpt>
      <trkpt lat="45.74769" lon="4.61134">
        <ele>739.87</ele>
        <time>2014-11-02T09:09:26Z</time>
      </trkpt>
      <trkpt lat="45.74766" lon="4.61131">
        <ele>739.39</ele>
        <time>2014-11-02T09:09:27Z</time>
      </trkpt>
      <trkpt lat="45.74758" lon="4.61122">
        <ele>739.39</ele>
        <time>2014-11-02T09:09:29Z</time>
      </trkpt>
      <trkpt lat="45.74701" lon="4.61058">
        <ele>737.95</ele>
        <time>2014-11-02T09:09:39Z</time>
      </trkpt>
      <trkpt lat="45.74645" lon="4.60978">
        <ele>735.55</ele>
        <time>2014-11-02T09:09:47Z</time>
      </trkpt>
      <trkpt lat="45.7464" lon="4.60967">
        <ele>735.07</ele>
        <time>2014-11-02T09:09:48Z</time>
      </trkpt>
      <trkpt lat="45.74582" lon="4.6086">
        <ele>730.74</ele>
        <time>2014-11-02T09:09:59Z</time>
      </trkpt>
      <trkpt lat="45.74568" lon="4.60836">
        <ele>731.22</ele>
        <time>2014-11-02T09:10:03Z</time>
      </trkpt>
      <trkpt lat="45.74549" lon="4.60791">
        <ele>733.62</ele>
        <time>2014-11-02T09:10:13Z</time>
      </trkpt>
      <trkpt lat="45.7454" lon="4.60767">
        <ele>737.47</ele>
        <time>2014-11-02T09:10:20Z</time>
      </trkpt>
      <trkpt lat="45.74536" lon="4.60763">
        <ele>737.95</ele>
        <time>2014-11-02T09:10:22Z</time>
      </trkpt>
      <trkpt lat="45.74534" lon="4.60761">
        <ele>737.95</ele>
        <time>2014-11-02T09:10:23Z</time>
      </trkpt>
      <trkpt lat="45.74531" lon="4.60759">
        <ele>738.43</ele>
        <time>2014-11-02T09:10:25Z</time>
      </trkpt>
      <trkpt lat="45.7453" lon="4.60757">
        <ele>738.43</ele>
        <time>2014-11-02T09:10:26Z</time>
      </trkpt>
      <trkpt lat="45.74519" lon="4.60741">
        <ele>742.28</ele>
        <time>2014-11-02T09:10:37Z</time>
      </trkpt>
      <trkpt lat="45.74509" lon="4.60726">
        <ele>748.52</ele>
        <time>2014-11-02T09:10:50Z</time>
      </trkpt>
      <trkpt lat="45.74499" lon="4.60717">
        <ele>752.37</ele>
        <time>2014-11-02T09:11:01Z</time>
      </trkpt>
      <trkpt lat="45.74483" lon="4.60706">
        <ele>752.85</ele>
        <time>2014-11-02T09:11:12Z</time>
      </trkpt>
      <trkpt lat="45.74464" lon="4.60694">
        <ele>755.25</ele>
        <time>2014-11-02T09:11:26Z</time>
      </trkpt>
      <trkpt lat="45.74461" lon="4.60691">
        <ele>755.73</ele>
        <time>2014-11-02T09:11:29Z</time>
      </trkpt>
      <trkpt lat="45.74451" lon="4.60686">
        <ele>757.18</ele>
        <time>2014-11-02T09:11:37Z</time>
      </trkpt>
      <trkpt lat="45.74448" lon="4.60685">
        <ele>757.66</ele>
        <time>2014-11-02T09:11:40Z</time>
      </trkpt>
      <trkpt lat="45.74447" lon="4.60684">
        <ele>757.66</ele>
        <time>2014-11-02T09:11:41Z</time>
      </trkpt>
      <trkpt lat="45.74445" lon="4.60683">
        <ele>757.66</ele>
        <time>2014-11-02T09:11:42Z</time>
      </trkpt>
      <trkpt lat="45.74434" lon="4.60673">
        <ele>759.58</ele>
        <time>2014-11-02T09:11:53Z</time>
      </trkpt>
      <trkpt lat="45.74427" lon="4.60668">
        <ele>759.1</ele>
        <time>2014-11-02T09:11:59Z</time>
      </trkpt>
      <trkpt lat="45.74426" lon="4.60667">
        <ele>759.1</ele>
        <time>2014-11-02T09:12:00Z</time>
      </trkpt>
      <trkpt lat="45.74414" lon="4.6066">
        <ele>760.54</ele>
        <time>2014-11-02T09:12:09Z</time>
      </trkpt>
      <trkpt lat="45.74413" lon="4.60659">
        <ele>760.54</ele>
        <time>2014-11-02T09:12:10Z</time>
      </trkpt>
      <trkpt lat="45.74411" lon="4.60658">
        <ele>761.02</ele>
        <time>2014-11-02T09:12:11Z</time>
      </trkpt>
      <trkpt lat="45.7441" lon="4.60658">
        <ele>761.02</ele>
        <time>2014-11-02T09:12:12Z</time>
      </trkpt>
      <trkpt lat="45.74408" lon="4.60657">
        <ele>761.02</ele>
        <time>2014-11-02T09:12:13Z</time>
      </trkpt>
      <trkpt lat="45.74395" lon="4.60646">
        <ele>762.46</ele>
        <time>2014-11-02T09:12:24Z</time>
      </trkpt>
      <trkpt lat="45.74382" lon="4.60637">
        <ele>766.79</ele>
        <time>2014-11-02T09:12:35Z</time>
      </trkpt>
      <trkpt lat="45.74369" lon="4.60625">
        <ele>768.71</ele>
        <time>2014-11-02T09:12:48Z</time>
      </trkpt>
      <trkpt lat="45.74368" lon="4.60624">
        <ele>768.71</ele>
        <time>2014-11-02T09:12:49Z</time>
      </trkpt>
      <trkpt lat="45.74367" lon="4.60622">
        <ele>768.23</ele>
        <time>2014-11-02T09:12:50Z</time>
      </trkpt>
      <trkpt lat="45.74357" lon="4.60611">
        <ele>769.19</ele>
        <time>2014-11-02T09:13:01Z</time>
      </trkpt>
      <trkpt lat="45.74355" lon="4.60611">
        <ele>769.67</ele>
        <time>2014-11-02T09:13:02Z</time>
      </trkpt>
      <trkpt lat="45.74353" lon="4.6061">
        <ele>769.67</ele>
        <time>2014-11-02T09:13:03Z</time>
      </trkpt>
      <trkpt lat="45.74343" lon="4.60601">
        <ele>770.63</ele>
        <time>2014-11-02T09:13:14Z</time>
      </trkpt>
      <trkpt lat="45.74342" lon="4.606">
        <ele>770.63</ele>
        <time>2014-11-02T09:13:15Z</time>
      </trkpt>
      <trkpt lat="45.74333" lon="4.60591">
        <ele>770.63</ele>
        <time>2014-11-02T09:13:23Z</time>
      </trkpt>
      <trkpt lat="45.74333" lon="4.6059">
        <ele>770.63</ele>
        <time>2014-11-02T09:13:24Z</time>
      </trkpt>
      <trkpt lat="45.74331" lon="4.60588">
        <ele>770.63</ele>
        <time>2014-11-02T09:13:25Z</time>
      </trkpt>
      <trkpt lat="45.74323" lon="4.60584">
        <ele>773.04</ele>
        <time>2014-11-02T09:13:35Z</time>
      </trkpt>
      <trkpt lat="45.74309" lon="4.6058">
        <ele>775.44</ele>
        <time>2014-11-02T09:13:48Z</time>
      </trkpt>
      <trkpt lat="45.74304" lon="4.60579">
        <ele>776.88</ele>
        <time>2014-11-02T09:14:00Z</time>
      </trkpt>
      <trkpt lat="45.74294" lon="4.60573">
        <ele>780.25</ele>
        <time>2014-11-02T09:14:13Z</time>
      </trkpt>
      <trkpt lat="45.74287" lon="4.60571">
        <ele>783.61</ele>
        <time>2014-11-02T09:14:27Z</time>
      </trkpt>
      <trkpt lat="45.74278" lon="4.6057">
        <ele>789.86</ele>
        <time>2014-11-02T09:14:43Z</time>
      </trkpt>
      <trkpt lat="45.7427" lon="4.60568">
        <ele>792.74</ele>
        <time>2014-11-02T09:14:53Z</time>
      </trkpt>
      <trkpt lat="45.74261" lon="4.6056">
        <ele>796.59</ele>
        <time>2014-11-02T09:15:07Z</time>
      </trkpt>
      <trkpt lat="45.74253" lon="4.60554">
        <ele>799.47</ele>
        <time>2014-11-02T09:15:21Z</time>
      </trkpt>
      <trkpt lat="45.74253" lon="4.60554">
        <ele>798.99</ele>
        <time>2014-11-02T09:15:22Z</time>
      </trkpt>
      <trkpt lat="45.74249" lon="4.6055">
        <ele>798.03</ele>
        <time>2014-11-02T09:15:28Z</time>
      </trkpt>
      <trkpt lat="45.74246" lon="4.60549">
        <ele>798.51</ele>
        <time>2014-11-02T09:15:30Z</time>
      </trkpt>
      <trkpt lat="45.74235" lon="4.60537">
        <ele>798.99</ele>
        <time>2014-11-02T09:15:42Z</time>
      </trkpt>
      <trkpt lat="45.74228" lon="4.6053">
        <ele>799.47</ele>
        <time>2014-11-02T09:15:49Z</time>
      </trkpt>
      <trkpt lat="45.74227" lon="4.60528">
        <ele>799.95</ele>
        <time>2014-11-02T09:15:50Z</time>
      </trkpt>
      <trkpt lat="45.74219" lon="4.60515">
        <ele>801.4</ele>
        <time>2014-11-02T09:16:01Z</time>
      </trkpt>
      <trkpt lat="45.74216" lon="4.60513">
        <ele>801.4</ele>
        <time>2014-11-02T09:16:03Z</time>
      </trkpt>
      <trkpt lat="45.74207" lon="4.60502">
        <ele>802.84</ele>
        <time>2014-11-02T09:16:12Z</time>
      </trkpt>
      <trkpt lat="45.74196" lon="4.60485">
        <ele>805.72</ele>
        <time>2014-11-02T09:16:24Z</time>
      </trkpt>
      <trkpt lat="45.7419" lon="4.60472">
        <ele>808.61</ele>
        <time>2014-11-02T09:16:37Z</time>
      </trkpt>
      <trkpt lat="45.74183" lon="4.60468">
        <ele>809.57</ele>
        <time>2014-11-02T09:16:49Z</time>
      </trkpt>
      <trkpt lat="45.74181" lon="4.60462">
        <ele>810.05</ele>
        <time>2014-11-02T09:17:07Z</time>
      </trkpt>
      <trkpt lat="45.7417" lon="4.6045">
        <ele>808.13</ele>
        <time>2014-11-02T09:17:22Z</time>
      </trkpt>
      <trkpt lat="45.74163" lon="4.60439">
        <ele>809.09</ele>
        <time>2014-11-02T09:17:35Z</time>
      </trkpt>
      <trkpt lat="45.7416" lon="4.60432">
        <ele>806.68</ele>
        <time>2014-11-02T09:17:49Z</time>
      </trkpt>
      <trkpt lat="45.74155" lon="4.60419">
        <ele>809.57</ele>
        <time>2014-11-02T09:18:01Z</time>
      </trkpt>
      <trkpt lat="45.74155" lon="4.60414">
        <ele>810.53</ele>
        <time>2014-11-02T09:18:18Z</time>
      </trkpt>
      <trkpt lat="45.74153" lon="4.60409">
        <ele>810.05</ele>
        <time>2014-11-02T09:18:35Z</time>
      </trkpt>
      <trkpt lat="45.74149" lon="4.60393">
        <ele>810.53</ele>
        <time>2014-11-02T09:18:45Z</time>
      </trkpt>
      <trkpt lat="45.74148" lon="4.60383">
        <ele>812.45</ele>
        <time>2014-11-02T09:18:51Z</time>
      </trkpt>
      <trkpt lat="45.74148" lon="4.60381">
        <ele>812.45</ele>
        <time>2014-11-02T09:18:52Z</time>
      </trkpt>
      <trkpt lat="45.74148" lon="4.60361">
        <ele>815.82</ele>
        <time>2014-11-02T09:19:03Z</time>
      </trkpt>
      <trkpt lat="45.74151" lon="4.60334">
        <ele>816.78</ele>
        <time>2014-11-02T09:19:16Z</time>
      </trkpt>
      <trkpt lat="45.74151" lon="4.60313">
        <ele>818.22</ele>
        <time>2014-11-02T09:19:28Z</time>
      </trkpt>
      <trkpt lat="45.74152" lon="4.60295">
        <ele>818.7</ele>
        <time>2014-11-02T09:19:37Z</time>
      </trkpt>
      <trkpt lat="45.74152" lon="4.60293">
        <ele>819.18</ele>
        <time>2014-11-02T09:19:38Z</time>
      </trkpt>
      <trkpt lat="45.74152" lon="4.60291">
        <ele>819.18</ele>
        <time>2014-11-02T09:19:39Z</time>
      </trkpt>
      <trkpt lat="45.74156" lon="4.60272">
        <ele>823.99</ele>
        <time>2014-11-02T09:19:51Z</time>
      </trkpt>
      <trkpt lat="45.74156" lon="4.60261">
        <ele>825.43</ele>
        <time>2014-11-02T09:19:56Z</time>
      </trkpt>
      <trkpt lat="45.74155" lon="4.60262">
        <ele>825.91</ele>
        <time>2014-11-02T09:19:58Z</time>
      </trkpt>
      <trkpt lat="45.74146" lon="4.60272">
        <ele>826.87</ele>
        <time>2014-11-02T09:20:10Z</time>
      </trkpt>
      <trkpt lat="45.74134" lon="4.60287">
        <ele>827.35</ele>
        <time>2014-11-02T09:20:24Z</time>
      </trkpt>
      <trkpt lat="45.74125" lon="4.60296">
        <ele>829.27</ele>
        <time>2014-11-02T09:20:37Z</time>
      </trkpt>
      <trkpt lat="45.7411" lon="4.60313">
        <ele>832.64</ele>
        <time>2014-11-02T09:20:49Z</time>
      </trkpt>
      <trkpt lat="45.74097" lon="4.60325">
        <ele>832.16</ele>
        <time>2014-11-02T09:21:00Z</time>
      </trkpt>
      <trkpt lat="45.74081" lon="4.60338">
        <ele>830.24</ele>
        <time>2014-11-02T09:21:14Z</time>
      </trkpt>
      <trkpt lat="45.74062" lon="4.60352">
        <ele>832.64</ele>
        <time>2014-11-02T09:21:28Z</time>
      </trkpt>
      <trkpt lat="45.74044" lon="4.60363">
        <ele>837.45</ele>
        <time>2014-11-02T09:21:41Z</time>
      </trkpt>
      <trkpt lat="45.74023" lon="4.60358">
        <ele>841.77</ele>
        <time>2014-11-02T09:21:53Z</time>
      </trkpt>
      <trkpt lat="45.74022" lon="4.60357">
        <ele>841.77</ele>
        <time>2014-11-02T09:21:54Z</time>
      </trkpt>
      <trkpt lat="45.74019" lon="4.60355">
        <ele>842.25</ele>
        <time>2014-11-02T09:21:56Z</time>
      </trkpt>
      <trkpt lat="45.74017" lon="4.60355">
        <ele>842.25</ele>
        <time>2014-11-02T09:21:57Z</time>
      </trkpt>
      <trkpt lat="45.74008" lon="4.60345">
        <ele>842.25</ele>
        <time>2014-11-02T09:22:09Z</time>
      </trkpt>
      <trkpt lat="45.74002" lon="4.6034">
        <ele>845.62</ele>
        <time>2014-11-02T09:22:20Z</time>
      </trkpt>
      <trkpt lat="45.73996" lon="4.60337">
        <ele>846.58</ele>
        <time>2014-11-02T09:22:25Z</time>
      </trkpt>
      <trkpt lat="45.73995" lon="4.60336">
        <ele>846.58</ele>
        <time>2014-11-02T09:22:26Z</time>
      </trkpt>
      <trkpt lat="45.73993" lon="4.60335">
        <ele>847.06</ele>
        <time>2014-11-02T09:22:27Z</time>
      </trkpt>
      <trkpt lat="45.73991" lon="4.60334">
        <ele>847.06</ele>
        <time>2014-11-02T09:22:28Z</time>
      </trkpt>
      <trkpt lat="45.7399" lon="4.60333">
        <ele>847.54</ele>
        <time>2014-11-02T09:22:29Z</time>
      </trkpt>
      <trkpt lat="45.73964" lon="4.60323">
        <ele>848.5</ele>
        <time>2014-11-02T09:22:40Z</time>
      </trkpt>
      <trkpt lat="45.73924" lon="4.60298">
        <ele>845.14</ele>
        <time>2014-11-02T09:22:53Z</time>
      </trkpt>
      <trkpt lat="45.7388" lon="4.60266">
        <ele>842.25</ele>
        <time>2014-11-02T09:23:06Z</time>
      </trkpt>
      <trkpt lat="45.73876" lon="4.60263">
        <ele>841.77</ele>
        <time>2014-11-02T09:23:07Z</time>
      </trkpt>
      <trkpt lat="45.73868" lon="4.60258">
        <ele>841.29</ele>
        <time>2014-11-02T09:23:09Z</time>
      </trkpt>
      <trkpt lat="45.73854" lon="4.60251">
        <ele>840.33</ele>
        <time>2014-11-02T09:23:12Z</time>
      </trkpt>
      <trkpt lat="45.73833" lon="4.60242">
        <ele>837.93</ele>
        <time>2014-11-02T09:23:16Z</time>
      </trkpt>
      <trkpt lat="45.73827" lon="4.60238">
        <ele>836.96</ele>
        <time>2014-11-02T09:23:17Z</time>
      </trkpt>
      <trkpt lat="45.73813" lon="4.60225">
        <ele>835.52</ele>
        <time>2014-11-02T09:23:20Z</time>
      </trkpt>
      <trkpt lat="45.73779" lon="4.6019">
        <ele>831.68</ele>
        <time>2014-11-02T09:23:27Z</time>
      </trkpt>
      <trkpt lat="45.73729" lon="4.6013">
        <ele>828.31</ele>
        <time>2014-11-02T09:23:39Z</time>
      </trkpt>
      <trkpt lat="45.73689" lon="4.60088">
        <ele>827.83</ele>
        <time>2014-11-02T09:23:51Z</time>
      </trkpt>
      <trkpt lat="45.73673" lon="4.6007">
        <ele>828.31</ele>
        <time>2014-11-02T09:24:00Z</time>
      </trkpt>
      <trkpt lat="45.73653" lon="4.60037">
        <ele>828.79</ele>
        <time>2014-11-02T09:24:06Z</time>
      </trkpt>
      <trkpt lat="45.73648" lon="4.6003">
        <ele>828.79</ele>
        <time>2014-11-02T09:24:07Z</time>
      </trkpt>
      <trkpt lat="45.73641" lon="4.6002">
        <ele>828.31</ele>
        <time>2014-11-02T09:24:09Z</time>
      </trkpt>
      <trkpt lat="45.73639" lon="4.60014">
        <ele>828.31</ele>
        <time>2014-11-02T09:24:10Z</time>
      </trkpt>
      <trkpt lat="45.73637" lon="4.60006">
        <ele>827.83</ele>
        <time>2014-11-02T09:24:11Z</time>
      </trkpt>
      <trkpt lat="45.73635" lon="4.59998">
        <ele>826.87</ele>
        <time>2014-11-02T09:24:12Z</time>
      </trkpt>
      <trkpt lat="45.73633" lon="4.5999">
        <ele>826.39</ele>
        <time>2014-11-02T09:24:13Z</time>
      </trkpt>
      <trkpt lat="45.7362" lon="4.59951">
        <ele>819.66</ele>
        <time>2014-11-02T09:24:21Z</time>
      </trkpt>
      <trkpt lat="45.73619" lon="4.59944">
        <ele>818.7</ele>
        <time>2014-11-02T09:24:22Z</time>
      </trkpt>
      <trkpt lat="45.73618" lon="4.59937">
        <ele>817.74</ele>
        <time>2014-11-02T09:24:23Z</time>
      </trkpt>
      <trkpt lat="45.73599" lon="4.59892">
        <ele>809.09</ele>
        <time>2014-11-02T09:24:32Z</time>
      </trkpt>
      <trkpt lat="45.73596" lon="4.59886">
        <ele>808.13</ele>
        <time>2014-11-02T09:24:33Z</time>
      </trkpt>
      <trkpt lat="45.7358" lon="4.59849">
        <ele>799.47</ele>
        <time>2014-11-02T09:24:40Z</time>
      </trkpt>
      <trkpt lat="45.73567" lon="4.59831">
        <ele>789.38</ele>
        <time>2014-11-02T09:24:50Z</time>
      </trkpt>
      <trkpt lat="45.73563" lon="4.59834">
        <ele>783.13</ele>
        <time>2014-11-02T09:25:01Z</time>
      </trkpt>
      <trkpt lat="45.7356" lon="4.5983">
        <ele>781.69</ele>
        <time>2014-11-02T09:25:20Z</time>
      </trkpt>
      <trkpt lat="45.7356" lon="4.59821">
        <ele>781.69</ele>
        <time>2014-11-02T09:25:27Z</time>
      </trkpt>
      <trkpt lat="45.73559" lon="4.59819">
        <ele>781.21</ele>
        <time>2014-11-02T09:25:28Z</time>
      </trkpt>
      <trkpt lat="45.73546" lon="4.59787">
        <ele>776.88</ele>
        <time>2014-11-02T09:25:36Z</time>
      </trkpt>
      <trkpt lat="45.73544" lon="4.59781">
        <ele>775.92</ele>
        <time>2014-11-02T09:25:37Z</time>
      </trkpt>
      <trkpt lat="45.73542" lon="4.59777">
        <ele>775.44</ele>
        <time>2014-11-02T09:25:38Z</time>
      </trkpt>
      <trkpt lat="45.7354" lon="4.59773">
        <ele>774.96</ele>
        <time>2014-11-02T09:25:39Z</time>
      </trkpt>
      <trkpt lat="45.73537" lon="4.59769">
        <ele>774.48</ele>
        <time>2014-11-02T09:25:40Z</time>
      </trkpt>
      <trkpt lat="45.73534" lon="4.59765">
        <ele>774</ele>
        <time>2014-11-02T09:25:41Z</time>
      </trkpt>
      <trkpt lat="45.73529" lon="4.59754">
        <ele>772.56</ele>
        <time>2014-11-02T09:25:43Z</time>
      </trkpt>
      <trkpt lat="45.73511" lon="4.59715">
        <ele>768.23</ele>
        <time>2014-11-02T09:25:50Z</time>
      </trkpt>
      <trkpt lat="45.73509" lon="4.59707">
        <ele>767.27</ele>
        <time>2014-11-02T09:25:51Z</time>
      </trkpt>
      <trkpt lat="45.73507" lon="4.59699">
        <ele>766.79</ele>
        <time>2014-11-02T09:25:52Z</time>
      </trkpt>
      <trkpt lat="45.73505" lon="4.59691">
        <ele>765.83</ele>
        <time>2014-11-02T09:25:53Z</time>
      </trkpt>
      <trkpt lat="45.73503" lon="4.59684">
        <ele>765.35</ele>
        <time>2014-11-02T09:25:54Z</time>
      </trkpt>
      <trkpt lat="45.73501" lon="4.59676">
        <ele>764.87</ele>
        <time>2014-11-02T09:25:55Z</time>
      </trkpt>
      <trkpt lat="45.73499" lon="4.59668">
        <ele>764.87</ele>
        <time>2014-11-02T09:25:56Z</time>
      </trkpt>
      <trkpt lat="45.73477" lon="4.59599">
        <ele>761.98</ele>
        <time>2014-11-02T09:26:06Z</time>
      </trkpt>
      <trkpt lat="45.73455" lon="4.59528">
        <ele>762.94</ele>
        <time>2014-11-02T09:26:17Z</time>
      </trkpt>
      <trkpt lat="45.73433" lon="4.59467">
        <ele>761.98</ele>
        <time>2014-11-02T09:26:30Z</time>
      </trkpt>
      <trkpt lat="45.73418" lon="4.59434">
        <ele>760.06</ele>
        <time>2014-11-02T09:26:37Z</time>
      </trkpt>
      <trkpt lat="45.73401" lon="4.59399">
        <ele>759.1</ele>
        <time>2014-11-02T09:26:43Z</time>
      </trkpt>
      <trkpt lat="45.73398" lon="4.59394">
        <ele>759.1</ele>
        <time>2014-11-02T09:26:44Z</time>
      </trkpt>
      <trkpt lat="45.73388" lon="4.59384">
        <ele>758.62</ele>
        <time>2014-11-02T09:26:52Z</time>
      </trkpt>
      <trkpt lat="45.73387" lon="4.59383">
        <ele>758.62</ele>
        <time>2014-11-02T09:27:04Z</time>
      </trkpt>
      <trkpt lat="45.73389" lon="4.59383">
        <ele>762.46</ele>
        <time>2014-11-02T09:27:32Z</time>
      </trkpt>
      <trkpt lat="45.73388" lon="4.59383">
        <ele>762.94</ele>
        <time>2014-11-02T09:27:33Z</time>
      </trkpt>
      <trkpt lat="45.73386" lon="4.59384">
        <ele>762.94</ele>
        <time>2014-11-02T09:27:34Z</time>
      </trkpt>
      <trkpt lat="45.73384" lon="4.59384">
        <ele>763.42</ele>
        <time>2014-11-02T09:27:35Z</time>
      </trkpt>
      <trkpt lat="45.73381" lon="4.59385">
        <ele>763.42</ele>
        <time>2014-11-02T09:27:36Z</time>
      </trkpt>
      <trkpt lat="45.73379" lon="4.59386">
        <ele>763.42</ele>
        <time>2014-11-02T09:27:37Z</time>
      </trkpt>
      <trkpt lat="45.73376" lon="4.59388">
        <ele>763.42</ele>
        <time>2014-11-02T09:27:38Z</time>
      </trkpt>
      <trkpt lat="45.73373" lon="4.59389">
        <ele>763.9</ele>
        <time>2014-11-02T09:27:39Z</time>
      </trkpt>
      <trkpt lat="45.73371" lon="4.59392">
        <ele>764.39</ele>
        <time>2014-11-02T09:27:40Z</time>
      </trkpt>
      <trkpt lat="45.73368" lon="4.59394">
        <ele>764.39</ele>
        <time>2014-11-02T09:27:41Z</time>
      </trkpt>
      <trkpt lat="45.73366" lon="4.59396">
        <ele>764.87</ele>
        <time>2014-11-02T09:27:42Z</time>
      </trkpt>
      <trkpt lat="45.73364" lon="4.59399">
        <ele>765.35</ele>
        <time>2014-11-02T09:27:43Z</time>
      </trkpt>
      <trkpt lat="45.73362" lon="4.59401">
        <ele>765.35</ele>
        <time>2014-11-02T09:27:44Z</time>
      </trkpt>
      <trkpt lat="45.73359" lon="4.59404">
        <ele>765.83</ele>
        <time>2014-11-02T09:27:45Z</time>
      </trkpt>
      <trkpt lat="45.73351" lon="4.59417">
        <ele>766.79</ele>
        <time>2014-11-02T09:27:49Z</time>
      </trkpt>
      <trkpt lat="45.73323" lon="4.59448">
        <ele>765.83</ele>
        <time>2014-11-02T09:28:01Z</time>
      </trkpt>
      <trkpt lat="45.73309" lon="4.59475">
        <ele>763.9</ele>
        <time>2014-11-02T09:28:11Z</time>
      </trkpt>
      <trkpt lat="45.73309" lon="4.59478">
        <ele>763.9</ele>
        <time>2014-11-02T09:28:12Z</time>
      </trkpt>
      <trkpt lat="45.73309" lon="4.5948">
        <ele>764.39</ele>
        <time>2014-11-02T09:28:13Z</time>
      </trkpt>
      <trkpt lat="45.73308" lon="4.59483">
        <ele>764.39</ele>
        <time>2014-11-02T09:28:14Z</time>
      </trkpt>
      <trkpt lat="45.73308" lon="4.59486">
        <ele>764.87</ele>
        <time>2014-11-02T09:28:15Z</time>
      </trkpt>
      <trkpt lat="45.73307" lon="4.59488">
        <ele>764.87</ele>
        <time>2014-11-02T09:28:16Z</time>
      </trkpt>
      <trkpt lat="45.73306" lon="4.5949">
        <ele>765.35</ele>
        <time>2014-11-02T09:28:17Z</time>
      </trkpt>
      <trkpt lat="45.73305" lon="4.59492">
        <ele>765.83</ele>
        <time>2014-11-02T09:28:18Z</time>
      </trkpt>
      <trkpt lat="45.73304" lon="4.59494">
        <ele>766.31</ele>
        <time>2014-11-02T09:28:19Z</time>
      </trkpt>
      <trkpt lat="45.73288" lon="4.59523">
        <ele>772.56</ele>
        <time>2014-11-02T09:28:32Z</time>
      </trkpt>
      <trkpt lat="45.73258" lon="4.59556">
        <ele>772.56</ele>
        <time>2014-11-02T09:28:47Z</time>
      </trkpt>
      <trkpt lat="45.73244" lon="4.59567">
        <ele>773.04</ele>
        <time>2014-11-02T09:28:58Z</time>
      </trkpt>
      <trkpt lat="45.73236" lon="4.59573">
        <ele>773.04</ele>
        <time>2014-11-02T09:29:05Z</time>
      </trkpt>
      <trkpt lat="45.73235" lon="4.59573">
        <ele>773.52</ele>
        <time>2014-11-02T09:29:06Z</time>
      </trkpt>
      <trkpt lat="45.73233" lon="4.59573">
        <ele>774</ele>
        <time>2014-11-02T09:29:07Z</time>
      </trkpt>
      <trkpt lat="45.73232" lon="4.59573">
        <ele>774.48</ele>
        <time>2014-11-02T09:29:08Z</time>
      </trkpt>
      <trkpt lat="45.7323" lon="4.59573">
        <ele>774.48</ele>
        <time>2014-11-02T09:29:09Z</time>
      </trkpt>
      <trkpt lat="45.73228" lon="4.59573">
        <ele>774.96</ele>
        <time>2014-11-02T09:29:10Z</time>
      </trkpt>
      <trkpt lat="45.73226" lon="4.59573">
        <ele>774.96</ele>
        <time>2014-11-02T09:29:11Z</time>
      </trkpt>
      <trkpt lat="45.73224" lon="4.59572">
        <ele>775.44</ele>
        <time>2014-11-02T09:29:12Z</time>
      </trkpt>
      <trkpt lat="45.73223" lon="4.59571">
        <ele>775.44</ele>
        <time>2014-11-02T09:29:13Z</time>
      </trkpt>
      <trkpt lat="45.73221" lon="4.59571">
        <ele>775.44</ele>
        <time>2014-11-02T09:29:14Z</time>
      </trkpt>
      <trkpt lat="45.73219" lon="4.59571">
        <ele>775.44</ele>
        <time>2014-11-02T09:29:15Z</time>
      </trkpt>
      <trkpt lat="45.73218" lon="4.59571">
        <ele>775.44</ele>
        <time>2014-11-02T09:29:16Z</time>
      </trkpt>
      <trkpt lat="45.73216" lon="4.5957">
        <ele>774.96</ele>
        <time>2014-11-02T09:29:17Z</time>
      </trkpt>
      <trkpt lat="45.73215" lon="4.5957">
        <ele>774.96</ele>
        <time>2014-11-02T09:29:18Z</time>
      </trkpt>
      <trkpt lat="45.73214" lon="4.59569">
        <ele>775.44</ele>
        <time>2014-11-02T09:29:19Z</time>
      </trkpt>
      <trkpt lat="45.73211" lon="4.59567">
        <ele>775.44</ele>
        <time>2014-11-02T09:29:31Z</time>
      </trkpt>
      <trkpt lat="45.73211" lon="4.5957">
        <ele>773.04</ele>
        <time>2014-11-02T09:29:51Z</time>
      </trkpt>
      <trkpt lat="45.73209" lon="4.59569">
        <ele>770.63</ele>
        <time>2014-11-02T09:30:18Z</time>
      </trkpt>
      <trkpt lat="45.73183" lon="4.59556">
        <ele>770.15</ele>
        <time>2014-11-02T09:30:31Z</time>
      </trkpt>
      <trkpt lat="45.73156" lon="4.59537">
        <ele>769.67</ele>
        <time>2014-11-02T09:30:44Z</time>
      </trkpt>
      <trkpt lat="45.73125" lon="4.59514">
        <ele>770.63</ele>
        <time>2014-11-02T09:30:58Z</time>
      </trkpt>
      <trkpt lat="45.73096" lon="4.59495">
        <ele>770.63</ele>
        <time>2014-11-02T09:31:13Z</time>
      </trkpt>
      <trkpt lat="45.7309" lon="4.59497">
        <ele>771.11</ele>
        <time>2014-11-02T09:31:18Z</time>
      </trkpt>
      <trkpt lat="45.73089" lon="4.59499">
        <ele>771.11</ele>
        <time>2014-11-02T09:31:19Z</time>
      </trkpt>
      <trkpt lat="45.73083" lon="4.59499">
        <ele>772.56</ele>
        <time>2014-11-02T09:31:30Z</time>
      </trkpt>
      <trkpt lat="45.7308" lon="4.595">
        <ele>773.52</ele>
        <time>2014-11-02T09:31:41Z</time>
      </trkpt>
      <trkpt lat="45.73078" lon="4.595">
        <ele>773.52</ele>
        <time>2014-11-02T09:31:43Z</time>
      </trkpt>
      <trkpt lat="45.7307" lon="4.59503">
        <ele>774.48</ele>
        <time>2014-11-02T09:31:54Z</time>
      </trkpt>
      <trkpt lat="45.73066" lon="4.59506">
        <ele>776.4</ele>
        <time>2014-11-02T09:32:06Z</time>
      </trkpt>
      <trkpt lat="45.73063" lon="4.59506">
        <ele>778.81</ele>
        <time>2014-11-02T09:32:17Z</time>
      </trkpt>
      <trkpt lat="45.73051" lon="4.59506">
        <ele>780.73</ele>
        <time>2014-11-02T09:32:30Z</time>
      </trkpt>
      <trkpt lat="45.7304" lon="4.59503">
        <ele>785.53</ele>
        <time>2014-11-02T09:32:44Z</time>
      </trkpt>
      <trkpt lat="45.73039" lon="4.59503">
        <ele>786.02</ele>
        <time>2014-11-02T09:32:45Z</time>
      </trkpt>
      <trkpt lat="45.73032" lon="4.59497">
        <ele>786.98</ele>
        <time>2014-11-02T09:32:54Z</time>
      </trkpt>
      <trkpt lat="45.73019" lon="4.59487">
        <ele>788.9</ele>
        <time>2014-11-02T09:33:08Z</time>
      </trkpt>
      <trkpt lat="45.73009" lon="4.59484">
        <ele>790.34</ele>
        <time>2014-11-02T09:33:22Z</time>
      </trkpt>
      <trkpt lat="45.72999" lon="4.5948">
        <ele>790.34</ele>
        <time>2014-11-02T09:33:34Z</time>
      </trkpt>
      <trkpt lat="45.7299" lon="4.59478">
        <ele>793.71</ele>
        <time>2014-11-02T09:33:46Z</time>
      </trkpt>
      <trkpt lat="45.7298" lon="4.59475">
        <ele>795.63</ele>
        <time>2014-11-02T09:33:59Z</time>
      </trkpt>
      <trkpt lat="45.72971" lon="4.59471">
        <ele>797.07</ele>
        <time>2014-11-02T09:34:12Z</time>
      </trkpt>
      <trkpt lat="45.7297" lon="4.59471">
        <ele>797.55</ele>
        <time>2014-11-02T09:34:20Z</time>
      </trkpt>
      <trkpt lat="45.72964" lon="4.59468">
        <ele>798.99</ele>
        <time>2014-11-02T09:34:26Z</time>
      </trkpt>
      <trkpt lat="45.72963" lon="4.59468">
        <ele>798.99</ele>
        <time>2014-11-02T09:34:27Z</time>
      </trkpt>
      <trkpt lat="45.72962" lon="4.59467">
        <ele>798.99</ele>
        <time>2014-11-02T09:34:28Z</time>
      </trkpt>
      <trkpt lat="45.7296" lon="4.59466">
        <ele>798.99</ele>
        <time>2014-11-02T09:34:29Z</time>
      </trkpt>
      <trkpt lat="45.72959" lon="4.59466">
        <ele>798.51</ele>
        <time>2014-11-02T09:34:30Z</time>
      </trkpt>
      <trkpt lat="45.72948" lon="4.5946">
        <ele>801.4</ele>
        <time>2014-11-02T09:34:44Z</time>
      </trkpt>
      <trkpt lat="45.72944" lon="4.59458">
        <ele>801.88</ele>
        <time>2014-11-02T09:34:50Z</time>
      </trkpt>
      <trkpt lat="45.72933" lon="4.59449">
        <ele>803.8</ele>
        <time>2014-11-02T09:34:58Z</time>
      </trkpt>
      <trkpt lat="45.72919" lon="4.59438">
        <ele>803.32</ele>
        <time>2014-11-02T09:35:06Z</time>
      </trkpt>
      <trkpt lat="45.72918" lon="4.59436">
        <ele>803.32</ele>
        <time>2014-11-02T09:35:07Z</time>
      </trkpt>
      <trkpt lat="45.72916" lon="4.59434">
        <ele>803.8</ele>
        <time>2014-11-02T09:35:09Z</time>
      </trkpt>
      <trkpt lat="45.72915" lon="4.59433">
        <ele>803.8</ele>
        <time>2014-11-02T09:35:10Z</time>
      </trkpt>
      <trkpt lat="45.72913" lon="4.59431">
        <ele>803.8</ele>
        <time>2014-11-02T09:35:11Z</time>
      </trkpt>
      <trkpt lat="45.72912" lon="4.59429">
        <ele>803.8</ele>
        <time>2014-11-02T09:35:12Z</time>
      </trkpt>
      <trkpt lat="45.72903" lon="4.59421">
        <ele>804.76</ele>
        <time>2014-11-02T09:35:19Z</time>
      </trkpt>
      <trkpt lat="45.72899" lon="4.59418">
        <ele>807.16</ele>
        <time>2014-11-02T09:35:22Z</time>
      </trkpt>
      <trkpt lat="45.72898" lon="4.59416">
        <ele>807.16</ele>
        <time>2014-11-02T09:35:23Z</time>
      </trkpt>
      <trkpt lat="45.72896" lon="4.59414">
        <ele>807.64</ele>
        <time>2014-11-02T09:35:24Z</time>
      </trkpt>
      <trkpt lat="45.72894" lon="4.59412">
        <ele>808.13</ele>
        <time>2014-11-02T09:35:25Z</time>
      </trkpt>
      <trkpt lat="45.72879" lon="4.59394">
        <ele>809.09</ele>
        <time>2014-11-02T09:35:36Z</time>
      </trkpt>
      <trkpt lat="45.72867" lon="4.59378">
        <ele>810.05</ele>
        <time>2014-11-02T09:35:44Z</time>
      </trkpt>
      <trkpt lat="45.72849" lon="4.59361">
        <ele>814.37</ele>
        <time>2014-11-02T09:35:58Z</time>
      </trkpt>
      <trkpt lat="45.72831" lon="4.59349">
        <ele>814.85</ele>
        <time>2014-11-02T09:36:11Z</time>
      </trkpt>
      <trkpt lat="45.7281" lon="4.59338">
        <ele>815.82</ele>
        <time>2014-11-02T09:36:21Z</time>
      </trkpt>
      <trkpt lat="45.72793" lon="4.59324">
        <ele>818.7</ele>
        <time>2014-11-02T09:36:30Z</time>
      </trkpt>
      <trkpt lat="45.7279" lon="4.59321">
        <ele>819.18</ele>
        <time>2014-11-02T09:36:31Z</time>
      </trkpt>
      <trkpt lat="45.72787" lon="4.59319">
        <ele>819.18</ele>
        <time>2014-11-02T09:36:32Z</time>
      </trkpt>
      <trkpt lat="45.72784" lon="4.59317">
        <ele>819.18</ele>
        <time>2014-11-02T09:36:33Z</time>
      </trkpt>
      <trkpt lat="45.72781" lon="4.59314">
        <ele>819.18</ele>
        <time>2014-11-02T09:36:34Z</time>
      </trkpt>
      <trkpt lat="45.72778" lon="4.59312">
        <ele>819.18</ele>
        <time>2014-11-02T09:36:35Z</time>
      </trkpt>
      <trkpt lat="45.72775" lon="4.59309">
        <ele>819.18</ele>
        <time>2014-11-02T09:36:36Z</time>
      </trkpt>
      <trkpt lat="45.72771" lon="4.59307">
        <ele>819.66</ele>
        <time>2014-11-02T09:36:37Z</time>
      </trkpt>
      <trkpt lat="45.72768" lon="4.59305">
        <ele>820.14</ele>
        <time>2014-11-02T09:36:38Z</time>
      </trkpt>
      <trkpt lat="45.72738" lon="4.59285">
        <ele>819.66</ele>
        <time>2014-11-02T09:36:48Z</time>
      </trkpt>
      <trkpt lat="45.72702" lon="4.59267">
        <ele>821.58</ele>
        <time>2014-11-02T09:36:59Z</time>
      </trkpt>
      <trkpt lat="45.72672" lon="4.59251">
        <ele>823.51</ele>
        <time>2014-11-02T09:37:10Z</time>
      </trkpt>
      <trkpt lat="45.72643" lon="4.59239">
        <ele>823.99</ele>
        <time>2014-11-02T09:37:21Z</time>
      </trkpt>
      <trkpt lat="45.72614" lon="4.59233">
        <ele>824.95</ele>
        <time>2014-11-02T09:37:31Z</time>
      </trkpt>
      <trkpt lat="45.72581" lon="4.59232">
        <ele>824.47</ele>
        <time>2014-11-02T09:37:41Z</time>
      </trkpt>
      <trkpt lat="45.72538" lon="4.59237">
        <ele>819.18</ele>
        <time>2014-11-02T09:37:53Z</time>
      </trkpt>
      <trkpt lat="45.72504" lon="4.59244">
        <ele>815.82</ele>
        <time>2014-11-02T09:38:05Z</time>
      </trkpt>
      <trkpt lat="45.72469" lon="4.5925">
        <ele>815.34</ele>
        <time>2014-11-02T09:38:19Z</time>
      </trkpt>
      <trkpt lat="45.72441" lon="4.59257">
        <ele>815.82</ele>
        <time>2014-11-02T09:38:33Z</time>
      </trkpt>
      <trkpt lat="45.72439" lon="4.59257">
        <ele>816.3</ele>
        <time>2014-11-02T09:38:34Z</time>
      </trkpt>
      <trkpt lat="45.72437" lon="4.59257">
        <ele>816.78</ele>
        <time>2014-11-02T09:38:35Z</time>
      </trkpt>
      <trkpt lat="45.72416" lon="4.59261">
        <ele>820.14</ele>
        <time>2014-11-02T09:38:48Z</time>
      </trkpt>
      <trkpt lat="45.72396" lon="4.59263">
        <ele>819.66</ele>
        <time>2014-11-02T09:39:00Z</time>
      </trkpt>
      <trkpt lat="45.72389" lon="4.59265">
        <ele>819.18</ele>
        <time>2014-11-02T09:39:04Z</time>
      </trkpt>
      <trkpt lat="45.72388" lon="4.59265">
        <ele>819.18</ele>
        <time>2014-11-02T09:39:05Z</time>
      </trkpt>
      <trkpt lat="45.72368" lon="4.59269">
        <ele>825.91</ele>
        <time>2014-11-02T09:39:17Z</time>
      </trkpt>
      <trkpt lat="45.72367" lon="4.5927">
        <ele>826.39</ele>
        <time>2014-11-02T09:39:18Z</time>
      </trkpt>
      <trkpt lat="45.72365" lon="4.5927">
        <ele>826.39</ele>
        <time>2014-11-02T09:39:19Z</time>
      </trkpt>
      <trkpt lat="45.72344" lon="4.5927">
        <ele>827.83</ele>
        <time>2014-11-02T09:39:32Z</time>
      </trkpt>
      <trkpt lat="45.72326" lon="4.59274">
        <ele>829.27</ele>
        <time>2014-11-02T09:39:45Z</time>
      </trkpt>
      <trkpt lat="45.72313" lon="4.59275">
        <ele>831.68</ele>
        <time>2014-11-02T09:39:53Z</time>
      </trkpt>
      <trkpt lat="45.72312" lon="4.59275">
        <ele>831.68</ele>
        <time>2014-11-02T09:39:54Z</time>
      </trkpt>
      <trkpt lat="45.72311" lon="4.59275">
        <ele>831.68</ele>
        <time>2014-11-02T09:39:55Z</time>
      </trkpt>
      <trkpt lat="45.72309" lon="4.59276">
        <ele>831.68</ele>
        <time>2014-11-02T09:39:56Z</time>
      </trkpt>
      <trkpt lat="45.72307" lon="4.59276">
        <ele>831.68</ele>
        <time>2014-11-02T09:39:57Z</time>
      </trkpt>
      <trkpt lat="45.72306" lon="4.59276">
        <ele>831.68</ele>
        <time>2014-11-02T09:39:58Z</time>
      </trkpt>
      <trkpt lat="45.7229" lon="4.59277">
        <ele>833.12</ele>
        <time>2014-11-02T09:40:10Z</time>
      </trkpt>
      <trkpt lat="45.72287" lon="4.59277">
        <ele>834.56</ele>
        <time>2014-11-02T09:40:22Z</time>
      </trkpt>
      <trkpt lat="45.72288" lon="4.59277">
        <ele>833.6</ele>
        <time>2014-11-02T09:40:48Z</time>
      </trkpt>
      <trkpt lat="45.72288" lon="4.59276">
        <ele>834.08</ele>
        <time>2014-11-02T09:41:14Z</time>
      </trkpt>
      <trkpt lat="45.72287" lon="4.59276">
        <ele>833.6</ele>
        <time>2014-11-02T09:41:40Z</time>
      </trkpt>
      <trkpt lat="45.72287" lon="4.59276">
        <ele>833.12</ele>
        <time>2014-11-02T09:42:08Z</time>
      </trkpt>
      <trkpt lat="45.72287" lon="4.59276">
        <ele>834.08</ele>
        <time>2014-11-02T09:42:37Z</time>
      </trkpt>
      <trkpt lat="45.72287" lon="4.59275">
        <ele>835.04</ele>
        <time>2014-11-02T09:43:07Z</time>
      </trkpt>
      <trkpt lat="45.72288" lon="4.59276">
        <ele>834.56</ele>
        <time>2014-11-02T09:43:33Z</time>
      </trkpt>
      <trkpt lat="45.7229" lon="4.59272">
        <ele>834.56</ele>
        <time>2014-11-02T09:43:44Z</time>
      </trkpt>
      <trkpt lat="45.7229" lon="4.59269">
        <ele>833.6</ele>
        <time>2014-11-02T09:43:45Z</time>
      </trkpt>
      <trkpt lat="45.72291" lon="4.59267">
        <ele>833.12</ele>
        <time>2014-11-02T09:43:46Z</time>
      </trkpt>
      <trkpt lat="45.72291" lon="4.59264">
        <ele>832.64</ele>
        <time>2014-11-02T09:43:47Z</time>
      </trkpt>
      <trkpt lat="45.72292" lon="4.59261">
        <ele>832.64</ele>
        <time>2014-11-02T09:43:48Z</time>
      </trkpt>
      <trkpt lat="45.72297" lon="4.59236">
        <ele>830.72</ele>
        <time>2014-11-02T09:44:00Z</time>
      </trkpt>
      <trkpt lat="45.72299" lon="4.59222">
        <ele>830.24</ele>
        <time>2014-11-02T09:44:07Z</time>
      </trkpt>
      <trkpt lat="45.723" lon="4.59213">
        <ele>829.76</ele>
        <time>2014-11-02T09:44:13Z</time>
      </trkpt>
      <trkpt lat="45.72301" lon="4.59211">
        <ele>829.76</ele>
        <time>2014-11-02T09:44:14Z</time>
      </trkpt>
      <trkpt lat="45.72302" lon="4.59201">
        <ele>829.27</ele>
        <time>2014-11-02T09:44:19Z</time>
      </trkpt>
      <trkpt lat="45.72303" lon="4.59199">
        <ele>828.79</ele>
        <time>2014-11-02T09:44:20Z</time>
      </trkpt>
      <trkpt lat="45.72303" lon="4.59196">
        <ele>828.31</ele>
        <time>2014-11-02T09:44:21Z</time>
      </trkpt>
      <trkpt lat="45.72304" lon="4.59193">
        <ele>828.31</ele>
        <time>2014-11-02T09:44:22Z</time>
      </trkpt>
      <trkpt lat="45.72304" lon="4.5919">
        <ele>827.35</ele>
        <time>2014-11-02T09:44:23Z</time>
      </trkpt>
      <trkpt lat="45.72316" lon="4.59138">
        <ele>821.58</ele>
        <time>2014-11-02T09:44:34Z</time>
      </trkpt>
      <trkpt lat="45.72319" lon="4.59128">
        <ele>822.06</ele>
        <time>2014-11-02T09:44:36Z</time>
      </trkpt>
      <trkpt lat="45.72324" lon="4.59116">
        <ele>822.55</ele>
        <time>2014-11-02T09:44:38Z</time>
      </trkpt>
      <trkpt lat="45.72327" lon="4.5911">
        <ele>823.03</ele>
        <time>2014-11-02T09:44:39Z</time>
      </trkpt>
      <trkpt lat="45.7233" lon="4.59104">
        <ele>823.51</ele>
        <time>2014-11-02T09:44:40Z</time>
      </trkpt>
      <trkpt lat="45.72332" lon="4.59098">
        <ele>823.51</ele>
        <time>2014-11-02T09:44:41Z</time>
      </trkpt>
      <trkpt lat="45.72334" lon="4.59092">
        <ele>823.51</ele>
        <time>2014-11-02T09:44:42Z</time>
      </trkpt>
      <trkpt lat="45.72337" lon="4.59086">
        <ele>823.51</ele>
        <time>2014-11-02T09:44:43Z</time>
      </trkpt>
      <trkpt lat="45.72382" lon="4.59013">
        <ele>823.99</ele>
        <time>2014-11-02T09:44:56Z</time>
      </trkpt>
      <trkpt lat="45.72385" lon="4.59007">
        <ele>823.99</ele>
        <time>2014-11-02T09:44:57Z</time>
      </trkpt>
      <trkpt lat="45.72389" lon="4.59001">
        <ele>823.99</ele>
        <time>2014-11-02T09:44:58Z</time>
      </trkpt>
      <trkpt lat="45.72395" lon="4.5899">
        <ele>824.95</ele>
        <time>2014-11-02T09:45:00Z</time>
      </trkpt>
      <trkpt lat="45.72397" lon="4.58985">
        <ele>824.95</ele>
        <time>2014-11-02T09:45:01Z</time>
      </trkpt>
      <trkpt lat="45.72416" lon="4.58952">
        <ele>826.87</ele>
        <time>2014-11-02T09:45:09Z</time>
      </trkpt>
      <trkpt lat="45.72419" lon="4.58948">
        <ele>827.35</ele>
        <time>2014-11-02T09:45:10Z</time>
      </trkpt>
      <trkpt lat="45.72449" lon="4.58893">
        <ele>827.83</ele>
        <time>2014-11-02T09:45:23Z</time>
      </trkpt>
      <trkpt lat="45.72462" lon="4.58849">
        <ele>828.31</ele>
        <time>2014-11-02T09:45:35Z</time>
      </trkpt>
      <trkpt lat="45.72467" lon="4.58801">
        <ele>829.27</ele>
        <time>2014-11-02T09:45:48Z</time>
      </trkpt>
      <trkpt lat="45.72464" lon="4.58763">
        <ele>827.83</ele>
        <time>2014-11-02T09:45:59Z</time>
      </trkpt>
      <trkpt lat="45.72459" lon="4.5874">
        <ele>826.39</ele>
        <time>2014-11-02T09:46:03Z</time>
      </trkpt>
      <trkpt lat="45.72435" lon="4.58683">
        <ele>823.99</ele>
        <time>2014-11-02T09:46:14Z</time>
      </trkpt>
      <trkpt lat="45.72416" lon="4.58635">
        <ele>823.99</ele>
        <time>2014-11-02T09:46:22Z</time>
      </trkpt>
      <trkpt lat="45.72406" lon="4.5861">
        <ele>824.47</ele>
        <time>2014-11-02T09:46:26Z</time>
      </trkpt>
      <trkpt lat="45.72405" lon="4.58604">
        <ele>824.47</ele>
        <time>2014-11-02T09:46:27Z</time>
      </trkpt>
      <trkpt lat="45.72404" lon="4.58598">
        <ele>824.47</ele>
        <time>2014-11-02T09:46:28Z</time>
      </trkpt>
      <trkpt lat="45.72402" lon="4.58592">
        <ele>824.47</ele>
        <time>2014-11-02T09:46:29Z</time>
      </trkpt>
      <trkpt lat="45.72399" lon="4.58584">
        <ele>824.95</ele>
        <time>2014-11-02T09:46:30Z</time>
      </trkpt>
      <trkpt lat="45.72396" lon="4.58576">
        <ele>824.95</ele>
        <time>2014-11-02T09:46:31Z</time>
      </trkpt>
      <trkpt lat="45.72393" lon="4.58568">
        <ele>824.47</ele>
        <time>2014-11-02T09:46:32Z</time>
      </trkpt>
      <trkpt lat="45.72373" lon="4.58498">
        <ele>824.47</ele>
        <time>2014-11-02T09:46:42Z</time>
      </trkpt>
      <trkpt lat="45.72372" lon="4.58491">
        <ele>824.47</ele>
        <time>2014-11-02T09:46:43Z</time>
      </trkpt>
      <trkpt lat="45.7237" lon="4.58477">
        <ele>823.99</ele>
        <time>2014-11-02T09:46:45Z</time>
      </trkpt>
      <trkpt lat="45.7237" lon="4.58461">
        <ele>823.51</ele>
        <time>2014-11-02T09:46:47Z</time>
      </trkpt>
      <trkpt lat="45.72369" lon="4.58451">
        <ele>823.51</ele>
        <time>2014-11-02T09:46:48Z</time>
      </trkpt>
      <trkpt lat="45.72364" lon="4.58384">
        <ele>822.06</ele>
        <time>2014-11-02T09:46:54Z</time>
      </trkpt>
      <trkpt lat="45.72355" lon="4.5832">
        <ele>820.14</ele>
        <time>2014-11-02T09:47:01Z</time>
      </trkpt>
      <trkpt lat="45.72341" lon="4.58268">
        <ele>823.03</ele>
        <time>2014-11-02T09:47:11Z</time>
      </trkpt>
      <trkpt lat="45.72341" lon="4.58265">
        <ele>823.51</ele>
        <time>2014-11-02T09:47:12Z</time>
      </trkpt>
      <trkpt lat="45.72341" lon="4.58262">
        <ele>823.51</ele>
        <time>2014-11-02T09:47:13Z</time>
      </trkpt>
      <trkpt lat="45.7234" lon="4.5826">
        <ele>823.51</ele>
        <time>2014-11-02T09:47:14Z</time>
      </trkpt>
      <trkpt lat="45.7234" lon="4.58257">
        <ele>823.51</ele>
        <time>2014-11-02T09:47:15Z</time>
      </trkpt>
      <trkpt lat="45.7234" lon="4.58255">
        <ele>823.51</ele>
        <time>2014-11-02T09:47:16Z</time>
      </trkpt>
      <trkpt lat="45.7234" lon="4.58253">
        <ele>823.51</ele>
        <time>2014-11-02T09:47:17Z</time>
      </trkpt>
      <trkpt lat="45.72338" lon="4.58239">
        <ele>824.47</ele>
        <time>2014-11-02T09:47:23Z</time>
      </trkpt>
      <trkpt lat="45.72337" lon="4.58237">
        <ele>824.95</ele>
        <time>2014-11-02T09:47:24Z</time>
      </trkpt>
      <trkpt lat="45.72337" lon="4.58234">
        <ele>824.95</ele>
        <time>2014-11-02T09:47:25Z</time>
      </trkpt>
      <trkpt lat="45.72333" lon="4.58213">
        <ele>827.35</ele>
        <time>2014-11-02T09:47:36Z</time>
      </trkpt>
      <trkpt lat="45.72332" lon="4.5821">
        <ele>827.35</ele>
        <time>2014-11-02T09:47:37Z</time>
      </trkpt>
      <trkpt lat="45.72332" lon="4.58208">
        <ele>827.35</ele>
        <time>2014-11-02T09:47:38Z</time>
      </trkpt>
      <trkpt lat="45.72331" lon="4.58206">
        <ele>827.35</ele>
        <time>2014-11-02T09:47:39Z</time>
      </trkpt>
      <trkpt lat="45.72331" lon="4.58203">
        <ele>827.35</ele>
        <time>2014-11-02T09:47:40Z</time>
      </trkpt>
      <trkpt lat="45.72328" lon="4.58175">
        <ele>828.31</ele>
        <time>2014-11-02T09:47:54Z</time>
      </trkpt>
      <trkpt lat="45.72327" lon="4.58173">
        <ele>828.31</ele>
        <time>2014-11-02T09:47:55Z</time>
      </trkpt>
      <trkpt lat="45.72327" lon="4.58171">
        <ele>828.79</ele>
        <time>2014-11-02T09:47:56Z</time>
      </trkpt>
      <trkpt lat="45.72327" lon="4.58169">
        <ele>828.79</ele>
        <time>2014-11-02T09:47:57Z</time>
      </trkpt>
      <trkpt lat="45.72324" lon="4.58136">
        <ele>833.6</ele>
        <time>2014-11-02T09:48:11Z</time>
      </trkpt>
      <trkpt lat="45.72324" lon="4.58134">
        <ele>833.6</ele>
        <time>2014-11-02T09:48:12Z</time>
      </trkpt>
      <trkpt lat="45.72324" lon="4.58132">
        <ele>834.08</ele>
        <time>2014-11-02T09:48:13Z</time>
      </trkpt>
      <trkpt lat="45.72324" lon="4.58122">
        <ele>836.96</ele>
        <time>2014-11-02T09:48:18Z</time>
      </trkpt>
      <trkpt lat="45.72324" lon="4.5812">
        <ele>836.96</ele>
        <time>2014-11-02T09:48:19Z</time>
      </trkpt>
      <trkpt lat="45.72324" lon="4.58118">
        <ele>836.96</ele>
        <time>2014-11-02T09:48:20Z</time>
      </trkpt>
      <trkpt lat="45.72321" lon="4.58095">
        <ele>838.89</ele>
        <time>2014-11-02T09:48:32Z</time>
      </trkpt>
      <trkpt lat="45.72321" lon="4.5809">
        <ele>839.85</ele>
        <time>2014-11-02T09:48:35Z</time>
      </trkpt>
      <trkpt lat="45.7232" lon="4.5808">
        <ele>842.25</ele>
        <time>2014-11-02T09:48:42Z</time>
      </trkpt>
      <trkpt lat="45.7232" lon="4.58078">
        <ele>842.25</ele>
        <time>2014-11-02T09:48:43Z</time>
      </trkpt>
      <trkpt lat="45.72319" lon="4.58076">
        <ele>842.25</ele>
        <time>2014-11-02T09:48:44Z</time>
      </trkpt>
      <trkpt lat="45.72319" lon="4.58074">
        <ele>842.25</ele>
        <time>2014-11-02T09:48:45Z</time>
      </trkpt>
      <trkpt lat="45.72316" lon="4.58067">
        <ele>843.69</ele>
        <time>2014-11-02T09:48:50Z</time>
      </trkpt>
      <trkpt lat="45.72315" lon="4.58065">
        <ele>843.69</ele>
        <time>2014-11-02T09:48:51Z</time>
      </trkpt>
      <trkpt lat="45.72315" lon="4.58064">
        <ele>844.18</ele>
        <time>2014-11-02T09:48:52Z</time>
      </trkpt>
      <trkpt lat="45.72313" lon="4.5806">
        <ele>844.18</ele>
        <time>2014-11-02T09:48:55Z</time>
      </trkpt>
      <trkpt lat="45.7231" lon="4.58051">
        <ele>846.58</ele>
        <time>2014-11-02T09:49:02Z</time>
      </trkpt>
      <trkpt lat="45.72309" lon="4.5805">
        <ele>847.06</ele>
        <time>2014-11-02T09:49:03Z</time>
      </trkpt>
      <trkpt lat="45.72308" lon="4.58049">
        <ele>847.06</ele>
        <time>2014-11-02T09:49:04Z</time>
      </trkpt>
      <trkpt lat="45.72307" lon="4.58049">
        <ele>847.06</ele>
        <time>2014-11-02T09:49:05Z</time>
      </trkpt>
      <trkpt lat="45.72307" lon="4.58048">
        <ele>847.54</ele>
        <time>2014-11-02T09:49:06Z</time>
      </trkpt>
      <trkpt lat="45.72306" lon="4.58047">
        <ele>848.02</ele>
        <time>2014-11-02T09:49:07Z</time>
      </trkpt>
      <trkpt lat="45.72303" lon="4.58046">
        <ele>849.46</ele>
        <time>2014-11-02T09:49:10Z</time>
      </trkpt>
      <trkpt lat="45.72303" lon="4.58045">
        <ele>849.46</ele>
        <time>2014-11-02T09:49:11Z</time>
      </trkpt>
      <trkpt lat="45.72302" lon="4.58044">
        <ele>849.46</ele>
        <time>2014-11-02T09:49:12Z</time>
      </trkpt>
      <trkpt lat="45.72298" lon="4.58036">
        <ele>851.38</ele>
        <time>2014-11-02T09:49:20Z</time>
      </trkpt>
      <trkpt lat="45.72297" lon="4.58032">
        <ele>852.35</ele>
        <time>2014-11-02T09:49:22Z</time>
      </trkpt>
      <trkpt lat="45.72296" lon="4.58031">
        <ele>852.35</ele>
        <time>2014-11-02T09:49:23Z</time>
      </trkpt>
      <trkpt lat="45.72292" lon="4.58024">
        <ele>852.83</ele>
        <time>2014-11-02T09:49:29Z</time>
      </trkpt>
      <trkpt lat="45.72292" lon="4.58022">
        <ele>852.83</ele>
        <time>2014-11-02T09:49:30Z</time>
      </trkpt>
      <trkpt lat="45.72291" lon="4.58021">
        <ele>852.83</ele>
        <time>2014-11-02T09:49:31Z</time>
      </trkpt>
      <trkpt lat="45.72288" lon="4.58003">
        <ele>854.27</ele>
        <time>2014-11-02T09:49:42Z</time>
      </trkpt>
      <trkpt lat="45.72286" lon="4.57995">
        <ele>854.75</ele>
        <time>2014-11-02T09:49:46Z</time>
      </trkpt>
      <trkpt lat="45.72286" lon="4.57993">
        <ele>855.23</ele>
        <time>2014-11-02T09:49:47Z</time>
      </trkpt>
      <trkpt lat="45.72286" lon="4.57992">
        <ele>856.19</ele>
        <time>2014-11-02T09:49:48Z</time>
      </trkpt>
      <trkpt lat="45.72281" lon="4.5798">
        <ele>857.15</ele>
        <time>2014-11-02T09:49:55Z</time>
      </trkpt>
      <trkpt lat="45.7228" lon="4.57978">
        <ele>857.63</ele>
        <time>2014-11-02T09:49:56Z</time>
      </trkpt>
      <trkpt lat="45.72278" lon="4.57973">
        <ele>858.11</ele>
        <time>2014-11-02T09:49:59Z</time>
      </trkpt>
      <trkpt lat="45.72273" lon="4.57952">
        <ele>859.56</ele>
        <time>2014-11-02T09:50:09Z</time>
      </trkpt>
      <trkpt lat="45.72269" lon="4.57941">
        <ele>861</ele>
        <time>2014-11-02T09:50:15Z</time>
      </trkpt>
      <trkpt lat="45.72268" lon="4.57939">
        <ele>861</ele>
        <time>2014-11-02T09:50:16Z</time>
      </trkpt>
      <trkpt lat="45.72265" lon="4.57934">
        <ele>861.96</ele>
        <time>2014-11-02T09:50:19Z</time>
      </trkpt>
      <trkpt lat="45.72264" lon="4.57932">
        <ele>861.96</ele>
        <time>2014-11-02T09:50:20Z</time>
      </trkpt>
      <trkpt lat="45.72263" lon="4.57931">
        <ele>862.44</ele>
        <time>2014-11-02T09:50:21Z</time>
      </trkpt>
      <trkpt lat="45.72262" lon="4.57929">
        <ele>862.92</ele>
        <time>2014-11-02T09:50:22Z</time>
      </trkpt>
      <trkpt lat="45.72261" lon="4.57927">
        <ele>862.92</ele>
        <time>2014-11-02T09:50:23Z</time>
      </trkpt>
      <trkpt lat="45.72245" lon="4.57897">
        <ele>863.4</ele>
        <time>2014-11-02T09:50:36Z</time>
      </trkpt>
      <trkpt lat="45.72232" lon="4.5788">
        <ele>862.44</ele>
        <time>2014-11-02T09:50:41Z</time>
      </trkpt>
      <trkpt lat="45.72229" lon="4.57876">
        <ele>861.96</ele>
        <time>2014-11-02T09:50:42Z</time>
      </trkpt>
      <trkpt lat="45.72226" lon="4.57872">
        <ele>861.96</ele>
        <time>2014-11-02T09:50:43Z</time>
      </trkpt>
      <trkpt lat="45.72224" lon="4.57867">
        <ele>861.48</ele>
        <time>2014-11-02T09:50:44Z</time>
      </trkpt>
      <trkpt lat="45.72221" lon="4.57862">
        <ele>861.48</ele>
        <time>2014-11-02T09:50:45Z</time>
      </trkpt>
      <trkpt lat="45.72217" lon="4.57857">
        <ele>861.48</ele>
        <time>2014-11-02T09:50:46Z</time>
      </trkpt>
      <trkpt lat="45.72205" lon="4.5784">
        <ele>861</ele>
        <time>2014-11-02T09:50:49Z</time>
      </trkpt>
      <trkpt lat="45.72192" lon="4.57821">
        <ele>861</ele>
        <time>2014-11-02T09:50:52Z</time>
      </trkpt>
      <trkpt lat="45.72184" lon="4.57805">
        <ele>861</ele>
        <time>2014-11-02T09:50:54Z</time>
      </trkpt>
      <trkpt lat="45.72161" lon="4.57751">
        <ele>860.04</ele>
        <time>2014-11-02T09:51:00Z</time>
      </trkpt>
      <trkpt lat="45.72154" lon="4.57729">
        <ele>859.56</ele>
        <time>2014-11-02T09:51:02Z</time>
      </trkpt>
      <trkpt lat="45.72151" lon="4.57718">
        <ele>859.08</ele>
        <time>2014-11-02T09:51:03Z</time>
      </trkpt>
      <trkpt lat="45.72115" lon="4.57574">
        <ele>850.42</ele>
        <time>2014-11-02T09:51:14Z</time>
      </trkpt>
      <trkpt lat="45.72068" lon="4.57431">
        <ele>845.14</ele>
        <time>2014-11-02T09:51:25Z</time>
      </trkpt>
      <trkpt lat="45.72052" lon="4.57399">
        <ele>843.69</ele>
        <time>2014-11-02T09:51:28Z</time>
      </trkpt>
      <trkpt lat="45.72048" lon="4.57388">
        <ele>843.21</ele>
        <time>2014-11-02T09:51:29Z</time>
      </trkpt>
      <trkpt lat="45.72045" lon="4.57376">
        <ele>842.73</ele>
        <time>2014-11-02T09:51:30Z</time>
      </trkpt>
      <trkpt lat="45.72041" lon="4.57353">
        <ele>841.77</ele>
        <time>2014-11-02T09:51:32Z</time>
      </trkpt>
      <trkpt lat="45.72041" lon="4.5734">
        <ele>840.81</ele>
        <time>2014-11-02T09:51:33Z</time>
      </trkpt>
      <trkpt lat="45.72044" lon="4.57327">
        <ele>839.37</ele>
        <time>2014-11-02T09:51:34Z</time>
      </trkpt>
      <trkpt lat="45.72071" lon="4.57212">
        <ele>827.35</ele>
        <time>2014-11-02T09:51:42Z</time>
      </trkpt>
      <trkpt lat="45.72088" lon="4.57059">
        <ele>817.74</ele>
        <time>2014-11-02T09:51:53Z</time>
      </trkpt>
      <trkpt lat="45.72089" lon="4.57047">
        <ele>817.26</ele>
        <time>2014-11-02T09:51:54Z</time>
      </trkpt>
      <trkpt lat="45.72089" lon="4.57036">
        <ele>816.78</ele>
        <time>2014-11-02T09:51:55Z</time>
      </trkpt>
      <trkpt lat="45.72087" lon="4.57015">
        <ele>816.3</ele>
        <time>2014-11-02T09:51:57Z</time>
      </trkpt>
      <trkpt lat="45.72085" lon="4.56945">
        <ele>817.26</ele>
        <time>2014-11-02T09:52:07Z</time>
      </trkpt>
      <trkpt lat="45.72088" lon="4.56894">
        <ele>818.7</ele>
        <time>2014-11-02T09:52:19Z</time>
      </trkpt>
      <trkpt lat="45.72092" lon="4.56838">
        <ele>818.7</ele>
        <time>2014-11-02T09:52:32Z</time>
      </trkpt>
      <trkpt lat="45.72088" lon="4.56807">
        <ele>818.22</ele>
        <time>2014-11-02T09:52:40Z</time>
      </trkpt>
      <trkpt lat="45.72087" lon="4.56805">
        <ele>818.22</ele>
        <time>2014-11-02T09:52:41Z</time>
      </trkpt>
      <trkpt lat="45.72086" lon="4.56804">
        <ele>818.22</ele>
        <time>2014-11-02T09:52:42Z</time>
      </trkpt>
      <trkpt lat="45.72084" lon="4.56806">
        <ele>818.22</ele>
        <time>2014-11-02T09:52:43Z</time>
      </trkpt>
      <trkpt lat="45.72081" lon="4.56807">
        <ele>818.22</ele>
        <time>2014-11-02T09:52:44Z</time>
      </trkpt>
      <trkpt lat="45.72079" lon="4.56808">
        <ele>818.22</ele>
        <time>2014-11-02T09:52:45Z</time>
      </trkpt>
      <trkpt lat="45.72063" lon="4.56795">
        <ele>820.62</ele>
        <time>2014-11-02T09:52:57Z</time>
      </trkpt>
      <trkpt lat="45.72054" lon="4.56778">
        <ele>821.58</ele>
        <time>2014-11-02T09:53:05Z</time>
      </trkpt>
      <trkpt lat="45.72053" lon="4.56776">
        <ele>822.06</ele>
        <time>2014-11-02T09:53:06Z</time>
      </trkpt>
      <trkpt lat="45.72052" lon="4.56775">
        <ele>822.06</ele>
        <time>2014-11-02T09:53:07Z</time>
      </trkpt>
      <trkpt lat="45.72051" lon="4.56773">
        <ele>822.55</ele>
        <time>2014-11-02T09:53:08Z</time>
      </trkpt>
      <trkpt lat="45.72049" lon="4.56772">
        <ele>822.55</ele>
        <time>2014-11-02T09:53:09Z</time>
      </trkpt>
      <trkpt lat="45.72043" lon="4.56765">
        <ele>823.99</ele>
        <time>2014-11-02T09:53:13Z</time>
      </trkpt>
      <trkpt lat="45.72041" lon="4.56763">
        <ele>824.47</ele>
        <time>2014-11-02T09:53:14Z</time>
      </trkpt>
      <trkpt lat="45.72039" lon="4.56762">
        <ele>824.47</ele>
        <time>2014-11-02T09:53:15Z</time>
      </trkpt>
      <trkpt lat="45.72037" lon="4.5676">
        <ele>824.95</ele>
        <time>2014-11-02T09:53:16Z</time>
      </trkpt>
      <trkpt lat="45.72035" lon="4.56758">
        <ele>825.43</ele>
        <time>2014-11-02T09:53:17Z</time>
      </trkpt>
      <trkpt lat="45.72034" lon="4.56757">
        <ele>825.91</ele>
        <time>2014-11-02T09:53:18Z</time>
      </trkpt>
      <trkpt lat="45.7203" lon="4.56755">
        <ele>826.39</ele>
        <time>2014-11-02T09:53:20Z</time>
      </trkpt>
      <trkpt lat="45.72028" lon="4.56755">
        <ele>826.39</ele>
        <time>2014-11-02T09:53:21Z</time>
      </trkpt>
      <trkpt lat="45.72022" lon="4.56755">
        <ele>826.39</ele>
        <time>2014-11-02T09:53:24Z</time>
      </trkpt>
      <trkpt lat="45.72021" lon="4.56755">
        <ele>826.39</ele>
        <time>2014-11-02T09:53:25Z</time>
      </trkpt>
      <trkpt lat="45.72019" lon="4.56756">
        <ele>826.39</ele>
        <time>2014-11-02T09:53:26Z</time>
      </trkpt>
      <trkpt lat="45.72016" lon="4.56757">
        <ele>825.91</ele>
        <time>2014-11-02T09:53:27Z</time>
      </trkpt>
      <trkpt lat="45.72014" lon="4.56758">
        <ele>825.91</ele>
        <time>2014-11-02T09:53:28Z</time>
      </trkpt>
      <trkpt lat="45.71993" lon="4.56759">
        <ele>826.39</ele>
        <time>2014-11-02T09:53:39Z</time>
      </trkpt>
      <trkpt lat="45.71986" lon="4.56757">
        <ele>826.39</ele>
        <time>2014-11-02T09:53:43Z</time>
      </trkpt>
      <trkpt lat="45.71985" lon="4.56757">
        <ele>825.91</ele>
        <time>2014-11-02T09:53:44Z</time>
      </trkpt>
      <trkpt lat="45.71981" lon="4.56757">
        <ele>825.91</ele>
        <time>2014-11-02T09:53:46Z</time>
      </trkpt>
      <trkpt lat="45.71979" lon="4.56757">
        <ele>826.39</ele>
        <time>2014-11-02T09:53:47Z</time>
      </trkpt>
      <trkpt lat="45.71978" lon="4.56757">
        <ele>826.39</ele>
        <time>2014-11-02T09:53:48Z</time>
      </trkpt>
      <trkpt lat="45.71976" lon="4.56756">
        <ele>826.39</ele>
        <time>2014-11-02T09:53:49Z</time>
      </trkpt>
      <trkpt lat="45.71975" lon="4.56756">
        <ele>826.39</ele>
        <time>2014-11-02T09:53:50Z</time>
      </trkpt>
      <trkpt lat="45.71973" lon="4.56756">
        <ele>826.87</ele>
        <time>2014-11-02T09:53:51Z</time>
      </trkpt>
      <trkpt lat="45.71969" lon="4.56757">
        <ele>826.39</ele>
        <time>2014-11-02T09:53:53Z</time>
      </trkpt>
      <trkpt lat="45.71966" lon="4.56758">
        <ele>826.39</ele>
        <time>2014-11-02T09:53:55Z</time>
      </trkpt>
      <trkpt lat="45.71965" lon="4.56758">
        <ele>826.39</ele>
        <time>2014-11-02T09:53:56Z</time>
      </trkpt>
      <trkpt lat="45.71941" lon="4.5676">
        <ele>827.35</ele>
        <time>2014-11-02T09:54:07Z</time>
      </trkpt>
      <trkpt lat="45.71918" lon="4.56747">
        <ele>828.79</ele>
        <time>2014-11-02T09:54:19Z</time>
      </trkpt>
      <trkpt lat="45.71901" lon="4.56728">
        <ele>828.79</ele>
        <time>2014-11-02T09:54:31Z</time>
      </trkpt>
      <trkpt lat="45.71889" lon="4.56716">
        <ele>831.2</ele>
        <time>2014-11-02T09:54:44Z</time>
      </trkpt>
      <trkpt lat="45.71886" lon="4.56713">
        <ele>833.12</ele>
        <time>2014-11-02T09:54:53Z</time>
      </trkpt>
      <trkpt lat="45.71883" lon="4.5671">
        <ele>834.08</ele>
        <time>2014-11-02T09:54:58Z</time>
      </trkpt>
      <trkpt lat="45.71879" lon="4.56708">
        <ele>834.08</ele>
        <time>2014-11-02T09:55:02Z</time>
      </trkpt>
      <trkpt lat="45.71875" lon="4.56704">
        <ele>836</ele>
        <time>2014-11-02T09:55:07Z</time>
      </trkpt>
      <trkpt lat="45.71872" lon="4.56702">
        <ele>836.96</ele>
        <time>2014-11-02T09:55:10Z</time>
      </trkpt>
      <trkpt lat="45.71866" lon="4.567">
        <ele>838.89</ele>
        <time>2014-11-02T09:55:15Z</time>
      </trkpt>
      <trkpt lat="45.71858" lon="4.56689">
        <ele>841.29</ele>
        <time>2014-11-02T09:55:24Z</time>
      </trkpt>
      <trkpt lat="45.71842" lon="4.56682">
        <ele>843.69</ele>
        <time>2014-11-02T09:55:37Z</time>
      </trkpt>
      <trkpt lat="45.71831" lon="4.56679">
        <ele>846.58</ele>
        <time>2014-11-02T09:55:48Z</time>
      </trkpt>
      <trkpt lat="45.71825" lon="4.56677">
        <ele>847.54</ele>
        <time>2014-11-02T09:55:51Z</time>
      </trkpt>
      <trkpt lat="45.71806" lon="4.56675">
        <ele>847.06</ele>
        <time>2014-11-02T09:56:03Z</time>
      </trkpt>
      <trkpt lat="45.71802" lon="4.56674">
        <ele>846.58</ele>
        <time>2014-11-02T09:56:07Z</time>
      </trkpt>
      <trkpt lat="45.71785" lon="4.56672">
        <ele>847.06</ele>
        <time>2014-11-02T09:56:18Z</time>
      </trkpt>
      <trkpt lat="45.71783" lon="4.56671">
        <ele>847.54</ele>
        <time>2014-11-02T09:56:19Z</time>
      </trkpt>
      <trkpt lat="45.71765" lon="4.56671">
        <ele>850.9</ele>
        <time>2014-11-02T09:56:30Z</time>
      </trkpt>
      <trkpt lat="45.71749" lon="4.5667">
        <ele>851.38</ele>
        <time>2014-11-02T09:56:40Z</time>
      </trkpt>
      <trkpt lat="45.71744" lon="4.5667">
        <ele>850.9</ele>
        <time>2014-11-02T09:56:43Z</time>
      </trkpt>
      <trkpt lat="45.71736" lon="4.5667">
        <ele>851.38</ele>
        <time>2014-11-02T09:56:47Z</time>
      </trkpt>
      <trkpt lat="45.71724" lon="4.56671">
        <ele>851.87</ele>
        <time>2014-11-02T09:56:54Z</time>
      </trkpt>
      <trkpt lat="45.71702" lon="4.56683">
        <ele>853.79</ele>
        <time>2014-11-02T09:57:05Z</time>
      </trkpt>
      <trkpt lat="45.71688" lon="4.56696">
        <ele>853.79</ele>
        <time>2014-11-02T09:57:10Z</time>
      </trkpt>
      <trkpt lat="45.71686" lon="4.567">
        <ele>853.31</ele>
        <time>2014-11-02T09:57:11Z</time>
      </trkpt>
      <trkpt lat="45.71679" lon="4.56711">
        <ele>852.83</ele>
        <time>2014-11-02T09:57:13Z</time>
      </trkpt>
      <trkpt lat="45.71676" lon="4.56717">
        <ele>852.35</ele>
        <time>2014-11-02T09:57:14Z</time>
      </trkpt>
      <trkpt lat="45.71672" lon="4.56721">
        <ele>852.35</ele>
        <time>2014-11-02T09:57:15Z</time>
      </trkpt>
      <trkpt lat="45.7166" lon="4.56725">
        <ele>851.87</ele>
        <time>2014-11-02T09:57:18Z</time>
      </trkpt>
      <trkpt lat="45.71656" lon="4.56724">
        <ele>851.38</ele>
        <time>2014-11-02T09:57:19Z</time>
      </trkpt>
      <trkpt lat="45.71653" lon="4.56723">
        <ele>851.87</ele>
        <time>2014-11-02T09:57:20Z</time>
      </trkpt>
      <trkpt lat="45.7165" lon="4.5672">
        <ele>851.87</ele>
        <time>2014-11-02T09:57:21Z</time>
      </trkpt>
      <trkpt lat="45.71647" lon="4.56718">
        <ele>851.87</ele>
        <time>2014-11-02T09:57:22Z</time>
      </trkpt>
      <trkpt lat="45.71629" lon="4.56705">
        <ele>853.79</ele>
        <time>2014-11-02T09:57:35Z</time>
      </trkpt>
      <trkpt lat="45.71629" lon="4.56706">
        <ele>852.83</ele>
        <time>2014-11-02T09:57:50Z</time>
      </trkpt>
      <trkpt lat="45.71629" lon="4.56706">
        <ele>852.35</ele>
        <time>2014-11-02T09:58:12Z</time>
      </trkpt>
      <trkpt lat="45.71629" lon="4.56707">
        <ele>849.94</ele>
        <time>2014-11-02T09:58:39Z</time>
      </trkpt>
      <trkpt lat="45.71627" lon="4.56705">
        <ele>848.5</ele>
        <time>2014-11-02T09:58:57Z</time>
      </trkpt>
      <trkpt lat="45.71626" lon="4.56704">
        <ele>848.5</ele>
        <time>2014-11-02T09:58:58Z</time>
      </trkpt>
      <trkpt lat="45.71625" lon="4.56702">
        <ele>848.02</ele>
        <time>2014-11-02T09:58:59Z</time>
      </trkpt>
      <trkpt lat="45.71623" lon="4.56701">
        <ele>848.02</ele>
        <time>2014-11-02T09:59:00Z</time>
      </trkpt>
      <trkpt lat="45.71621" lon="4.56699">
        <ele>848.02</ele>
        <time>2014-11-02T09:59:01Z</time>
      </trkpt>
      <trkpt lat="45.71619" lon="4.56698">
        <ele>848.02</ele>
        <time>2014-11-02T09:59:02Z</time>
      </trkpt>
      <trkpt lat="45.71617" lon="4.56696">
        <ele>847.54</ele>
        <time>2014-11-02T09:59:03Z</time>
      </trkpt>
      <trkpt lat="45.71614" lon="4.56693">
        <ele>847.54</ele>
        <time>2014-11-02T09:59:04Z</time>
      </trkpt>
      <trkpt lat="45.71608" lon="4.56687">
        <ele>847.06</ele>
        <time>2014-11-02T09:59:06Z</time>
      </trkpt>
      <trkpt lat="45.71578" lon="4.56643">
        <ele>843.69</ele>
        <time>2014-11-02T09:59:14Z</time>
      </trkpt>
      <trkpt lat="45.71573" lon="4.56636">
        <ele>842.73</ele>
        <time>2014-11-02T09:59:15Z</time>
      </trkpt>
      <trkpt lat="45.71529" lon="4.56575">
        <ele>837.93</ele>
        <time>2014-11-02T09:59:23Z</time>
      </trkpt>
      <trkpt lat="45.71506" lon="4.56533">
        <ele>833.6</ele>
        <time>2014-11-02T09:59:29Z</time>
      </trkpt>
      <trkpt lat="45.71495" lon="4.56515">
        <ele>831.2</ele>
        <time>2014-11-02T09:59:32Z</time>
      </trkpt>
      <trkpt lat="45.71484" lon="4.56493">
        <ele>829.27</ele>
        <time>2014-11-02T09:59:35Z</time>
      </trkpt>
      <trkpt lat="45.71472" lon="4.56461">
        <ele>826.87</ele>
        <time>2014-11-02T09:59:39Z</time>
      </trkpt>
      <trkpt lat="45.71462" lon="4.56426">
        <ele>826.87</ele>
        <time>2014-11-02T09:59:48Z</time>
      </trkpt>
      <trkpt lat="45.71456" lon="4.56412">
        <ele>827.35</ele>
        <time>2014-11-02T09:59:52Z</time>
      </trkpt>
      <trkpt lat="45.71453" lon="4.5641">
        <ele>827.35</ele>
        <time>2014-11-02T09:59:53Z</time>
      </trkpt>
      <trkpt lat="45.7145" lon="4.56408">
        <ele>826.87</ele>
        <time>2014-11-02T09:59:54Z</time>
      </trkpt>
      <trkpt lat="45.71446" lon="4.56405">
        <ele>826.87</ele>
        <time>2014-11-02T09:59:55Z</time>
      </trkpt>
      <trkpt lat="45.71443" lon="4.56402">
        <ele>826.87</ele>
        <time>2014-11-02T09:59:56Z</time>
      </trkpt>
      <trkpt lat="45.71425" lon="4.56415">
        <ele>825.43</ele>
        <time>2014-11-02T10:00:03Z</time>
      </trkpt>
      <trkpt lat="45.71423" lon="4.56425">
        <ele>824.47</ele>
        <time>2014-11-02T10:00:05Z</time>
      </trkpt>
      <trkpt lat="45.71424" lon="4.5643">
        <ele>824.47</ele>
        <time>2014-11-02T10:00:06Z</time>
      </trkpt>
      <trkpt lat="45.71427" lon="4.56447">
        <ele>823.51</ele>
        <time>2014-11-02T10:00:09Z</time>
      </trkpt>
      <trkpt lat="45.71428" lon="4.5646">
        <ele>823.51</ele>
        <time>2014-11-02T10:00:11Z</time>
      </trkpt>
      <trkpt lat="45.71428" lon="4.56466">
        <ele>823.51</ele>
        <time>2014-11-02T10:00:12Z</time>
      </trkpt>
      <trkpt lat="45.71427" lon="4.56479">
        <ele>823.03</ele>
        <time>2014-11-02T10:00:14Z</time>
      </trkpt>
      <trkpt lat="45.71419" lon="4.56521">
        <ele>822.06</ele>
        <time>2014-11-02T10:00:21Z</time>
      </trkpt>
      <trkpt lat="45.71419" lon="4.56527">
        <ele>821.58</ele>
        <time>2014-11-02T10:00:22Z</time>
      </trkpt>
      <trkpt lat="45.7141" lon="4.56623">
        <ele>822.06</ele>
        <time>2014-11-02T10:00:37Z</time>
      </trkpt>
      <trkpt lat="45.7141" lon="4.56629">
        <ele>822.06</ele>
        <time>2014-11-02T10:00:38Z</time>
      </trkpt>
      <trkpt lat="45.71409" lon="4.56635">
        <ele>822.06</ele>
        <time>2014-11-02T10:00:39Z</time>
      </trkpt>
      <trkpt lat="45.71408" lon="4.56646">
        <ele>821.58</ele>
        <time>2014-11-02T10:00:41Z</time>
      </trkpt>
      <trkpt lat="45.71407" lon="4.56653">
        <ele>821.1</ele>
        <time>2014-11-02T10:00:42Z</time>
      </trkpt>
      <trkpt lat="45.71406" lon="4.56659">
        <ele>821.1</ele>
        <time>2014-11-02T10:00:43Z</time>
      </trkpt>
      <trkpt lat="45.71403" lon="4.56666">
        <ele>821.1</ele>
        <time>2014-11-02T10:00:44Z</time>
      </trkpt>
      <trkpt lat="45.71401" lon="4.56672">
        <ele>821.1</ele>
        <time>2014-11-02T10:00:45Z</time>
      </trkpt>
      <trkpt lat="45.71398" lon="4.56678">
        <ele>821.1</ele>
        <time>2014-11-02T10:00:46Z</time>
      </trkpt>
      <trkpt lat="45.71396" lon="4.56684">
        <ele>821.1</ele>
        <time>2014-11-02T10:00:47Z</time>
      </trkpt>
      <trkpt lat="45.71393" lon="4.56689">
        <ele>820.62</ele>
        <time>2014-11-02T10:00:48Z</time>
      </trkpt>
      <trkpt lat="45.71389" lon="4.56694">
        <ele>820.62</ele>
        <time>2014-11-02T10:00:49Z</time>
      </trkpt>
      <trkpt lat="45.71385" lon="4.56698">
        <ele>820.62</ele>
        <time>2014-11-02T10:00:50Z</time>
      </trkpt>
      <trkpt lat="45.71376" lon="4.56703">
        <ele>820.14</ele>
        <time>2014-11-02T10:00:52Z</time>
      </trkpt>
      <trkpt lat="45.71345" lon="4.56713">
        <ele>820.14</ele>
        <time>2014-11-02T10:01:00Z</time>
      </trkpt>
      <trkpt lat="45.71341" lon="4.56714">
        <ele>819.66</ele>
        <time>2014-11-02T10:01:01Z</time>
      </trkpt>
      <trkpt lat="45.71288" lon="4.5674">
        <ele>820.14</ele>
        <time>2014-11-02T10:01:15Z</time>
      </trkpt>
      <trkpt lat="45.71252" lon="4.56767">
        <ele>823.51</ele>
        <time>2014-11-02T10:01:27Z</time>
      </trkpt>
      <trkpt lat="45.71227" lon="4.56796">
        <ele>827.83</ele>
        <time>2014-11-02T10:01:39Z</time>
      </trkpt>
      <trkpt lat="45.71204" lon="4.56819">
        <ele>830.24</ele>
        <time>2014-11-02T10:01:51Z</time>
      </trkpt>
      <trkpt lat="45.71201" lon="4.5682">
        <ele>830.72</ele>
        <time>2014-11-02T10:01:52Z</time>
      </trkpt>
      <trkpt lat="45.71199" lon="4.5682">
        <ele>830.72</ele>
        <time>2014-11-02T10:01:53Z</time>
      </trkpt>
      <trkpt lat="45.71187" lon="4.56821">
        <ele>831.2</ele>
        <time>2014-11-02T10:02:00Z</time>
      </trkpt>
      <trkpt lat="45.7117" lon="4.56824">
        <ele>831.68</ele>
        <time>2014-11-02T10:02:08Z</time>
      </trkpt>
      <trkpt lat="45.71168" lon="4.56824">
        <ele>831.68</ele>
        <time>2014-11-02T10:02:09Z</time>
      </trkpt>
      <trkpt lat="45.71148" lon="4.56815">
        <ele>834.08</ele>
        <time>2014-11-02T10:02:21Z</time>
      </trkpt>
      <trkpt lat="45.71141" lon="4.5681">
        <ele>835.04</ele>
        <time>2014-11-02T10:02:25Z</time>
      </trkpt>
      <trkpt lat="45.7114" lon="4.56809">
        <ele>835.52</ele>
        <time>2014-11-02T10:02:26Z</time>
      </trkpt>
      <trkpt lat="45.71138" lon="4.56807">
        <ele>835.52</ele>
        <time>2014-11-02T10:02:27Z</time>
      </trkpt>
      <trkpt lat="45.71137" lon="4.56806">
        <ele>836</ele>
        <time>2014-11-02T10:02:28Z</time>
      </trkpt>
      <trkpt lat="45.71135" lon="4.56805">
        <ele>836</ele>
        <time>2014-11-02T10:02:29Z</time>
      </trkpt>
      <trkpt lat="45.71134" lon="4.56803">
        <ele>836</ele>
        <time>2014-11-02T10:02:30Z</time>
      </trkpt>
      <trkpt lat="45.71116" lon="4.56787">
        <ele>838.89</ele>
        <time>2014-11-02T10:02:39Z</time>
      </trkpt>
      <trkpt lat="45.71113" lon="4.56786">
        <ele>839.37</ele>
        <time>2014-11-02T10:02:40Z</time>
      </trkpt>
      <trkpt lat="45.71111" lon="4.56783">
        <ele>839.37</ele>
        <time>2014-11-02T10:02:41Z</time>
      </trkpt>
      <trkpt lat="45.7111" lon="4.56781">
        <ele>839.85</ele>
        <time>2014-11-02T10:02:42Z</time>
      </trkpt>
      <trkpt lat="45.71108" lon="4.56779">
        <ele>840.33</ele>
        <time>2014-11-02T10:02:43Z</time>
      </trkpt>
      <trkpt lat="45.71105" lon="4.56777">
        <ele>840.33</ele>
        <time>2014-11-02T10:02:44Z</time>
      </trkpt>
      <trkpt lat="45.71103" lon="4.56776">
        <ele>840.81</ele>
        <time>2014-11-02T10:02:45Z</time>
      </trkpt>
      <trkpt lat="45.71101" lon="4.56775">
        <ele>841.29</ele>
        <time>2014-11-02T10:02:46Z</time>
      </trkpt>
      <trkpt lat="45.711" lon="4.56774">
        <ele>841.29</ele>
        <time>2014-11-02T10:02:47Z</time>
      </trkpt>
      <trkpt lat="45.71098" lon="4.56772">
        <ele>841.77</ele>
        <time>2014-11-02T10:02:48Z</time>
      </trkpt>
      <trkpt lat="45.71096" lon="4.56769">
        <ele>841.77</ele>
        <time>2014-11-02T10:02:49Z</time>
      </trkpt>
      <trkpt lat="45.7107" lon="4.56738">
        <ele>843.21</ele>
        <time>2014-11-02T10:03:02Z</time>
      </trkpt>
      <trkpt lat="45.71056" lon="4.56717">
        <ele>842.25</ele>
        <time>2014-11-02T10:03:11Z</time>
      </trkpt>
      <trkpt lat="45.71051" lon="4.56706">
        <ele>841.29</ele>
        <time>2014-11-02T10:03:16Z</time>
      </trkpt>
      <trkpt lat="45.71051" lon="4.56704">
        <ele>841.77</ele>
        <time>2014-11-02T10:03:17Z</time>
      </trkpt>
      <trkpt lat="45.7105" lon="4.56701">
        <ele>841.77</ele>
        <time>2014-11-02T10:03:18Z</time>
      </trkpt>
      <trkpt lat="45.71048" lon="4.56698">
        <ele>841.77</ele>
        <time>2014-11-02T10:03:19Z</time>
      </trkpt>
      <trkpt lat="45.71047" lon="4.56695">
        <ele>841.77</ele>
        <time>2014-11-02T10:03:20Z</time>
      </trkpt>
      <trkpt lat="45.7103" lon="4.56659">
        <ele>843.21</ele>
        <time>2014-11-02T10:03:32Z</time>
      </trkpt>
      <trkpt lat="45.71019" lon="4.56613">
        <ele>846.58</ele>
        <time>2014-11-02T10:03:45Z</time>
      </trkpt>
      <trkpt lat="45.71014" lon="4.56574">
        <ele>848.98</ele>
        <time>2014-11-02T10:03:57Z</time>
      </trkpt>
      <trkpt lat="45.71008" lon="4.56522">
        <ele>852.35</ele>
        <time>2014-11-02T10:04:09Z</time>
      </trkpt>
      <trkpt lat="45.70995" lon="4.56464">
        <ele>856.67</ele>
        <time>2014-11-02T10:04:23Z</time>
      </trkpt>
      <trkpt lat="45.70985" lon="4.56402">
        <ele>857.15</ele>
        <time>2014-11-02T10:04:38Z</time>
      </trkpt>
      <trkpt lat="45.70975" lon="4.56345">
        <ele>858.59</ele>
        <time>2014-11-02T10:04:51Z</time>
      </trkpt>
      <trkpt lat="45.70958" lon="4.5629">
        <ele>859.56</ele>
        <time>2014-11-02T10:05:04Z</time>
      </trkpt>
      <trkpt lat="45.70923" lon="4.56234">
        <ele>862.44</ele>
        <time>2014-11-02T10:05:20Z</time>
      </trkpt>
      <trkpt lat="45.7089" lon="4.56188">
        <ele>864.84</ele>
        <time>2014-11-02T10:05:35Z</time>
      </trkpt>
      <trkpt lat="45.70867" lon="4.5616">
        <ele>866.29</ele>
        <time>2014-11-02T10:05:46Z</time>
      </trkpt>
      <trkpt lat="45.70842" lon="4.56133">
        <ele>867.73</ele>
        <time>2014-11-02T10:05:58Z</time>
      </trkpt>
      <trkpt lat="45.70832" lon="4.56126">
        <ele>867.25</ele>
        <time>2014-11-02T10:06:04Z</time>
      </trkpt>
      <trkpt lat="45.70815" lon="4.56124">
        <ele>864.36</ele>
        <time>2014-11-02T10:06:12Z</time>
      </trkpt>
      <trkpt lat="45.70813" lon="4.56124">
        <ele>863.88</ele>
        <time>2014-11-02T10:06:13Z</time>
      </trkpt>
      <trkpt lat="45.70812" lon="4.56124">
        <ele>863.88</ele>
        <time>2014-11-02T10:06:14Z</time>
      </trkpt>
      <trkpt lat="45.70811" lon="4.56123">
        <ele>862.92</ele>
        <time>2014-11-02T10:06:15Z</time>
      </trkpt>
      <trkpt lat="45.7081" lon="4.56123">
        <ele>861.96</ele>
        <time>2014-11-02T10:06:27Z</time>
      </trkpt>
      <trkpt lat="45.7081" lon="4.56121">
        <ele>861.48</ele>
        <time>2014-11-02T10:06:53Z</time>
      </trkpt>
      <trkpt lat="45.70809" lon="4.56121">
        <ele>861.96</ele>
        <time>2014-11-02T10:07:15Z</time>
      </trkpt>
      <trkpt lat="45.70809" lon="4.56121">
        <ele>862.44</ele>
        <time>2014-11-02T10:07:41Z</time>
      </trkpt>
      <trkpt lat="45.70808" lon="4.5612">
        <ele>863.4</ele>
        <time>2014-11-02T10:08:07Z</time>
      </trkpt>
      <trkpt lat="45.7081" lon="4.56119">
        <ele>864.84</ele>
        <time>2014-11-02T10:08:31Z</time>
      </trkpt>
      <trkpt lat="45.70811" lon="4.5612">
        <ele>865.8</ele>
        <time>2014-11-02T10:08:49Z</time>
      </trkpt>
      <trkpt lat="45.7081" lon="4.56122">
        <ele>867.25</ele>
        <time>2014-11-02T10:09:14Z</time>
      </trkpt>
      <trkpt lat="45.70809" lon="4.56121">
        <ele>867.25</ele>
        <time>2014-11-02T10:09:32Z</time>
      </trkpt>
      <trkpt lat="45.70806" lon="4.56121">
        <ele>867.25</ele>
        <time>2014-11-02T10:09:43Z</time>
      </trkpt>
      <trkpt lat="45.70805" lon="4.56117">
        <ele>865.32</ele>
        <time>2014-11-02T10:09:59Z</time>
      </trkpt>
      <trkpt lat="45.70805" lon="4.56115">
        <ele>864.84</ele>
        <time>2014-11-02T10:10:20Z</time>
      </trkpt>
      <trkpt lat="45.70805" lon="4.56116">
        <ele>865.32</ele>
        <time>2014-11-02T10:10:41Z</time>
      </trkpt>
      <trkpt lat="45.70804" lon="4.56115">
        <ele>865.8</ele>
        <time>2014-11-02T10:10:54Z</time>
      </trkpt>
      <trkpt lat="45.70803" lon="4.56115">
        <ele>865.8</ele>
        <time>2014-11-02T10:10:55Z</time>
      </trkpt>
      <trkpt lat="45.70802" lon="4.56115">
        <ele>865.8</ele>
        <time>2014-11-02T10:10:56Z</time>
      </trkpt>
      <trkpt lat="45.70801" lon="4.56115">
        <ele>865.8</ele>
        <time>2014-11-02T10:10:57Z</time>
      </trkpt>
      <trkpt lat="45.70799" lon="4.56114">
        <ele>865.8</ele>
        <time>2014-11-02T10:10:58Z</time>
      </trkpt>
      <trkpt lat="45.70765" lon="4.56114">
        <ele>865.32</ele>
        <time>2014-11-02T10:11:10Z</time>
      </trkpt>
      <trkpt lat="45.70739" lon="4.56109">
        <ele>865.8</ele>
        <time>2014-11-02T10:11:24Z</time>
      </trkpt>
      <trkpt lat="45.70737" lon="4.56109">
        <ele>865.8</ele>
        <time>2014-11-02T10:11:27Z</time>
      </trkpt>
      <trkpt lat="45.70736" lon="4.56109">
        <ele>865.8</ele>
        <time>2014-11-02T10:11:28Z</time>
      </trkpt>
      <trkpt lat="45.70735" lon="4.56108">
        <ele>865.8</ele>
        <time>2014-11-02T10:11:29Z</time>
      </trkpt>
      <trkpt lat="45.70735" lon="4.56105">
        <ele>867.25</ele>
        <time>2014-11-02T10:11:44Z</time>
      </trkpt>
      <trkpt lat="45.70718" lon="4.56093">
        <ele>865.32</ele>
        <time>2014-11-02T10:11:54Z</time>
      </trkpt>
      <trkpt lat="45.70711" lon="4.5609">
        <ele>863.88</ele>
        <time>2014-11-02T10:12:04Z</time>
      </trkpt>
      <trkpt lat="45.70709" lon="4.56092">
        <ele>863.88</ele>
        <time>2014-11-02T10:12:16Z</time>
      </trkpt>
      <trkpt lat="45.70708" lon="4.5609">
        <ele>863.88</ele>
        <time>2014-11-02T10:12:29Z</time>
      </trkpt>
      <trkpt lat="45.70705" lon="4.5609">
        <ele>863.88</ele>
        <time>2014-11-02T10:12:31Z</time>
      </trkpt>
      <trkpt lat="45.70703" lon="4.5609">
        <ele>863.88</ele>
        <time>2014-11-02T10:12:32Z</time>
      </trkpt>
      <trkpt lat="45.70702" lon="4.5609">
        <ele>863.88</ele>
        <time>2014-11-02T10:12:33Z</time>
      </trkpt>
      <trkpt lat="45.707" lon="4.56091">
        <ele>863.88</ele>
        <time>2014-11-02T10:12:34Z</time>
      </trkpt>
      <trkpt lat="45.70698" lon="4.56092">
        <ele>863.88</ele>
        <time>2014-11-02T10:12:35Z</time>
      </trkpt>
      <trkpt lat="45.70697" lon="4.56092">
        <ele>863.88</ele>
        <time>2014-11-02T10:12:36Z</time>
      </trkpt>
      <trkpt lat="45.70695" lon="4.56093">
        <ele>863.88</ele>
        <time>2014-11-02T10:12:37Z</time>
      </trkpt>
      <trkpt lat="45.70693" lon="4.56094">
        <ele>863.88</ele>
        <time>2014-11-02T10:12:38Z</time>
      </trkpt>
      <trkpt lat="45.70671" lon="4.56115">
        <ele>864.84</ele>
        <time>2014-11-02T10:12:50Z</time>
      </trkpt>
      <trkpt lat="45.70666" lon="4.56118">
        <ele>865.32</ele>
        <time>2014-11-02T10:12:53Z</time>
      </trkpt>
      <trkpt lat="45.70665" lon="4.5612">
        <ele>865.32</ele>
        <time>2014-11-02T10:12:54Z</time>
      </trkpt>
      <trkpt lat="45.70654" lon="4.56128">
        <ele>867.25</ele>
        <time>2014-11-02T10:13:05Z</time>
      </trkpt>
      <trkpt lat="45.70653" lon="4.56131">
        <ele>867.25</ele>
        <time>2014-11-02T10:13:20Z</time>
      </trkpt>
      <trkpt lat="45.70649" lon="4.56135">
        <ele>867.25</ele>
        <time>2014-11-02T10:13:33Z</time>
      </trkpt>
      <trkpt lat="45.70648" lon="4.56136">
        <ele>867.25</ele>
        <time>2014-11-02T10:13:34Z</time>
      </trkpt>
      <trkpt lat="45.70635" lon="4.56137">
        <ele>866.29</ele>
        <time>2014-11-02T10:13:42Z</time>
      </trkpt>
      <trkpt lat="45.70609" lon="4.56148">
        <ele>867.25</ele>
        <time>2014-11-02T10:13:51Z</time>
      </trkpt>
      <trkpt lat="45.70587" lon="4.56152">
        <ele>866.77</ele>
        <time>2014-11-02T10:13:58Z</time>
      </trkpt>
      <trkpt lat="45.70584" lon="4.56152">
        <ele>866.77</ele>
        <time>2014-11-02T10:13:59Z</time>
      </trkpt>
      <trkpt lat="45.70581" lon="4.56153">
        <ele>866.77</ele>
        <time>2014-11-02T10:14:00Z</time>
      </trkpt>
      <trkpt lat="45.70539" lon="4.56174">
        <ele>870.13</ele>
        <time>2014-11-02T10:14:13Z</time>
      </trkpt>
      <trkpt lat="45.70507" lon="4.56199">
        <ele>873.98</ele>
        <time>2014-11-02T10:14:25Z</time>
      </trkpt>
      <trkpt lat="45.70479" lon="4.56216">
        <ele>875.42</ele>
        <time>2014-11-02T10:14:37Z</time>
      </trkpt>
      <trkpt lat="45.70474" lon="4.56223">
        <ele>876.38</ele>
        <time>2014-11-02T10:14:40Z</time>
      </trkpt>
      <trkpt lat="45.70472" lon="4.56223">
        <ele>876.86</ele>
        <time>2014-11-02T10:14:41Z</time>
      </trkpt>
      <trkpt lat="45.7047" lon="4.56224">
        <ele>876.86</ele>
        <time>2014-11-02T10:14:50Z</time>
      </trkpt>
      <trkpt lat="45.70469" lon="4.56223">
        <ele>877.34</ele>
        <time>2014-11-02T10:15:02Z</time>
      </trkpt>
      <trkpt lat="45.70468" lon="4.56224">
        <ele>876.86</ele>
        <time>2014-11-02T10:15:10Z</time>
      </trkpt>
      <trkpt lat="45.70466" lon="4.56226">
        <ele>876.86</ele>
        <time>2014-11-02T10:15:11Z</time>
      </trkpt>
      <trkpt lat="45.70465" lon="4.56228">
        <ele>876.86</ele>
        <time>2014-11-02T10:15:12Z</time>
      </trkpt>
      <trkpt lat="45.70463" lon="4.5623">
        <ele>876.86</ele>
        <time>2014-11-02T10:15:13Z</time>
      </trkpt>
      <trkpt lat="45.70461" lon="4.56232">
        <ele>876.86</ele>
        <time>2014-11-02T10:15:14Z</time>
      </trkpt>
      <trkpt lat="45.70458" lon="4.56234">
        <ele>876.38</ele>
        <time>2014-11-02T10:15:15Z</time>
      </trkpt>
      <trkpt lat="45.70425" lon="4.56258">
        <ele>873.98</ele>
        <time>2014-11-02T10:15:26Z</time>
      </trkpt>
      <trkpt lat="45.70417" lon="4.56262">
        <ele>873.5</ele>
        <time>2014-11-02T10:15:28Z</time>
      </trkpt>
      <trkpt lat="45.70409" lon="4.56266">
        <ele>872.53</ele>
        <time>2014-11-02T10:15:30Z</time>
      </trkpt>
      <trkpt lat="45.70365" lon="4.56301">
        <ele>870.13</ele>
        <time>2014-11-02T10:15:39Z</time>
      </trkpt>
      <trkpt lat="45.70337" lon="4.56326">
        <ele>870.61</ele>
        <time>2014-11-02T10:15:44Z</time>
      </trkpt>
      <trkpt lat="45.70332" lon="4.5633">
        <ele>870.61</ele>
        <time>2014-11-02T10:15:45Z</time>
      </trkpt>
      <trkpt lat="45.70326" lon="4.56333">
        <ele>871.09</ele>
        <time>2014-11-02T10:15:46Z</time>
      </trkpt>
      <trkpt lat="45.70321" lon="4.56337">
        <ele>871.09</ele>
        <time>2014-11-02T10:15:47Z</time>
      </trkpt>
      <trkpt lat="45.70316" lon="4.5634">
        <ele>871.09</ele>
        <time>2014-11-02T10:15:48Z</time>
      </trkpt>
      <trkpt lat="45.70311" lon="4.56342">
        <ele>871.09</ele>
        <time>2014-11-02T10:15:49Z</time>
      </trkpt>
      <trkpt lat="45.70284" lon="4.56354">
        <ele>871.57</ele>
        <time>2014-11-02T10:15:54Z</time>
      </trkpt>
      <trkpt lat="45.70278" lon="4.56357">
        <ele>871.57</ele>
        <time>2014-11-02T10:15:55Z</time>
      </trkpt>
      <trkpt lat="45.70273" lon="4.56359">
        <ele>871.57</ele>
        <time>2014-11-02T10:15:56Z</time>
      </trkpt>
      <trkpt lat="45.70246" lon="4.56363">
        <ele>872.53</ele>
        <time>2014-11-02T10:16:01Z</time>
      </trkpt>
      <trkpt lat="45.70236" lon="4.56363">
        <ele>872.53</ele>
        <time>2014-11-02T10:16:03Z</time>
      </trkpt>
      <trkpt lat="45.70231" lon="4.56363">
        <ele>873.01</ele>
        <time>2014-11-02T10:16:04Z</time>
      </trkpt>
      <trkpt lat="45.70227" lon="4.56363">
        <ele>873.01</ele>
        <time>2014-11-02T10:16:05Z</time>
      </trkpt>
      <trkpt lat="45.70222" lon="4.56364">
        <ele>873.5</ele>
        <time>2014-11-02T10:16:06Z</time>
      </trkpt>
      <trkpt lat="45.70217" lon="4.56365">
        <ele>873.98</ele>
        <time>2014-11-02T10:16:07Z</time>
      </trkpt>
      <trkpt lat="45.70213" lon="4.56366">
        <ele>873.98</ele>
        <time>2014-11-02T10:16:08Z</time>
      </trkpt>
      <trkpt lat="45.70204" lon="4.56367">
        <ele>874.46</ele>
        <time>2014-11-02T10:16:10Z</time>
      </trkpt>
      <trkpt lat="45.702" lon="4.5637">
        <ele>874.94</ele>
        <time>2014-11-02T10:16:11Z</time>
      </trkpt>
      <trkpt lat="45.70173" lon="4.56391">
        <ele>875.42</ele>
        <time>2014-11-02T10:16:21Z</time>
      </trkpt>
      <trkpt lat="45.70171" lon="4.56394">
        <ele>874.94</ele>
        <time>2014-11-02T10:16:22Z</time>
      </trkpt>
      <trkpt lat="45.70169" lon="4.56397">
        <ele>874.46</ele>
        <time>2014-11-02T10:16:23Z</time>
      </trkpt>
      <trkpt lat="45.70167" lon="4.56399">
        <ele>873.98</ele>
        <time>2014-11-02T10:16:24Z</time>
      </trkpt>
      <trkpt lat="45.70166" lon="4.56402">
        <ele>873.5</ele>
        <time>2014-11-02T10:16:25Z</time>
      </trkpt>
      <trkpt lat="45.70165" lon="4.56404">
        <ele>873.01</ele>
        <time>2014-11-02T10:16:26Z</time>
      </trkpt>
      <trkpt lat="45.70163" lon="4.56407">
        <ele>873.01</ele>
        <time>2014-11-02T10:16:27Z</time>
      </trkpt>
      <trkpt lat="45.70152" lon="4.56451">
        <ele>872.05</ele>
        <time>2014-11-02T10:16:40Z</time>
      </trkpt>
      <trkpt lat="45.70147" lon="4.56466">
        <ele>872.53</ele>
        <time>2014-11-02T10:16:44Z</time>
      </trkpt>
      <trkpt lat="45.70147" lon="4.56471">
        <ele>872.05</ele>
        <time>2014-11-02T10:16:45Z</time>
      </trkpt>
      <trkpt lat="45.70148" lon="4.56476">
        <ele>871.57</ele>
        <time>2014-11-02T10:16:46Z</time>
      </trkpt>
      <trkpt lat="45.70147" lon="4.56481">
        <ele>871.57</ele>
        <time>2014-11-02T10:16:47Z</time>
      </trkpt>
      <trkpt lat="45.70145" lon="4.56489">
        <ele>871.09</ele>
        <time>2014-11-02T10:16:48Z</time>
      </trkpt>
      <trkpt lat="45.70146" lon="4.56499">
        <ele>870.61</ele>
        <time>2014-11-02T10:16:49Z</time>
      </trkpt>
      <trkpt lat="45.70147" lon="4.56508">
        <ele>869.65</ele>
        <time>2014-11-02T10:16:50Z</time>
      </trkpt>
      <trkpt lat="45.7015" lon="4.56517">
        <ele>869.17</ele>
        <time>2014-11-02T10:16:51Z</time>
      </trkpt>
      <trkpt lat="45.70154" lon="4.56527">
        <ele>868.21</ele>
        <time>2014-11-02T10:16:52Z</time>
      </trkpt>
      <trkpt lat="45.7019" lon="4.56615">
        <ele>860.04</ele>
        <time>2014-11-02T10:17:00Z</time>
      </trkpt>
      <trkpt lat="45.70203" lon="4.56634">
        <ele>856.19</ele>
        <time>2014-11-02T10:17:03Z</time>
      </trkpt>
      <trkpt lat="45.70208" lon="4.56639">
        <ele>854.75</ele>
        <time>2014-11-02T10:17:04Z</time>
      </trkpt>
      <trkpt lat="45.70213" lon="4.56643">
        <ele>853.31</ele>
        <time>2014-11-02T10:17:05Z</time>
      </trkpt>
      <trkpt lat="45.7022" lon="4.56645">
        <ele>852.35</ele>
        <time>2014-11-02T10:17:06Z</time>
      </trkpt>
      <trkpt lat="45.70227" lon="4.56648">
        <ele>850.9</ele>
        <time>2014-11-02T10:17:07Z</time>
      </trkpt>
      <trkpt lat="45.70234" lon="4.56652">
        <ele>849.94</ele>
        <time>2014-11-02T10:17:08Z</time>
      </trkpt>
      <trkpt lat="45.7024" lon="4.56658">
        <ele>848.5</ele>
        <time>2014-11-02T10:17:09Z</time>
      </trkpt>
      <trkpt lat="45.70247" lon="4.56665">
        <ele>847.54</ele>
        <time>2014-11-02T10:17:10Z</time>
      </trkpt>
      <trkpt lat="45.70255" lon="4.56672">
        <ele>846.1</ele>
        <time>2014-11-02T10:17:11Z</time>
      </trkpt>
      <trkpt lat="45.70261" lon="4.56681">
        <ele>845.14</ele>
        <time>2014-11-02T10:17:12Z</time>
      </trkpt>
      <trkpt lat="45.70267" lon="4.5669">
        <ele>844.66</ele>
        <time>2014-11-02T10:17:13Z</time>
      </trkpt>
      <trkpt lat="45.70272" lon="4.56699">
        <ele>843.69</ele>
        <time>2014-11-02T10:17:14Z</time>
      </trkpt>
      <trkpt lat="45.70275" lon="4.56705">
        <ele>843.21</ele>
        <time>2014-11-02T10:17:15Z</time>
      </trkpt>
      <trkpt lat="45.70276" lon="4.5671">
        <ele>842.73</ele>
        <time>2014-11-02T10:17:16Z</time>
      </trkpt>
      <trkpt lat="45.70281" lon="4.5673">
        <ele>841.77</ele>
        <time>2014-11-02T10:17:20Z</time>
      </trkpt>
      <trkpt lat="45.70286" lon="4.56751">
        <ele>840.33</ele>
        <time>2014-11-02T10:17:23Z</time>
      </trkpt>
      <trkpt lat="45.70288" lon="4.56758">
        <ele>840.33</ele>
        <time>2014-11-02T10:17:24Z</time>
      </trkpt>
      <trkpt lat="45.70291" lon="4.56765">
        <ele>839.85</ele>
        <time>2014-11-02T10:17:25Z</time>
      </trkpt>
      <trkpt lat="45.70295" lon="4.56772">
        <ele>839.85</ele>
        <time>2014-11-02T10:17:26Z</time>
      </trkpt>
      <trkpt lat="45.703" lon="4.56779">
        <ele>839.37</ele>
        <time>2014-11-02T10:17:27Z</time>
      </trkpt>
      <trkpt lat="45.70304" lon="4.56786">
        <ele>839.37</ele>
        <time>2014-11-02T10:17:28Z</time>
      </trkpt>
      <trkpt lat="45.70308" lon="4.56794">
        <ele>838.41</ele>
        <time>2014-11-02T10:17:29Z</time>
      </trkpt>
      <trkpt lat="45.70319" lon="4.56819">
        <ele>837.93</ele>
        <time>2014-11-02T10:17:32Z</time>
      </trkpt>
      <trkpt lat="45.7032" lon="4.56827">
        <ele>837.93</ele>
        <time>2014-11-02T10:17:33Z</time>
      </trkpt>
      <trkpt lat="45.7032" lon="4.56836">
        <ele>837.93</ele>
        <time>2014-11-02T10:17:34Z</time>
      </trkpt>
      <trkpt lat="45.7032" lon="4.56844">
        <ele>837.93</ele>
        <time>2014-11-02T10:17:35Z</time>
      </trkpt>
      <trkpt lat="45.7032" lon="4.56852">
        <ele>837.93</ele>
        <time>2014-11-02T10:17:36Z</time>
      </trkpt>
      <trkpt lat="45.7032" lon="4.5686">
        <ele>837.93</ele>
        <time>2014-11-02T10:17:37Z</time>
      </trkpt>
      <trkpt lat="45.70321" lon="4.5687">
        <ele>837.93</ele>
        <time>2014-11-02T10:17:38Z</time>
      </trkpt>
      <trkpt lat="45.70336" lon="4.5698">
        <ele>836</ele>
        <time>2014-11-02T10:17:48Z</time>
      </trkpt>
      <trkpt lat="45.70345" lon="4.57048">
        <ele>833.6</ele>
        <time>2014-11-02T10:17:53Z</time>
      </trkpt>
      <trkpt lat="45.70356" lon="4.57098">
        <ele>831.2</ele>
        <time>2014-11-02T10:17:57Z</time>
      </trkpt>
      <trkpt lat="45.70359" lon="4.5711">
        <ele>830.24</ele>
        <time>2014-11-02T10:17:58Z</time>
      </trkpt>
      <trkpt lat="45.70369" lon="4.57203">
        <ele>824.47</ele>
        <time>2014-11-02T10:18:06Z</time>
      </trkpt>
      <trkpt lat="45.70368" lon="4.57215">
        <ele>823.51</ele>
        <time>2014-11-02T10:18:07Z</time>
      </trkpt>
      <trkpt lat="45.70367" lon="4.57228">
        <ele>822.55</ele>
        <time>2014-11-02T10:18:08Z</time>
      </trkpt>
      <trkpt lat="45.70366" lon="4.57335">
        <ele>814.37</ele>
        <time>2014-11-02T10:18:16Z</time>
      </trkpt>
      <trkpt lat="45.70364" lon="4.57348">
        <ele>812.93</ele>
        <time>2014-11-02T10:18:17Z</time>
      </trkpt>
      <trkpt lat="45.70361" lon="4.57373">
        <ele>811.49</ele>
        <time>2014-11-02T10:18:19Z</time>
      </trkpt>
      <trkpt lat="45.70361" lon="4.57387">
        <ele>810.53</ele>
        <time>2014-11-02T10:18:20Z</time>
      </trkpt>
      <trkpt lat="45.70368" lon="4.57462">
        <ele>807.16</ele>
        <time>2014-11-02T10:18:26Z</time>
      </trkpt>
      <trkpt lat="45.7037" lon="4.57473">
        <ele>806.68</ele>
        <time>2014-11-02T10:18:27Z</time>
      </trkpt>
      <trkpt lat="45.70377" lon="4.57507">
        <ele>805.24</ele>
        <time>2014-11-02T10:18:30Z</time>
      </trkpt>
      <trkpt lat="45.70388" lon="4.57538">
        <ele>803.32</ele>
        <time>2014-11-02T10:18:33Z</time>
      </trkpt>
      <trkpt lat="45.7039" lon="4.57548">
        <ele>802.84</ele>
        <time>2014-11-02T10:18:34Z</time>
      </trkpt>
      <trkpt lat="45.70399" lon="4.57589">
        <ele>799.47</ele>
        <time>2014-11-02T10:18:38Z</time>
      </trkpt>
      <trkpt lat="45.70401" lon="4.57595">
        <ele>798.51</ele>
        <time>2014-11-02T10:18:39Z</time>
      </trkpt>
      <trkpt lat="45.70405" lon="4.57601">
        <ele>797.07</ele>
        <time>2014-11-02T10:18:40Z</time>
      </trkpt>
      <trkpt lat="45.7041" lon="4.57606">
        <ele>796.11</ele>
        <time>2014-11-02T10:18:41Z</time>
      </trkpt>
      <trkpt lat="45.70415" lon="4.57612">
        <ele>795.15</ele>
        <time>2014-11-02T10:18:42Z</time>
      </trkpt>
      <trkpt lat="45.70432" lon="4.57632">
        <ele>792.26</ele>
        <time>2014-11-02T10:18:45Z</time>
      </trkpt>
      <trkpt lat="45.70438" lon="4.57641">
        <ele>791.3</ele>
        <time>2014-11-02T10:18:46Z</time>
      </trkpt>
      <trkpt lat="45.70443" lon="4.57652">
        <ele>789.86</ele>
        <time>2014-11-02T10:18:47Z</time>
      </trkpt>
      <trkpt lat="45.70448" lon="4.57664">
        <ele>788.9</ele>
        <time>2014-11-02T10:18:48Z</time>
      </trkpt>
      <trkpt lat="45.70454" lon="4.57676">
        <ele>787.46</ele>
        <time>2014-11-02T10:18:49Z</time>
      </trkpt>
      <trkpt lat="45.70473" lon="4.5771">
        <ele>780.73</ele>
        <time>2014-11-02T10:18:55Z</time>
      </trkpt>
      <trkpt lat="45.70479" lon="4.57712">
        <ele>777.84</ele>
        <time>2014-11-02T10:19:07Z</time>
      </trkpt>
      <trkpt lat="45.70479" lon="4.57713">
        <ele>776.4</ele>
        <time>2014-11-02T10:19:32Z</time>
      </trkpt>
      <trkpt lat="45.7048" lon="4.57713">
        <ele>776.88</ele>
        <time>2014-11-02T10:19:51Z</time>
      </trkpt>
      <trkpt lat="45.7048" lon="4.57714">
        <ele>778.32</ele>
        <time>2014-11-02T10:20:23Z</time>
      </trkpt>
      <trkpt lat="45.70481" lon="4.57716">
        <ele>779.77</ele>
        <time>2014-11-02T10:20:46Z</time>
      </trkpt>
      <trkpt lat="45.70482" lon="4.57716">
        <ele>777.84</ele>
        <time>2014-11-02T10:21:09Z</time>
      </trkpt>
      <trkpt lat="45.70481" lon="4.57717">
        <ele>777.84</ele>
        <time>2014-11-02T10:21:36Z</time>
      </trkpt>
      <trkpt lat="45.70481" lon="4.57716">
        <ele>777.84</ele>
        <time>2014-11-02T10:22:05Z</time>
      </trkpt>
      <trkpt lat="45.70482" lon="4.57718">
        <ele>778.32</ele>
        <time>2014-11-02T10:22:34Z</time>
      </trkpt>
      <trkpt lat="45.70482" lon="4.5772">
        <ele>778.32</ele>
        <time>2014-11-02T10:22:59Z</time>
      </trkpt>
      <trkpt lat="45.70481" lon="4.57719">
        <ele>778.81</ele>
        <time>2014-11-02T10:23:19Z</time>
      </trkpt>
      <trkpt lat="45.70482" lon="4.5772">
        <ele>778.81</ele>
        <time>2014-11-02T10:23:20Z</time>
      </trkpt>
      <trkpt lat="45.70499" lon="4.57756">
        <ele>777.36</ele>
        <time>2014-11-02T10:23:28Z</time>
      </trkpt>
      <trkpt lat="45.70544" lon="4.5784">
        <ele>770.63</ele>
        <time>2014-11-02T10:23:38Z</time>
      </trkpt>
      <trkpt lat="45.70609" lon="4.57957">
        <ele>760.06</ele>
        <time>2014-11-02T10:23:48Z</time>
      </trkpt>
      <trkpt lat="45.70662" lon="4.58091">
        <ele>748.52</ele>
        <time>2014-11-02T10:23:58Z</time>
      </trkpt>
      <trkpt lat="45.70695" lon="4.58229">
        <ele>738.43</ele>
        <time>2014-11-02T10:24:07Z</time>
      </trkpt>
      <trkpt lat="45.70696" lon="4.58245">
        <ele>736.99</ele>
        <time>2014-11-02T10:24:08Z</time>
      </trkpt>
      <trkpt lat="45.7069" lon="4.58342">
        <ele>731.22</ele>
        <time>2014-11-02T10:24:14Z</time>
      </trkpt>
      <trkpt lat="45.70687" lon="4.58357">
        <ele>730.74</ele>
        <time>2014-11-02T10:24:15Z</time>
      </trkpt>
      <trkpt lat="45.70677" lon="4.5844">
        <ele>728.82</ele>
        <time>2014-11-02T10:24:23Z</time>
      </trkpt>
      <trkpt lat="45.70676" lon="4.58448">
        <ele>728.82</ele>
        <time>2014-11-02T10:24:24Z</time>
      </trkpt>
      <trkpt lat="45.70674" lon="4.58455">
        <ele>728.34</ele>
        <time>2014-11-02T10:24:25Z</time>
      </trkpt>
      <trkpt lat="45.70669" lon="4.58479">
        <ele>728.34</ele>
        <time>2014-11-02T10:24:29Z</time>
      </trkpt>
      <trkpt lat="45.70669" lon="4.58485">
        <ele>728.34</ele>
        <time>2014-11-02T10:24:30Z</time>
      </trkpt>
      <trkpt lat="45.70678" lon="4.58516">
        <ele>727.37</ele>
        <time>2014-11-02T10:24:35Z</time>
      </trkpt>
      <trkpt lat="45.70679" lon="4.58523">
        <ele>727.37</ele>
        <time>2014-11-02T10:24:36Z</time>
      </trkpt>
      <trkpt lat="45.70689" lon="4.5864">
        <ele>725.93</ele>
        <time>2014-11-02T10:24:51Z</time>
      </trkpt>
      <trkpt lat="45.70688" lon="4.58646">
        <ele>725.45</ele>
        <time>2014-11-02T10:24:52Z</time>
      </trkpt>
      <trkpt lat="45.70686" lon="4.58651">
        <ele>724.97</ele>
        <time>2014-11-02T10:24:53Z</time>
      </trkpt>
      <trkpt lat="45.70683" lon="4.58655">
        <ele>724.97</ele>
        <time>2014-11-02T10:24:54Z</time>
      </trkpt>
      <trkpt lat="45.7068" lon="4.58655">
        <ele>724.97</ele>
        <time>2014-11-02T10:24:55Z</time>
      </trkpt>
      <trkpt lat="45.70677" lon="4.58656">
        <ele>724.49</ele>
        <time>2014-11-02T10:24:56Z</time>
      </trkpt>
      <trkpt lat="45.70674" lon="4.58657">
        <ele>724.49</ele>
        <time>2014-11-02T10:24:57Z</time>
      </trkpt>
      <trkpt lat="45.70666" lon="4.58659">
        <ele>724.49</ele>
        <time>2014-11-02T10:25:00Z</time>
      </trkpt>
      <trkpt lat="45.70664" lon="4.5866">
        <ele>724.97</ele>
        <time>2014-11-02T10:25:01Z</time>
      </trkpt>
      <trkpt lat="45.70662" lon="4.58663">
        <ele>724.97</ele>
        <time>2014-11-02T10:25:02Z</time>
      </trkpt>
      <trkpt lat="45.70661" lon="4.58666">
        <ele>724.97</ele>
        <time>2014-11-02T10:25:03Z</time>
      </trkpt>
      <trkpt lat="45.7066" lon="4.58669">
        <ele>725.45</ele>
        <time>2014-11-02T10:25:04Z</time>
      </trkpt>
      <trkpt lat="45.7066" lon="4.58672">
        <ele>725.93</ele>
        <time>2014-11-02T10:25:05Z</time>
      </trkpt>
      <trkpt lat="45.70661" lon="4.58675">
        <ele>726.41</ele>
        <time>2014-11-02T10:25:06Z</time>
      </trkpt>
      <trkpt lat="45.70662" lon="4.58679">
        <ele>726.89</ele>
        <time>2014-11-02T10:25:07Z</time>
      </trkpt>
      <trkpt lat="45.70662" lon="4.58683">
        <ele>727.37</ele>
        <time>2014-11-02T10:25:08Z</time>
      </trkpt>
      <trkpt lat="45.70663" lon="4.58687">
        <ele>727.86</ele>
        <time>2014-11-02T10:25:09Z</time>
      </trkpt>
      <trkpt lat="45.70665" lon="4.58738">
        <ele>731.22</ele>
        <time>2014-11-02T10:25:21Z</time>
      </trkpt>
      <trkpt lat="45.70655" lon="4.58798">
        <ele>734.58</ele>
        <time>2014-11-02T10:25:33Z</time>
      </trkpt>
      <trkpt lat="45.70634" lon="4.58833">
        <ele>735.55</ele>
        <time>2014-11-02T10:25:42Z</time>
      </trkpt>
      <trkpt lat="45.70632" lon="4.58838">
        <ele>735.55</ele>
        <time>2014-11-02T10:25:43Z</time>
      </trkpt>
      <trkpt lat="45.70631" lon="4.58845">
        <ele>735.07</ele>
        <time>2014-11-02T10:25:44Z</time>
      </trkpt>
      <trkpt lat="45.70626" lon="4.58868">
        <ele>733.62</ele>
        <time>2014-11-02T10:25:47Z</time>
      </trkpt>
      <trkpt lat="45.70625" lon="4.58877">
        <ele>733.14</ele>
        <time>2014-11-02T10:25:48Z</time>
      </trkpt>
      <trkpt lat="45.70625" lon="4.58904">
        <ele>732.18</ele>
        <time>2014-11-02T10:25:51Z</time>
      </trkpt>
      <trkpt lat="45.70626" lon="4.58913">
        <ele>731.7</ele>
        <time>2014-11-02T10:25:52Z</time>
      </trkpt>
      <trkpt lat="45.70634" lon="4.58955">
        <ele>730.26</ele>
        <time>2014-11-02T10:25:57Z</time>
      </trkpt>
      <trkpt lat="45.70639" lon="4.59028">
        <ele>729.78</ele>
        <time>2014-11-02T10:26:06Z</time>
      </trkpt>
      <trkpt lat="45.70638" lon="4.59037">
        <ele>729.78</ele>
        <time>2014-11-02T10:26:07Z</time>
      </trkpt>
      <trkpt lat="45.7063" lon="4.59102">
        <ele>731.7</ele>
        <time>2014-11-02T10:26:15Z</time>
      </trkpt>
      <trkpt lat="45.70615" lon="4.5915">
        <ele>734.58</ele>
        <time>2014-11-02T10:26:24Z</time>
      </trkpt>
      <trkpt lat="45.7059" lon="4.5919">
        <ele>735.07</ele>
        <time>2014-11-02T10:26:33Z</time>
      </trkpt>
      <trkpt lat="45.70585" lon="4.59199">
        <ele>735.07</ele>
        <time>2014-11-02T10:26:35Z</time>
      </trkpt>
      <trkpt lat="45.70556" lon="4.59249">
        <ele>736.03</ele>
        <time>2014-11-02T10:26:46Z</time>
      </trkpt>
      <trkpt lat="45.70553" lon="4.59253">
        <ele>736.03</ele>
        <time>2014-11-02T10:26:47Z</time>
      </trkpt>
      <trkpt lat="45.70551" lon="4.59256">
        <ele>736.03</ele>
        <time>2014-11-02T10:26:48Z</time>
      </trkpt>
      <trkpt lat="45.70544" lon="4.59278">
        <ele>735.07</ele>
        <time>2014-11-02T10:26:53Z</time>
      </trkpt>
      <trkpt lat="45.70542" lon="4.59283">
        <ele>735.07</ele>
        <time>2014-11-02T10:26:54Z</time>
      </trkpt>
      <trkpt lat="45.70541" lon="4.59288">
        <ele>734.58</ele>
        <time>2014-11-02T10:26:55Z</time>
      </trkpt>
      <trkpt lat="45.70539" lon="4.59301">
        <ele>732.18</ele>
        <time>2014-11-02T10:27:03Z</time>
      </trkpt>
      <trkpt lat="45.70538" lon="4.59303">
        <ele>732.18</ele>
        <time>2014-11-02T10:27:06Z</time>
      </trkpt>
      <trkpt lat="45.70537" lon="4.59304">
        <ele>732.18</ele>
        <time>2014-11-02T10:27:07Z</time>
      </trkpt>
      <trkpt lat="45.70498" lon="4.59313">
        <ele>734.58</ele>
        <time>2014-11-02T10:27:19Z</time>
      </trkpt>
      <trkpt lat="45.7049" lon="4.59314">
        <ele>735.07</ele>
        <time>2014-11-02T10:27:21Z</time>
      </trkpt>
      <trkpt lat="45.70486" lon="4.59315">
        <ele>735.55</ele>
        <time>2014-11-02T10:27:22Z</time>
      </trkpt>
      <trkpt lat="45.70455" lon="4.59333">
        <ele>737.47</ele>
        <time>2014-11-02T10:27:33Z</time>
      </trkpt>
      <trkpt lat="45.70441" lon="4.59374">
        <ele>737.95</ele>
        <time>2014-11-02T10:27:45Z</time>
      </trkpt>
      <trkpt lat="45.70425" lon="4.59416">
        <ele>740.35</ele>
        <time>2014-11-02T10:27:58Z</time>
      </trkpt>
      <trkpt lat="45.7042" lon="4.59428">
        <ele>742.76</ele>
        <time>2014-11-02T10:28:03Z</time>
      </trkpt>
      <trkpt lat="45.70419" lon="4.5943">
        <ele>743.24</ele>
        <time>2014-11-02T10:28:04Z</time>
      </trkpt>
      <trkpt lat="45.70418" lon="4.59433">
        <ele>743.72</ele>
        <time>2014-11-02T10:28:05Z</time>
      </trkpt>
      <trkpt lat="45.70415" lon="4.59441">
        <ele>744.68</ele>
        <time>2014-11-02T10:28:09Z</time>
      </trkpt>
      <trkpt lat="45.70414" lon="4.59442">
        <ele>745.16</ele>
        <time>2014-11-02T10:28:10Z</time>
      </trkpt>
      <trkpt lat="45.70413" lon="4.59444">
        <ele>745.64</ele>
        <time>2014-11-02T10:28:11Z</time>
      </trkpt>
      <trkpt lat="45.70413" lon="4.59446">
        <ele>745.64</ele>
        <time>2014-11-02T10:28:12Z</time>
      </trkpt>
      <trkpt lat="45.70412" lon="4.59447">
        <ele>746.12</ele>
        <time>2014-11-02T10:28:13Z</time>
      </trkpt>
      <trkpt lat="45.70412" lon="4.59449">
        <ele>746.6</ele>
        <time>2014-11-02T10:28:14Z</time>
      </trkpt>
      <trkpt lat="45.70411" lon="4.59451">
        <ele>747.08</ele>
        <time>2014-11-02T10:28:15Z</time>
      </trkpt>
      <trkpt lat="45.7041" lon="4.59453">
        <ele>747.08</ele>
        <time>2014-11-02T10:28:16Z</time>
      </trkpt>
      <trkpt lat="45.7041" lon="4.59455">
        <ele>747.56</ele>
        <time>2014-11-02T10:28:17Z</time>
      </trkpt>
      <trkpt lat="45.70409" lon="4.59456">
        <ele>748.04</ele>
        <time>2014-11-02T10:28:18Z</time>
      </trkpt>
      <trkpt lat="45.70408" lon="4.59458">
        <ele>748.52</ele>
        <time>2014-11-02T10:28:19Z</time>
      </trkpt>
      <trkpt lat="45.70408" lon="4.5946">
        <ele>749</ele>
        <time>2014-11-02T10:28:20Z</time>
      </trkpt>
      <trkpt lat="45.70407" lon="4.59462">
        <ele>749</ele>
        <time>2014-11-02T10:28:21Z</time>
      </trkpt>
      <trkpt lat="45.70407" lon="4.59463">
        <ele>749.49</ele>
        <time>2014-11-02T10:28:22Z</time>
      </trkpt>
      <trkpt lat="45.70406" lon="4.59465">
        <ele>749.97</ele>
        <time>2014-11-02T10:28:23Z</time>
      </trkpt>
      <trkpt lat="45.70406" lon="4.59467">
        <ele>749.97</ele>
        <time>2014-11-02T10:28:24Z</time>
      </trkpt>
      <trkpt lat="45.70405" lon="4.59469">
        <ele>749.97</ele>
        <time>2014-11-02T10:28:25Z</time>
      </trkpt>
      <trkpt lat="45.70404" lon="4.59471">
        <ele>750.45</ele>
        <time>2014-11-02T10:28:26Z</time>
      </trkpt>
      <trkpt lat="45.70404" lon="4.59473">
        <ele>750.93</ele>
        <time>2014-11-02T10:28:27Z</time>
      </trkpt>
      <trkpt lat="45.70397" lon="4.59504">
        <ele>751.89</ele>
        <time>2014-11-02T10:28:39Z</time>
      </trkpt>
      <trkpt lat="45.70397" lon="4.59507">
        <ele>751.41</ele>
        <time>2014-11-02T10:28:40Z</time>
      </trkpt>
      <trkpt lat="45.70393" lon="4.5954">
        <ele>751.89</ele>
        <time>2014-11-02T10:28:52Z</time>
      </trkpt>
      <trkpt lat="45.70392" lon="4.59543">
        <ele>751.89</ele>
        <time>2014-11-02T10:28:53Z</time>
      </trkpt>
      <trkpt lat="45.70391" lon="4.59545">
        <ele>752.37</ele>
        <time>2014-11-02T10:28:54Z</time>
      </trkpt>
      <trkpt lat="45.70389" lon="4.5956">
        <ele>753.81</ele>
        <time>2014-11-02T10:29:00Z</time>
      </trkpt>
      <trkpt lat="45.70388" lon="4.59562">
        <ele>753.81</ele>
        <time>2014-11-02T10:29:01Z</time>
      </trkpt>
      <trkpt lat="45.70387" lon="4.59564">
        <ele>754.29</ele>
        <time>2014-11-02T10:29:02Z</time>
      </trkpt>
      <trkpt lat="45.70387" lon="4.59565">
        <ele>754.77</ele>
        <time>2014-11-02T10:29:03Z</time>
      </trkpt>
      <trkpt lat="45.70386" lon="4.59567">
        <ele>755.25</ele>
        <time>2014-11-02T10:29:04Z</time>
      </trkpt>
      <trkpt lat="45.70386" lon="4.59572">
        <ele>756.21</ele>
        <time>2014-11-02T10:29:07Z</time>
      </trkpt>
      <trkpt lat="45.70391" lon="4.59583">
        <ele>759.1</ele>
        <time>2014-11-02T10:29:17Z</time>
      </trkpt>
      <trkpt lat="45.70401" lon="4.5959">
        <ele>761.98</ele>
        <time>2014-11-02T10:29:26Z</time>
      </trkpt>
      <trkpt lat="45.70416" lon="4.59599">
        <ele>765.35</ele>
        <time>2014-11-02T10:29:38Z</time>
      </trkpt>
      <trkpt lat="45.7042" lon="4.59606">
        <ele>766.79</ele>
        <time>2014-11-02T10:29:43Z</time>
      </trkpt>
      <trkpt lat="45.70424" lon="4.5961">
        <ele>767.27</ele>
        <time>2014-11-02T10:29:45Z</time>
      </trkpt>
      <trkpt lat="45.70426" lon="4.59613">
        <ele>767.27</ele>
        <time>2014-11-02T10:29:46Z</time>
      </trkpt>
      <trkpt lat="45.70436" lon="4.59621">
        <ele>765.35</ele>
        <time>2014-11-02T10:29:57Z</time>
      </trkpt>
      <trkpt lat="45.70437" lon="4.59622">
        <ele>767.27</ele>
        <time>2014-11-02T10:30:24Z</time>
      </trkpt>
      <trkpt lat="45.70443" lon="4.59631">
        <ele>765.83</ele>
        <time>2014-11-02T10:30:40Z</time>
      </trkpt>
      <trkpt lat="45.70449" lon="4.5965">
        <ele>765.35</ele>
        <time>2014-11-02T10:30:45Z</time>
      </trkpt>
      <trkpt lat="45.7045" lon="4.59652">
        <ele>765.35</ele>
        <time>2014-11-02T10:30:46Z</time>
      </trkpt>
      <trkpt lat="45.70462" lon="4.59698">
        <ele>764.87</ele>
        <time>2014-11-02T10:30:56Z</time>
      </trkpt>
      <trkpt lat="45.70464" lon="4.59711">
        <ele>763.9</ele>
        <time>2014-11-02T10:30:58Z</time>
      </trkpt>
      <trkpt lat="45.70465" lon="4.59718">
        <ele>763.9</ele>
        <time>2014-11-02T10:30:59Z</time>
      </trkpt>
      <trkpt lat="45.70467" lon="4.59724">
        <ele>763.9</ele>
        <time>2014-11-02T10:31:00Z</time>
      </trkpt>
      <trkpt lat="45.70478" lon="4.59779">
        <ele>761.98</ele>
        <time>2014-11-02T10:31:11Z</time>
      </trkpt>
      <trkpt lat="45.70483" lon="4.59833">
        <ele>761.02</ele>
        <time>2014-11-02T10:31:22Z</time>
      </trkpt>
      <trkpt lat="45.70484" lon="4.59883">
        <ele>760.06</ele>
        <time>2014-11-02T10:31:30Z</time>
      </trkpt>
      <trkpt lat="45.70483" lon="4.59891">
        <ele>759.58</ele>
        <time>2014-11-02T10:31:31Z</time>
      </trkpt>
      <trkpt lat="45.70478" lon="4.5992">
        <ele>758.14</ele>
        <time>2014-11-02T10:31:35Z</time>
      </trkpt>
      <trkpt lat="45.70475" lon="4.59935">
        <ele>758.14</ele>
        <time>2014-11-02T10:31:37Z</time>
      </trkpt>
      <trkpt lat="45.70467" lon="4.59964">
        <ele>756.21</ele>
        <time>2014-11-02T10:31:42Z</time>
      </trkpt>
      <trkpt lat="45.70465" lon="4.5997">
        <ele>756.21</ele>
        <time>2014-11-02T10:31:43Z</time>
      </trkpt>
      <trkpt lat="45.70455" lon="4.60014">
        <ele>753.33</ele>
        <time>2014-11-02T10:31:52Z</time>
      </trkpt>
      <trkpt lat="45.70451" lon="4.60063">
        <ele>752.37</ele>
        <time>2014-11-02T10:32:00Z</time>
      </trkpt>
      <trkpt lat="45.70451" lon="4.6007">
        <ele>752.37</ele>
        <time>2014-11-02T10:32:01Z</time>
      </trkpt>
      <trkpt lat="45.70451" lon="4.60076">
        <ele>752.37</ele>
        <time>2014-11-02T10:32:02Z</time>
      </trkpt>
      <trkpt lat="45.70457" lon="4.60155">
        <ele>756.69</ele>
        <time>2014-11-02T10:32:14Z</time>
      </trkpt>
      <trkpt lat="45.70465" lon="4.60209">
        <ele>763.9</ele>
        <time>2014-11-02T10:32:22Z</time>
      </trkpt>
      <trkpt lat="45.70465" lon="4.60215">
        <ele>764.87</ele>
        <time>2014-11-02T10:32:23Z</time>
      </trkpt>
      <trkpt lat="45.70465" lon="4.6022">
        <ele>765.35</ele>
        <time>2014-11-02T10:32:24Z</time>
      </trkpt>
      <trkpt lat="45.70466" lon="4.60224">
        <ele>765.83</ele>
        <time>2014-11-02T10:32:25Z</time>
      </trkpt>
      <trkpt lat="45.70465" lon="4.60228">
        <ele>766.31</ele>
        <time>2014-11-02T10:32:26Z</time>
      </trkpt>
      <trkpt lat="45.70465" lon="4.60231">
        <ele>766.79</ele>
        <time>2014-11-02T10:32:27Z</time>
      </trkpt>
      <trkpt lat="45.70465" lon="4.60235">
        <ele>767.27</ele>
        <time>2014-11-02T10:32:28Z</time>
      </trkpt>
      <trkpt lat="45.70466" lon="4.60248">
        <ele>768.71</ele>
        <time>2014-11-02T10:32:32Z</time>
      </trkpt>
      <trkpt lat="45.70467" lon="4.60284">
        <ele>769.67</ele>
        <time>2014-11-02T10:32:43Z</time>
      </trkpt>
      <trkpt lat="45.70468" lon="4.60288">
        <ele>769.67</ele>
        <time>2014-11-02T10:32:44Z</time>
      </trkpt>
      <trkpt lat="45.70468" lon="4.60292">
        <ele>770.15</ele>
        <time>2014-11-02T10:32:45Z</time>
      </trkpt>
      <trkpt lat="45.70468" lon="4.60296">
        <ele>770.63</ele>
        <time>2014-11-02T10:32:46Z</time>
      </trkpt>
      <trkpt lat="45.70469" lon="4.60299">
        <ele>770.15</ele>
        <time>2014-11-02T10:32:47Z</time>
      </trkpt>
      <trkpt lat="45.7047" lon="4.60302">
        <ele>770.15</ele>
        <time>2014-11-02T10:32:48Z</time>
      </trkpt>
      <trkpt lat="45.7047" lon="4.60305">
        <ele>770.15</ele>
        <time>2014-11-02T10:32:49Z</time>
      </trkpt>
      <trkpt lat="45.7047" lon="4.60308">
        <ele>770.15</ele>
        <time>2014-11-02T10:32:50Z</time>
      </trkpt>
      <trkpt lat="45.7047" lon="4.60312">
        <ele>770.63</ele>
        <time>2014-11-02T10:32:51Z</time>
      </trkpt>
      <trkpt lat="45.70471" lon="4.60315">
        <ele>770.63</ele>
        <time>2014-11-02T10:32:52Z</time>
      </trkpt>
      <trkpt lat="45.70472" lon="4.60318">
        <ele>771.11</ele>
        <time>2014-11-02T10:32:53Z</time>
      </trkpt>
      <trkpt lat="45.70471" lon="4.60321">
        <ele>771.11</ele>
        <time>2014-11-02T10:32:54Z</time>
      </trkpt>
      <trkpt lat="45.70471" lon="4.60325">
        <ele>771.6</ele>
        <time>2014-11-02T10:32:55Z</time>
      </trkpt>
      <trkpt lat="45.70472" lon="4.60329">
        <ele>771.6</ele>
        <time>2014-11-02T10:32:56Z</time>
      </trkpt>
      <trkpt lat="45.70472" lon="4.60351">
        <ele>773.52</ele>
        <time>2014-11-02T10:33:03Z</time>
      </trkpt>
      <trkpt lat="45.70473" lon="4.60354">
        <ele>774</ele>
        <time>2014-11-02T10:33:04Z</time>
      </trkpt>
      <trkpt lat="45.70483" lon="4.60399">
        <ele>774</ele>
        <time>2014-11-02T10:33:15Z</time>
      </trkpt>
      <trkpt lat="45.70489" lon="4.60425">
        <ele>773.04</ele>
        <time>2014-11-02T10:33:20Z</time>
      </trkpt>
      <trkpt lat="45.70492" lon="4.60474">
        <ele>770.63</ele>
        <time>2014-11-02T10:33:30Z</time>
      </trkpt>
      <trkpt lat="45.70487" lon="4.60514">
        <ele>771.6</ele>
        <time>2014-11-02T10:33:40Z</time>
      </trkpt>
      <trkpt lat="45.7048" lon="4.60573">
        <ele>773.04</ele>
        <time>2014-11-02T10:33:52Z</time>
      </trkpt>
      <trkpt lat="45.70476" lon="4.60589">
        <ele>773.04</ele>
        <time>2014-11-02T10:33:56Z</time>
      </trkpt>
      <trkpt lat="45.70476" lon="4.60593">
        <ele>773.04</ele>
        <time>2014-11-02T10:33:57Z</time>
      </trkpt>
      <trkpt lat="45.70468" lon="4.60632">
        <ele>770.63</ele>
        <time>2014-11-02T10:34:05Z</time>
      </trkpt>
      <trkpt lat="45.70467" lon="4.60634">
        <ele>770.63</ele>
        <time>2014-11-02T10:34:06Z</time>
      </trkpt>
      <trkpt lat="45.70459" lon="4.60645">
        <ele>767.75</ele>
        <time>2014-11-02T10:34:17Z</time>
      </trkpt>
      <trkpt lat="45.70458" lon="4.60646">
        <ele>769.19</ele>
        <time>2014-11-02T10:34:45Z</time>
      </trkpt>
      <trkpt lat="45.70457" lon="4.60648">
        <ele>769.67</ele>
        <time>2014-11-02T10:35:08Z</time>
      </trkpt>
      <trkpt lat="45.70457" lon="4.60648">
        <ele>770.15</ele>
        <time>2014-11-02T10:35:10Z</time>
      </trkpt>
      <trkpt lat="45.70456" lon="4.60649">
        <ele>770.15</ele>
        <time>2014-11-02T10:35:11Z</time>
      </trkpt>
      <trkpt lat="45.70454" lon="4.60651">
        <ele>770.15</ele>
        <time>2014-11-02T10:35:12Z</time>
      </trkpt>
      <trkpt lat="45.70434" lon="4.60681">
        <ele>770.63</ele>
        <time>2014-11-02T10:35:20Z</time>
      </trkpt>
      <trkpt lat="45.70424" lon="4.60694">
        <ele>770.63</ele>
        <time>2014-11-02T10:35:23Z</time>
      </trkpt>
      <trkpt lat="45.7042" lon="4.60699">
        <ele>770.63</ele>
        <time>2014-11-02T10:35:24Z</time>
      </trkpt>
      <trkpt lat="45.70417" lon="4.60704">
        <ele>770.63</ele>
        <time>2014-11-02T10:35:25Z</time>
      </trkpt>
      <trkpt lat="45.70413" lon="4.60709">
        <ele>770.63</ele>
        <time>2014-11-02T10:35:26Z</time>
      </trkpt>
      <trkpt lat="45.70408" lon="4.60713">
        <ele>770.15</ele>
        <time>2014-11-02T10:35:27Z</time>
      </trkpt>
      <trkpt lat="45.70404" lon="4.60715">
        <ele>770.15</ele>
        <time>2014-11-02T10:35:28Z</time>
      </trkpt>
      <trkpt lat="45.704" lon="4.60716">
        <ele>769.67</ele>
        <time>2014-11-02T10:35:29Z</time>
      </trkpt>
      <trkpt lat="45.70395" lon="4.60718">
        <ele>769.67</ele>
        <time>2014-11-02T10:35:30Z</time>
      </trkpt>
      <trkpt lat="45.70352" lon="4.60728">
        <ele>769.19</ele>
        <time>2014-11-02T10:35:41Z</time>
      </trkpt>
      <trkpt lat="45.70331" lon="4.60732">
        <ele>769.19</ele>
        <time>2014-11-02T10:35:46Z</time>
      </trkpt>
      <trkpt lat="45.70326" lon="4.60733">
        <ele>769.19</ele>
        <time>2014-11-02T10:35:47Z</time>
      </trkpt>
      <trkpt lat="45.70322" lon="4.60734">
        <ele>769.19</ele>
        <time>2014-11-02T10:35:48Z</time>
      </trkpt>
      <trkpt lat="45.70319" lon="4.60734">
        <ele>769.19</ele>
        <time>2014-11-02T10:35:49Z</time>
      </trkpt>
      <trkpt lat="45.70314" lon="4.60735">
        <ele>769.19</ele>
        <time>2014-11-02T10:35:50Z</time>
      </trkpt>
      <trkpt lat="45.7031" lon="4.60735">
        <ele>769.19</ele>
        <time>2014-11-02T10:35:51Z</time>
      </trkpt>
      <trkpt lat="45.70263" lon="4.6074">
        <ele>771.11</ele>
        <time>2014-11-02T10:36:03Z</time>
      </trkpt>
      <trkpt lat="45.7026" lon="4.60739">
        <ele>770.63</ele>
        <time>2014-11-02T10:36:04Z</time>
      </trkpt>
      <trkpt lat="45.70257" lon="4.60739">
        <ele>770.63</ele>
        <time>2014-11-02T10:36:05Z</time>
      </trkpt>
      <trkpt lat="45.70254" lon="4.6074">
        <ele>770.63</ele>
        <time>2014-11-02T10:36:06Z</time>
      </trkpt>
      <trkpt lat="45.7025" lon="4.6074">
        <ele>770.63</ele>
        <time>2014-11-02T10:36:07Z</time>
      </trkpt>
      <trkpt lat="45.70247" lon="4.60741">
        <ele>770.15</ele>
        <time>2014-11-02T10:36:08Z</time>
      </trkpt>
      <trkpt lat="45.70245" lon="4.60742">
        <ele>770.15</ele>
        <time>2014-11-02T10:36:09Z</time>
      </trkpt>
      <trkpt lat="45.70224" lon="4.60747">
        <ele>772.56</ele>
        <time>2014-11-02T10:36:18Z</time>
      </trkpt>
      <trkpt lat="45.70223" lon="4.60749">
        <ele>773.04</ele>
        <time>2014-11-02T10:36:19Z</time>
      </trkpt>
      <trkpt lat="45.70224" lon="4.60755">
        <ele>774</ele>
        <time>2014-11-02T10:36:26Z</time>
      </trkpt>
      <trkpt lat="45.70226" lon="4.60755">
        <ele>774</ele>
        <time>2014-11-02T10:36:27Z</time>
      </trkpt>
      <trkpt lat="45.70228" lon="4.60756">
        <ele>774</ele>
        <time>2014-11-02T10:36:28Z</time>
      </trkpt>
      <trkpt lat="45.7023" lon="4.60757">
        <ele>774</ele>
        <time>2014-11-02T10:36:29Z</time>
      </trkpt>
      <trkpt lat="45.70231" lon="4.60759">
        <ele>774</ele>
        <time>2014-11-02T10:36:30Z</time>
      </trkpt>
      <trkpt lat="45.70249" lon="4.60782">
        <ele>772.08</ele>
        <time>2014-11-02T10:36:37Z</time>
      </trkpt>
      <trkpt lat="45.70252" lon="4.60788">
        <ele>771.6</ele>
        <time>2014-11-02T10:36:38Z</time>
      </trkpt>
      <trkpt lat="45.70255" lon="4.60794">
        <ele>771.11</ele>
        <time>2014-11-02T10:36:39Z</time>
      </trkpt>
      <trkpt lat="45.70262" lon="4.60809">
        <ele>769.19</ele>
        <time>2014-11-02T10:36:42Z</time>
      </trkpt>
      <trkpt lat="45.70265" lon="4.60815">
        <ele>768.71</ele>
        <time>2014-11-02T10:36:43Z</time>
      </trkpt>
      <trkpt lat="45.70266" lon="4.6082">
        <ele>767.75</ele>
        <time>2014-11-02T10:36:44Z</time>
      </trkpt>
      <trkpt lat="45.70267" lon="4.60825">
        <ele>767.27</ele>
        <time>2014-11-02T10:36:45Z</time>
      </trkpt>
      <trkpt lat="45.70268" lon="4.6083">
        <ele>766.31</ele>
        <time>2014-11-02T10:36:46Z</time>
      </trkpt>
      <trkpt lat="45.70269" lon="4.60835">
        <ele>765.83</ele>
        <time>2014-11-02T10:36:47Z</time>
      </trkpt>
      <trkpt lat="45.7027" lon="4.60839">
        <ele>765.35</ele>
        <time>2014-11-02T10:36:48Z</time>
      </trkpt>
      <trkpt lat="45.70272" lon="4.60843">
        <ele>764.87</ele>
        <time>2014-11-02T10:36:49Z</time>
      </trkpt>
      <trkpt lat="45.70274" lon="4.60846">
        <ele>764.39</ele>
        <time>2014-11-02T10:36:50Z</time>
      </trkpt>
      <trkpt lat="45.70276" lon="4.60849">
        <ele>763.9</ele>
        <time>2014-11-02T10:36:51Z</time>
      </trkpt>
      <trkpt lat="45.70281" lon="4.60861">
        <ele>762.46</ele>
        <time>2014-11-02T10:36:55Z</time>
      </trkpt>
      <trkpt lat="45.70282" lon="4.60864">
        <ele>761.98</ele>
        <time>2014-11-02T10:36:56Z</time>
      </trkpt>
      <trkpt lat="45.70292" lon="4.60898">
        <ele>758.62</ele>
        <time>2014-11-02T10:37:02Z</time>
      </trkpt>
      <trkpt lat="45.70292" lon="4.60905">
        <ele>757.66</ele>
        <time>2014-11-02T10:37:03Z</time>
      </trkpt>
      <trkpt lat="45.70292" lon="4.60911">
        <ele>757.18</ele>
        <time>2014-11-02T10:37:04Z</time>
      </trkpt>
      <trkpt lat="45.70293" lon="4.60917">
        <ele>756.21</ele>
        <time>2014-11-02T10:37:05Z</time>
      </trkpt>
      <trkpt lat="45.70294" lon="4.60922">
        <ele>755.73</ele>
        <time>2014-11-02T10:37:06Z</time>
      </trkpt>
      <trkpt lat="45.70294" lon="4.60942">
        <ele>753.33</ele>
        <time>2014-11-02T10:37:10Z</time>
      </trkpt>
      <trkpt lat="45.70298" lon="4.60951">
        <ele>751.89</ele>
        <time>2014-11-02T10:37:12Z</time>
      </trkpt>
      <trkpt lat="45.70299" lon="4.60957">
        <ele>751.41</ele>
        <time>2014-11-02T10:37:13Z</time>
      </trkpt>
      <trkpt lat="45.70299" lon="4.60963">
        <ele>750.45</ele>
        <time>2014-11-02T10:37:14Z</time>
      </trkpt>
      <trkpt lat="45.703" lon="4.61011">
        <ele>746.12</ele>
        <time>2014-11-02T10:37:21Z</time>
      </trkpt>
      <trkpt lat="45.703" lon="4.61054">
        <ele>743.72</ele>
        <time>2014-11-02T10:37:26Z</time>
      </trkpt>
      <trkpt lat="45.70302" lon="4.61072">
        <ele>741.79</ele>
        <time>2014-11-02T10:37:28Z</time>
      </trkpt>
      <trkpt lat="45.70305" lon="4.61083">
        <ele>740.83</ele>
        <time>2014-11-02T10:37:29Z</time>
      </trkpt>
      <trkpt lat="45.7031" lon="4.61104">
        <ele>738.43</ele>
        <time>2014-11-02T10:37:31Z</time>
      </trkpt>
      <trkpt lat="45.70311" lon="4.61117">
        <ele>736.99</ele>
        <time>2014-11-02T10:37:32Z</time>
      </trkpt>
      <trkpt lat="45.70311" lon="4.6113">
        <ele>735.55</ele>
        <time>2014-11-02T10:37:33Z</time>
      </trkpt>
      <trkpt lat="45.70309" lon="4.61162">
        <ele>732.18</ele>
        <time>2014-11-02T10:37:35Z</time>
      </trkpt>
      <trkpt lat="45.7032" lon="4.61252">
        <ele>731.22</ele>
        <time>2014-11-02T10:37:43Z</time>
      </trkpt>
      <trkpt lat="45.70323" lon="4.61263">
        <ele>731.22</ele>
        <time>2014-11-02T10:37:44Z</time>
      </trkpt>
      <trkpt lat="45.70327" lon="4.61275">
        <ele>731.22</ele>
        <time>2014-11-02T10:37:45Z</time>
      </trkpt>
      <trkpt lat="45.70329" lon="4.61286">
        <ele>731.22</ele>
        <time>2014-11-02T10:37:46Z</time>
      </trkpt>
      <trkpt lat="45.7033" lon="4.61298">
        <ele>730.74</ele>
        <time>2014-11-02T10:37:47Z</time>
      </trkpt>
      <trkpt lat="45.70331" lon="4.61309">
        <ele>730.26</ele>
        <time>2014-11-02T10:37:48Z</time>
      </trkpt>
      <trkpt lat="45.70333" lon="4.61331">
        <ele>729.78</ele>
        <time>2014-11-02T10:37:50Z</time>
      </trkpt>
      <trkpt lat="45.70335" lon="4.6134">
        <ele>729.3</ele>
        <time>2014-11-02T10:37:51Z</time>
      </trkpt>
      <trkpt lat="45.70338" lon="4.6135">
        <ele>729.3</ele>
        <time>2014-11-02T10:37:52Z</time>
      </trkpt>
      <trkpt lat="45.70342" lon="4.6136">
        <ele>729.3</ele>
        <time>2014-11-02T10:37:53Z</time>
      </trkpt>
      <trkpt lat="45.70344" lon="4.6137">
        <ele>729.3</ele>
        <time>2014-11-02T10:37:54Z</time>
      </trkpt>
      <trkpt lat="45.70346" lon="4.6138">
        <ele>728.82</ele>
        <time>2014-11-02T10:37:55Z</time>
      </trkpt>
      <trkpt lat="45.70351" lon="4.61401">
        <ele>727.86</ele>
        <time>2014-11-02T10:37:57Z</time>
      </trkpt>
      <trkpt lat="45.70355" lon="4.61422">
        <ele>726.89</ele>
        <time>2014-11-02T10:37:59Z</time>
      </trkpt>
      <trkpt lat="45.70361" lon="4.61438">
        <ele>725.93</ele>
        <time>2014-11-02T10:38:01Z</time>
      </trkpt>
      <trkpt lat="45.70363" lon="4.61446">
        <ele>725.45</ele>
        <time>2014-11-02T10:38:02Z</time>
      </trkpt>
      <trkpt lat="45.70364" lon="4.61453">
        <ele>724.97</ele>
        <time>2014-11-02T10:38:03Z</time>
      </trkpt>
      <trkpt lat="45.70376" lon="4.61479">
        <ele>722.09</ele>
        <time>2014-11-02T10:38:09Z</time>
      </trkpt>
      <trkpt lat="45.70378" lon="4.61484">
        <ele>721.61</ele>
        <time>2014-11-02T10:38:10Z</time>
      </trkpt>
      <trkpt lat="45.70381" lon="4.6149">
        <ele>721.61</ele>
        <time>2014-11-02T10:38:11Z</time>
      </trkpt>
      <trkpt lat="45.70384" lon="4.61496">
        <ele>721.13</ele>
        <time>2014-11-02T10:38:12Z</time>
      </trkpt>
      <trkpt lat="45.70387" lon="4.61503">
        <ele>721.13</ele>
        <time>2014-11-02T10:38:13Z</time>
      </trkpt>
      <trkpt lat="45.70389" lon="4.6151">
        <ele>720.65</ele>
        <time>2014-11-02T10:38:14Z</time>
      </trkpt>
      <trkpt lat="45.70392" lon="4.61518">
        <ele>720.16</ele>
        <time>2014-11-02T10:38:15Z</time>
      </trkpt>
      <trkpt lat="45.70408" lon="4.61554">
        <ele>717.28</ele>
        <time>2014-11-02T10:38:19Z</time>
      </trkpt>
      <trkpt lat="45.70413" lon="4.61561">
        <ele>716.32</ele>
        <time>2014-11-02T10:38:20Z</time>
      </trkpt>
      <trkpt lat="45.70418" lon="4.61566">
        <ele>715.36</ele>
        <time>2014-11-02T10:38:21Z</time>
      </trkpt>
      <trkpt lat="45.70429" lon="4.61575">
        <ele>712.95</ele>
        <time>2014-11-02T10:38:23Z</time>
      </trkpt>
      <trkpt lat="45.70444" lon="4.61589">
        <ele>707.19</ele>
        <time>2014-11-02T10:38:27Z</time>
      </trkpt>
      <trkpt lat="45.70448" lon="4.61592">
        <ele>705.75</ele>
        <time>2014-11-02T10:38:28Z</time>
      </trkpt>
      <trkpt lat="45.70452" lon="4.61595">
        <ele>704.78</ele>
        <time>2014-11-02T10:38:29Z</time>
      </trkpt>
      <trkpt lat="45.70465" lon="4.61604">
        <ele>701.42</ele>
        <time>2014-11-02T10:38:36Z</time>
      </trkpt>
      <trkpt lat="45.70467" lon="4.61604">
        <ele>700.94</ele>
        <time>2014-11-02T10:38:37Z</time>
      </trkpt>
      <trkpt lat="45.70468" lon="4.61605">
        <ele>700.94</ele>
        <time>2014-11-02T10:38:38Z</time>
      </trkpt>
      <trkpt lat="45.7047" lon="4.61607">
        <ele>700.94</ele>
        <time>2014-11-02T10:38:39Z</time>
      </trkpt>
      <trkpt lat="45.70471" lon="4.61609">
        <ele>700.46</ele>
        <time>2014-11-02T10:38:40Z</time>
      </trkpt>
      <trkpt lat="45.70471" lon="4.61611">
        <ele>700.46</ele>
        <time>2014-11-02T10:38:41Z</time>
      </trkpt>
      <trkpt lat="45.70472" lon="4.61613">
        <ele>699.98</ele>
        <time>2014-11-02T10:38:42Z</time>
      </trkpt>
      <trkpt lat="45.70491" lon="4.61639">
        <ele>696.61</ele>
        <time>2014-11-02T10:38:52Z</time>
      </trkpt>
      <trkpt lat="45.70496" lon="4.61644">
        <ele>696.13</ele>
        <time>2014-11-02T10:38:53Z</time>
      </trkpt>
      <trkpt lat="45.70501" lon="4.61647">
        <ele>695.65</ele>
        <time>2014-11-02T10:38:54Z</time>
      </trkpt>
      <trkpt lat="45.70507" lon="4.6165">
        <ele>695.17</ele>
        <time>2014-11-02T10:38:55Z</time>
      </trkpt>
      <trkpt lat="45.7052" lon="4.61654">
        <ele>693.25</ele>
        <time>2014-11-02T10:38:58Z</time>
      </trkpt>
      <trkpt lat="45.70524" lon="4.61652">
        <ele>692.29</ele>
        <time>2014-11-02T10:38:59Z</time>
      </trkpt>
      <trkpt lat="45.70527" lon="4.61648">
        <ele>691.33</ele>
        <time>2014-11-02T10:39:00Z</time>
      </trkpt>
      <trkpt lat="45.70542" lon="4.61632">
        <ele>688.44</ele>
        <time>2014-11-02T10:39:03Z</time>
      </trkpt>
      <trkpt lat="45.70549" lon="4.61627">
        <ele>687.96</ele>
        <time>2014-11-02T10:39:04Z</time>
      </trkpt>
      <trkpt lat="45.70557" lon="4.61624">
        <ele>687</ele>
        <time>2014-11-02T10:39:05Z</time>
      </trkpt>
      <trkpt lat="45.70565" lon="4.61621">
        <ele>686.52</ele>
        <time>2014-11-02T10:39:06Z</time>
      </trkpt>
      <trkpt lat="45.70572" lon="4.6162">
        <ele>685.56</ele>
        <time>2014-11-02T10:39:07Z</time>
      </trkpt>
      <trkpt lat="45.70579" lon="4.61619">
        <ele>685.08</ele>
        <time>2014-11-02T10:39:08Z</time>
      </trkpt>
      <trkpt lat="45.70585" lon="4.6162">
        <ele>684.12</ele>
        <time>2014-11-02T10:39:09Z</time>
      </trkpt>
      <trkpt lat="45.70601" lon="4.61623">
        <ele>682.19</ele>
        <time>2014-11-02T10:39:12Z</time>
      </trkpt>
      <trkpt lat="45.70605" lon="4.61625">
        <ele>681.71</ele>
        <time>2014-11-02T10:39:13Z</time>
      </trkpt>
      <trkpt lat="45.70609" lon="4.61628">
        <ele>681.23</ele>
        <time>2014-11-02T10:39:14Z</time>
      </trkpt>
      <trkpt lat="45.70661" lon="4.6167">
        <ele>679.31</ele>
        <time>2014-11-02T10:39:28Z</time>
      </trkpt>
      <trkpt lat="45.70664" lon="4.61669">
        <ele>679.31</ele>
        <time>2014-11-02T10:39:29Z</time>
      </trkpt>
      <trkpt lat="45.70667" lon="4.61667">
        <ele>679.79</ele>
        <time>2014-11-02T10:39:30Z</time>
      </trkpt>
      <trkpt lat="45.70669" lon="4.61665">
        <ele>679.79</ele>
        <time>2014-11-02T10:39:31Z</time>
      </trkpt>
      <trkpt lat="45.7067" lon="4.61662">
        <ele>679.79</ele>
        <time>2014-11-02T10:39:32Z</time>
      </trkpt>
      <trkpt lat="45.70671" lon="4.61659">
        <ele>679.79</ele>
        <time>2014-11-02T10:39:33Z</time>
      </trkpt>
      <trkpt lat="45.70675" lon="4.61647">
        <ele>679.31</ele>
        <time>2014-11-02T10:39:36Z</time>
      </trkpt>
      <trkpt lat="45.70678" lon="4.61644">
        <ele>678.83</ele>
        <time>2014-11-02T10:39:37Z</time>
      </trkpt>
      <trkpt lat="45.70698" lon="4.616">
        <ele>675.46</ele>
        <time>2014-11-02T10:39:45Z</time>
      </trkpt>
      <trkpt lat="45.70701" lon="4.61594">
        <ele>674.98</ele>
        <time>2014-11-02T10:39:46Z</time>
      </trkpt>
      <trkpt lat="45.70718" lon="4.61549">
        <ele>668.25</ele>
        <time>2014-11-02T10:39:53Z</time>
      </trkpt>
      <trkpt lat="45.70721" lon="4.61542">
        <ele>667.29</ele>
        <time>2014-11-02T10:39:54Z</time>
      </trkpt>
      <trkpt lat="45.70724" lon="4.61535">
        <ele>665.85</ele>
        <time>2014-11-02T10:39:55Z</time>
      </trkpt>
      <trkpt lat="45.70741" lon="4.61487">
        <ele>657.2</ele>
        <time>2014-11-02T10:40:03Z</time>
      </trkpt>
      <trkpt lat="45.70749" lon="4.61466">
        <ele>654.31</ele>
        <time>2014-11-02T10:40:06Z</time>
      </trkpt>
      <trkpt lat="45.70751" lon="4.6146">
        <ele>653.35</ele>
        <time>2014-11-02T10:40:07Z</time>
      </trkpt>
      <trkpt lat="45.70753" lon="4.61455">
        <ele>652.39</ele>
        <time>2014-11-02T10:40:08Z</time>
      </trkpt>
      <trkpt lat="45.70753" lon="4.61449">
        <ele>651.43</ele>
        <time>2014-11-02T10:40:09Z</time>
      </trkpt>
      <trkpt lat="45.70753" lon="4.61443">
        <ele>650.47</ele>
        <time>2014-11-02T10:40:10Z</time>
      </trkpt>
      <trkpt lat="45.70752" lon="4.61436">
        <ele>649.03</ele>
        <time>2014-11-02T10:40:11Z</time>
      </trkpt>
      <trkpt lat="45.7075" lon="4.61392">
        <ele>643.74</ele>
        <time>2014-11-02T10:40:16Z</time>
      </trkpt>
      <trkpt lat="45.70752" lon="4.61384">
        <ele>642.78</ele>
        <time>2014-11-02T10:40:17Z</time>
      </trkpt>
      <trkpt lat="45.70754" lon="4.61376">
        <ele>642.3</ele>
        <time>2014-11-02T10:40:18Z</time>
      </trkpt>
      <trkpt lat="45.70757" lon="4.61369">
        <ele>641.34</ele>
        <time>2014-11-02T10:40:19Z</time>
      </trkpt>
      <trkpt lat="45.7076" lon="4.61363">
        <ele>640.38</ele>
        <time>2014-11-02T10:40:20Z</time>
      </trkpt>
      <trkpt lat="45.7077" lon="4.61341">
        <ele>637.01</ele>
        <time>2014-11-02T10:40:23Z</time>
      </trkpt>
      <trkpt lat="45.70776" lon="4.61326">
        <ele>635.09</ele>
        <time>2014-11-02T10:40:25Z</time>
      </trkpt>
      <trkpt lat="45.7079" lon="4.61287">
        <ele>628.84</ele>
        <time>2014-11-02T10:40:32Z</time>
      </trkpt>
      <trkpt lat="45.70794" lon="4.61281">
        <ele>627.88</ele>
        <time>2014-11-02T10:40:33Z</time>
      </trkpt>
      <trkpt lat="45.70797" lon="4.61275">
        <ele>626.44</ele>
        <time>2014-11-02T10:40:34Z</time>
      </trkpt>
      <trkpt lat="45.708" lon="4.61271">
        <ele>625.47</ele>
        <time>2014-11-02T10:40:35Z</time>
      </trkpt>
      <trkpt lat="45.70802" lon="4.61267">
        <ele>624.99</ele>
        <time>2014-11-02T10:40:36Z</time>
      </trkpt>
      <trkpt lat="45.70828" lon="4.61232">
        <ele>617.3</ele>
        <time>2014-11-02T10:40:46Z</time>
      </trkpt>
      <trkpt lat="45.7083" lon="4.61232">
        <ele>616.82</ele>
        <time>2014-11-02T10:40:47Z</time>
      </trkpt>
      <trkpt lat="45.70849" lon="4.61242">
        <ele>611.06</ele>
        <time>2014-11-02T10:40:56Z</time>
      </trkpt>
      <trkpt lat="45.7085" lon="4.61245">
        <ele>610.09</ele>
        <time>2014-11-02T10:40:57Z</time>
      </trkpt>
      <trkpt lat="45.70852" lon="4.61247">
        <ele>609.61</ele>
        <time>2014-11-02T10:40:58Z</time>
      </trkpt>
      <trkpt lat="45.70856" lon="4.61248">
        <ele>609.61</ele>
        <time>2014-11-02T10:41:09Z</time>
      </trkpt>
      <trkpt lat="45.70859" lon="4.61248">
        <ele>613.46</ele>
        <time>2014-11-02T10:41:31Z</time>
      </trkpt>
      <trkpt lat="45.70862" lon="4.61248">
        <ele>615.86</ele>
        <time>2014-11-02T10:42:02Z</time>
      </trkpt>
      <trkpt lat="45.70861" lon="4.61248">
        <ele>617.78</ele>
        <time>2014-11-02T10:42:26Z</time>
      </trkpt>
      <trkpt lat="45.70862" lon="4.61247">
        <ele>618.26</ele>
        <time>2014-11-02T10:42:52Z</time>
      </trkpt>
      <trkpt lat="45.70863" lon="4.61246">
        <ele>618.26</ele>
        <time>2014-11-02T10:42:53Z</time>
      </trkpt>
      <trkpt lat="45.70864" lon="4.61244">
        <ele>618.26</ele>
        <time>2014-11-02T10:42:54Z</time>
      </trkpt>
      <trkpt lat="45.70866" lon="4.61241">
        <ele>618.26</ele>
        <time>2014-11-02T10:42:55Z</time>
      </trkpt>
      <trkpt lat="45.70869" lon="4.61238">
        <ele>618.26</ele>
        <time>2014-11-02T10:42:56Z</time>
      </trkpt>
      <trkpt lat="45.70872" lon="4.61234">
        <ele>618.26</ele>
        <time>2014-11-02T10:42:57Z</time>
      </trkpt>
      <trkpt lat="45.70876" lon="4.61231">
        <ele>618.26</ele>
        <time>2014-11-02T10:42:58Z</time>
      </trkpt>
      <trkpt lat="45.70879" lon="4.61229">
        <ele>617.78</ele>
        <time>2014-11-02T10:42:59Z</time>
      </trkpt>
      <trkpt lat="45.70882" lon="4.61226">
        <ele>617.3</ele>
        <time>2014-11-02T10:43:00Z</time>
      </trkpt>
      <trkpt lat="45.70885" lon="4.61223">
        <ele>616.82</ele>
        <time>2014-11-02T10:43:01Z</time>
      </trkpt>
      <trkpt lat="45.70889" lon="4.61218">
        <ele>616.34</ele>
        <time>2014-11-02T10:43:02Z</time>
      </trkpt>
      <trkpt lat="45.70892" lon="4.61211">
        <ele>615.86</ele>
        <time>2014-11-02T10:43:03Z</time>
      </trkpt>
      <trkpt lat="45.7092" lon="4.61155">
        <ele>612.98</ele>
        <time>2014-11-02T10:43:12Z</time>
      </trkpt>
      <trkpt lat="45.7092" lon="4.61146">
        <ele>612.98</ele>
        <time>2014-11-02T10:43:13Z</time>
      </trkpt>
      <trkpt lat="45.7092" lon="4.61139">
        <ele>612.5</ele>
        <time>2014-11-02T10:43:14Z</time>
      </trkpt>
      <trkpt lat="45.7092" lon="4.61134">
        <ele>612.5</ele>
        <time>2014-11-02T10:43:15Z</time>
      </trkpt>
      <trkpt lat="45.70918" lon="4.6113">
        <ele>612.02</ele>
        <time>2014-11-02T10:43:16Z</time>
      </trkpt>
      <trkpt lat="45.70917" lon="4.61126">
        <ele>611.54</ele>
        <time>2014-11-02T10:43:17Z</time>
      </trkpt>
      <trkpt lat="45.70917" lon="4.61123">
        <ele>611.06</ele>
        <time>2014-11-02T10:43:18Z</time>
      </trkpt>
      <trkpt lat="45.70916" lon="4.61119">
        <ele>610.09</ele>
        <time>2014-11-02T10:43:19Z</time>
      </trkpt>
      <trkpt lat="45.70913" lon="4.61115">
        <ele>609.13</ele>
        <time>2014-11-02T10:43:21Z</time>
      </trkpt>
      <trkpt lat="45.70912" lon="4.61113">
        <ele>608.65</ele>
        <time>2014-11-02T10:43:22Z</time>
      </trkpt>
      <trkpt lat="45.70901" lon="4.611">
        <ele>605.29</ele>
        <time>2014-11-02T10:43:28Z</time>
      </trkpt>
      <trkpt lat="45.70905" lon="4.61081">
        <ele>604.33</ele>
        <time>2014-11-02T10:43:34Z</time>
      </trkpt>
      <trkpt lat="45.70913" lon="4.61059">
        <ele>603.36</ele>
        <time>2014-11-02T10:43:44Z</time>
      </trkpt>
      <trkpt lat="45.70929" lon="4.61036">
        <ele>602.4</ele>
        <time>2014-11-02T10:43:53Z</time>
      </trkpt>
      <trkpt lat="45.70935" lon="4.6103">
        <ele>601.92</ele>
        <time>2014-11-02T10:43:55Z</time>
      </trkpt>
      <trkpt lat="45.7094" lon="4.61025">
        <ele>601.92</ele>
        <time>2014-11-02T10:43:56Z</time>
      </trkpt>
      <trkpt lat="45.70944" lon="4.61021">
        <ele>601.92</ele>
        <time>2014-11-02T10:43:57Z</time>
      </trkpt>
      <trkpt lat="45.70954" lon="4.61013">
        <ele>601.44</ele>
        <time>2014-11-02T10:43:59Z</time>
      </trkpt>
      <trkpt lat="45.70971" lon="4.60994">
        <ele>600.48</ele>
        <time>2014-11-02T10:44:03Z</time>
      </trkpt>
      <trkpt lat="45.71001" lon="4.60959">
        <ele>599.04</ele>
        <time>2014-11-02T10:44:10Z</time>
      </trkpt>
      <trkpt lat="45.71005" lon="4.60955">
        <ele>599.04</ele>
        <time>2014-11-02T10:44:11Z</time>
      </trkpt>
      <trkpt lat="45.71009" lon="4.60951">
        <ele>598.56</ele>
        <time>2014-11-02T10:44:12Z</time>
      </trkpt>
      <trkpt lat="45.71025" lon="4.60938">
        <ele>595.67</ele>
        <time>2014-11-02T10:44:18Z</time>
      </trkpt>
      <trkpt lat="45.71029" lon="4.60933">
        <ele>594.23</ele>
        <time>2014-11-02T10:44:22Z</time>
      </trkpt>
      <trkpt lat="45.71031" lon="4.60931">
        <ele>593.27</ele>
        <time>2014-11-02T10:44:23Z</time>
      </trkpt>
      <trkpt lat="45.71048" lon="4.60909">
        <ele>588.46</ele>
        <time>2014-11-02T10:44:31Z</time>
      </trkpt>
      <trkpt lat="45.71072" lon="4.60879">
        <ele>584.62</ele>
        <time>2014-11-02T10:44:41Z</time>
      </trkpt>
      <trkpt lat="45.71077" lon="4.60875">
        <ele>584.14</ele>
        <time>2014-11-02T10:44:42Z</time>
      </trkpt>
      <trkpt lat="45.71081" lon="4.60872">
        <ele>583.66</ele>
        <time>2014-11-02T10:44:43Z</time>
      </trkpt>
      <trkpt lat="45.71104" lon="4.60864">
        <ele>579.33</ele>
        <time>2014-11-02T10:44:50Z</time>
      </trkpt>
      <trkpt lat="45.71113" lon="4.60868">
        <ele>572.6</ele>
        <time>2014-11-02T10:44:54Z</time>
      </trkpt>
      <trkpt lat="45.71115" lon="4.60873">
        <ele>562.99</ele>
        <time>2014-11-02T10:44:56Z</time>
      </trkpt>
      <trkpt lat="45.71116" lon="4.60875">
        <ele>558.18</ele>
        <time>2014-11-02T10:44:57Z</time>
      </trkpt>
      <trkpt lat="45.71118" lon="4.60877">
        <ele>556.26</ele>
        <time>2014-11-02T10:44:58Z</time>
      </trkpt>
      <trkpt lat="45.71118" lon="4.60879">
        <ele>553.38</ele>
        <time>2014-11-02T10:44:59Z</time>
      </trkpt>
      <trkpt lat="45.71115" lon="4.60881">
        <ele>550.97</ele>
        <time>2014-11-02T10:45:00Z</time>
      </trkpt>
      <trkpt lat="45.71113" lon="4.60882">
        <ele>550.01</ele>
        <time>2014-11-02T10:45:01Z</time>
      </trkpt>
      <trkpt lat="45.71111" lon="4.60883">
        <ele>548.57</ele>
        <time>2014-11-02T10:45:02Z</time>
      </trkpt>
      <trkpt lat="45.71109" lon="4.60885">
        <ele>547.61</ele>
        <time>2014-11-02T10:45:03Z</time>
      </trkpt>
      <trkpt lat="45.71107" lon="4.60887">
        <ele>546.65</ele>
        <time>2014-11-02T10:45:04Z</time>
      </trkpt>
      <trkpt lat="45.71105" lon="4.6089">
        <ele>545.69</ele>
        <time>2014-11-02T10:45:05Z</time>
      </trkpt>
      <trkpt lat="45.71102" lon="4.60895">
        <ele>544.72</ele>
        <time>2014-11-02T10:45:06Z</time>
      </trkpt>
      <trkpt lat="45.711" lon="4.60899">
        <ele>543.76</ele>
        <time>2014-11-02T10:45:07Z</time>
      </trkpt>
      <trkpt lat="45.71099" lon="4.60903">
        <ele>542.8</ele>
        <time>2014-11-02T10:45:08Z</time>
      </trkpt>
      <trkpt lat="45.71099" lon="4.60906">
        <ele>541.84</ele>
        <time>2014-11-02T10:45:09Z</time>
      </trkpt>
      <trkpt lat="45.71098" lon="4.6091">
        <ele>541.36</ele>
        <time>2014-11-02T10:45:10Z</time>
      </trkpt>
      <trkpt lat="45.71094" lon="4.60926">
        <ele>538.96</ele>
        <time>2014-11-02T10:45:14Z</time>
      </trkpt>
      <trkpt lat="45.71092" lon="4.60931">
        <ele>538.48</ele>
        <time>2014-11-02T10:45:15Z</time>
      </trkpt>
      <trkpt lat="45.71091" lon="4.60936">
        <ele>537.99</ele>
        <time>2014-11-02T10:45:16Z</time>
      </trkpt>
      <trkpt lat="45.71089" lon="4.60942">
        <ele>537.03</ele>
        <time>2014-11-02T10:45:17Z</time>
      </trkpt>
      <trkpt lat="45.71088" lon="4.60948">
        <ele>536.55</ele>
        <time>2014-11-02T10:45:18Z</time>
      </trkpt>
      <trkpt lat="45.71086" lon="4.60955">
        <ele>536.07</ele>
        <time>2014-11-02T10:45:19Z</time>
      </trkpt>
      <trkpt lat="45.71083" lon="4.60963">
        <ele>535.59</ele>
        <time>2014-11-02T10:45:20Z</time>
      </trkpt>
      <trkpt lat="45.7108" lon="4.60972">
        <ele>534.63</ele>
        <time>2014-11-02T10:45:21Z</time>
      </trkpt>
      <trkpt lat="45.71077" lon="4.60981">
        <ele>534.15</ele>
        <time>2014-11-02T10:45:22Z</time>
      </trkpt>
      <trkpt lat="45.71074" lon="4.6099">
        <ele>533.67</ele>
        <time>2014-11-02T10:45:23Z</time>
      </trkpt>
      <trkpt lat="45.71067" lon="4.61005">
        <ele>532.71</ele>
        <time>2014-11-02T10:45:25Z</time>
      </trkpt>
      <trkpt lat="45.71064" lon="4.61012">
        <ele>532.23</ele>
        <time>2014-11-02T10:45:26Z</time>
      </trkpt>
      <trkpt lat="45.71063" lon="4.61018">
        <ele>532.23</ele>
        <time>2014-11-02T10:45:27Z</time>
      </trkpt>
      <trkpt lat="45.71062" lon="4.61022">
        <ele>531.75</ele>
        <time>2014-11-02T10:45:28Z</time>
      </trkpt>
      <trkpt lat="45.71062" lon="4.61024">
        <ele>531.27</ele>
        <time>2014-11-02T10:45:29Z</time>
      </trkpt>
      <trkpt lat="45.71062" lon="4.61027">
        <ele>530.79</ele>
        <time>2014-11-02T10:45:30Z</time>
      </trkpt>
      <trkpt lat="45.71063" lon="4.61029">
        <ele>530.3</ele>
        <time>2014-11-02T10:45:31Z</time>
      </trkpt>
      <trkpt lat="45.71064" lon="4.61032">
        <ele>530.3</ele>
        <time>2014-11-02T10:45:32Z</time>
      </trkpt>
      <trkpt lat="45.71065" lon="4.61035">
        <ele>530.3</ele>
        <time>2014-11-02T10:45:33Z</time>
      </trkpt>
      <trkpt lat="45.71067" lon="4.6104">
        <ele>530.3</ele>
        <time>2014-11-02T10:45:34Z</time>
      </trkpt>
      <trkpt lat="45.71068" lon="4.61044">
        <ele>530.3</ele>
        <time>2014-11-02T10:45:35Z</time>
      </trkpt>
      <trkpt lat="45.7107" lon="4.61047">
        <ele>530.79</ele>
        <time>2014-11-02T10:45:36Z</time>
      </trkpt>
      <trkpt lat="45.71071" lon="4.61051">
        <ele>531.27</ele>
        <time>2014-11-02T10:45:37Z</time>
      </trkpt>
      <trkpt lat="45.71072" lon="4.61054">
        <ele>531.75</ele>
        <time>2014-11-02T10:45:38Z</time>
      </trkpt>
      <trkpt lat="45.71073" lon="4.61057">
        <ele>531.75</ele>
        <time>2014-11-02T10:45:39Z</time>
      </trkpt>
      <trkpt lat="45.71075" lon="4.6106">
        <ele>532.23</ele>
        <time>2014-11-02T10:45:40Z</time>
      </trkpt>
      <trkpt lat="45.71076" lon="4.61064">
        <ele>532.23</ele>
        <time>2014-11-02T10:45:41Z</time>
      </trkpt>
      <trkpt lat="45.71076" lon="4.61067">
        <ele>532.23</ele>
        <time>2014-11-02T10:45:42Z</time>
      </trkpt>
      <trkpt lat="45.71085" lon="4.61102">
        <ele>535.11</ele>
        <time>2014-11-02T10:45:53Z</time>
      </trkpt>
      <trkpt lat="45.71082" lon="4.61128">
        <ele>537.51</ele>
        <time>2014-11-02T10:46:04Z</time>
      </trkpt>
      <trkpt lat="45.71088" lon="4.61161">
        <ele>536.55</ele>
        <time>2014-11-02T10:46:16Z</time>
      </trkpt>
      <trkpt lat="45.71088" lon="4.61205">
        <ele>533.19</ele>
        <time>2014-11-02T10:46:27Z</time>
      </trkpt>
      <trkpt lat="45.71088" lon="4.61212">
        <ele>532.23</ele>
        <time>2014-11-02T10:46:28Z</time>
      </trkpt>
      <trkpt lat="45.71083" lon="4.61227">
        <ele>530.79</ele>
        <time>2014-11-02T10:46:30Z</time>
      </trkpt>
      <trkpt lat="45.71073" lon="4.61248">
        <ele>529.34</ele>
        <time>2014-11-02T10:46:33Z</time>
      </trkpt>
      <trkpt lat="45.71069" lon="4.61254">
        <ele>528.86</ele>
        <time>2014-11-02T10:46:34Z</time>
      </trkpt>
      <trkpt lat="45.7106" lon="4.61265">
        <ele>527.9</ele>
        <time>2014-11-02T10:46:36Z</time>
      </trkpt>
      <trkpt lat="45.71049" lon="4.61276">
        <ele>526.46</ele>
        <time>2014-11-02T10:46:38Z</time>
      </trkpt>
      <trkpt lat="45.71036" lon="4.61293">
        <ele>525.5</ele>
        <time>2014-11-02T10:46:41Z</time>
      </trkpt>
      <trkpt lat="45.71015" lon="4.61329">
        <ele>526.94</ele>
        <time>2014-11-02T10:46:50Z</time>
      </trkpt>
      <trkpt lat="45.71015" lon="4.61341">
        <ele>527.42</ele>
        <time>2014-11-02T10:46:52Z</time>
      </trkpt>
      <trkpt lat="45.71016" lon="4.61346">
        <ele>527.9</ele>
        <time>2014-11-02T10:46:53Z</time>
      </trkpt>
      <trkpt lat="45.71018" lon="4.61352">
        <ele>527.9</ele>
        <time>2014-11-02T10:46:54Z</time>
      </trkpt>
      <trkpt lat="45.71022" lon="4.61367">
        <ele>528.86</ele>
        <time>2014-11-02T10:46:56Z</time>
      </trkpt>
      <trkpt lat="45.71026" lon="4.61382">
        <ele>528.86</ele>
        <time>2014-11-02T10:46:58Z</time>
      </trkpt>
      <trkpt lat="45.71046" lon="4.61455">
        <ele>527.42</ele>
        <time>2014-11-02T10:47:08Z</time>
      </trkpt>
      <trkpt lat="45.71054" lon="4.61499">
        <ele>525.98</ele>
        <time>2014-11-02T10:47:17Z</time>
      </trkpt>
      <trkpt lat="45.71058" lon="4.61552">
        <ele>524.06</ele>
        <time>2014-11-02T10:47:27Z</time>
      </trkpt>
      <trkpt lat="45.71057" lon="4.61559">
        <ele>523.58</ele>
        <time>2014-11-02T10:47:28Z</time>
      </trkpt>
      <trkpt lat="45.71056" lon="4.61566">
        <ele>523.09</ele>
        <time>2014-11-02T10:47:29Z</time>
      </trkpt>
      <trkpt lat="45.71052" lon="4.61592">
        <ele>522.13</ele>
        <time>2014-11-02T10:47:33Z</time>
      </trkpt>
      <trkpt lat="45.71051" lon="4.61598">
        <ele>521.65</ele>
        <time>2014-11-02T10:47:34Z</time>
      </trkpt>
      <trkpt lat="45.7105" lon="4.61605">
        <ele>521.17</ele>
        <time>2014-11-02T10:47:35Z</time>
      </trkpt>
      <trkpt lat="45.71049" lon="4.61613">
        <ele>520.69</ele>
        <time>2014-11-02T10:47:36Z</time>
      </trkpt>
      <trkpt lat="45.71047" lon="4.61619">
        <ele>520.69</ele>
        <time>2014-11-02T10:47:37Z</time>
      </trkpt>
      <trkpt lat="45.71045" lon="4.61626">
        <ele>520.21</ele>
        <time>2014-11-02T10:47:38Z</time>
      </trkpt>
      <trkpt lat="45.71039" lon="4.61638">
        <ele>519.25</ele>
        <time>2014-11-02T10:47:40Z</time>
      </trkpt>
      <trkpt lat="45.71038" lon="4.61645">
        <ele>518.77</ele>
        <time>2014-11-02T10:47:41Z</time>
      </trkpt>
      <trkpt lat="45.71036" lon="4.61653">
        <ele>518.29</ele>
        <time>2014-11-02T10:47:42Z</time>
      </trkpt>
      <trkpt lat="45.71037" lon="4.61698">
        <ele>519.73</ele>
        <time>2014-11-02T10:47:50Z</time>
      </trkpt>
      <trkpt lat="45.71038" lon="4.61738">
        <ele>520.21</ele>
        <time>2014-11-02T10:47:57Z</time>
      </trkpt>
      <trkpt lat="45.71037" lon="4.61743">
        <ele>520.21</ele>
        <time>2014-11-02T10:47:58Z</time>
      </trkpt>
      <trkpt lat="45.71036" lon="4.61749">
        <ele>520.21</ele>
        <time>2014-11-02T10:47:59Z</time>
      </trkpt>
      <trkpt lat="45.71036" lon="4.61754">
        <ele>520.21</ele>
        <time>2014-11-02T10:48:00Z</time>
      </trkpt>
      <trkpt lat="45.71035" lon="4.61759">
        <ele>520.21</ele>
        <time>2014-11-02T10:48:01Z</time>
      </trkpt>
      <trkpt lat="45.71034" lon="4.61764">
        <ele>520.69</ele>
        <time>2014-11-02T10:48:02Z</time>
      </trkpt>
      <trkpt lat="45.71029" lon="4.61785">
        <ele>520.21</ele>
        <time>2014-11-02T10:48:06Z</time>
      </trkpt>
      <trkpt lat="45.71029" lon="4.6179">
        <ele>520.69</ele>
        <time>2014-11-02T10:48:07Z</time>
      </trkpt>
      <trkpt lat="45.71029" lon="4.61794">
        <ele>520.69</ele>
        <time>2014-11-02T10:48:08Z</time>
      </trkpt>
      <trkpt lat="45.71029" lon="4.61798">
        <ele>520.21</ele>
        <time>2014-11-02T10:48:09Z</time>
      </trkpt>
      <trkpt lat="45.71029" lon="4.61804">
        <ele>520.21</ele>
        <time>2014-11-02T10:48:10Z</time>
      </trkpt>
      <trkpt lat="45.71031" lon="4.61855">
        <ele>516.37</ele>
        <time>2014-11-02T10:48:17Z</time>
      </trkpt>
      <trkpt lat="45.71028" lon="4.61888">
        <ele>514.92</ele>
        <time>2014-11-02T10:48:22Z</time>
      </trkpt>
      <trkpt lat="45.71028" lon="4.61895">
        <ele>514.44</ele>
        <time>2014-11-02T10:48:23Z</time>
      </trkpt>
      <trkpt lat="45.71028" lon="4.61903">
        <ele>514.44</ele>
        <time>2014-11-02T10:48:24Z</time>
      </trkpt>
      <trkpt lat="45.71027" lon="4.61912">
        <ele>513.96</ele>
        <time>2014-11-02T10:48:25Z</time>
      </trkpt>
      <trkpt lat="45.71025" lon="4.6192">
        <ele>513.48</ele>
        <time>2014-11-02T10:48:26Z</time>
      </trkpt>
      <trkpt lat="45.71023" lon="4.61928">
        <ele>513.48</ele>
        <time>2014-11-02T10:48:27Z</time>
      </trkpt>
      <trkpt lat="45.71017" lon="4.61957">
        <ele>513</ele>
        <time>2014-11-02T10:48:31Z</time>
      </trkpt>
      <trkpt lat="45.71015" lon="4.61963">
        <ele>513</ele>
        <time>2014-11-02T10:48:32Z</time>
      </trkpt>
      <trkpt lat="45.71013" lon="4.61975">
        <ele>513</ele>
        <time>2014-11-02T10:48:34Z</time>
      </trkpt>
      <trkpt lat="45.71004" lon="4.62">
        <ele>513</ele>
        <time>2014-11-02T10:48:38Z</time>
      </trkpt>
      <trkpt lat="45.70998" lon="4.62016">
        <ele>513.96</ele>
        <time>2014-11-02T10:48:42Z</time>
      </trkpt>
      <trkpt lat="45.70997" lon="4.62018">
        <ele>514.92</ele>
        <time>2014-11-02T10:48:43Z</time>
      </trkpt>
      <trkpt lat="45.70997" lon="4.62024">
        <ele>516.85</ele>
        <time>2014-11-02T10:48:45Z</time>
      </trkpt>
      <trkpt lat="45.70996" lon="4.62027">
        <ele>517.33</ele>
        <time>2014-11-02T10:48:46Z</time>
      </trkpt>
      <trkpt lat="45.70982" lon="4.6206">
        <ele>521.17</ele>
        <time>2014-11-02T10:48:58Z</time>
      </trkpt>
      <trkpt lat="45.70975" lon="4.62076">
        <ele>522.13</ele>
        <time>2014-11-02T10:49:03Z</time>
      </trkpt>
      <trkpt lat="45.70973" lon="4.62078">
        <ele>522.61</ele>
        <time>2014-11-02T10:49:04Z</time>
      </trkpt>
      <trkpt lat="45.70973" lon="4.62081">
        <ele>523.09</ele>
        <time>2014-11-02T10:49:05Z</time>
      </trkpt>
      <trkpt lat="45.70972" lon="4.62084">
        <ele>523.09</ele>
        <time>2014-11-02T10:49:06Z</time>
      </trkpt>
      <trkpt lat="45.70972" lon="4.62087">
        <ele>523.09</ele>
        <time>2014-11-02T10:49:07Z</time>
      </trkpt>
      <trkpt lat="45.70971" lon="4.62091">
        <ele>523.09</ele>
        <time>2014-11-02T10:49:08Z</time>
      </trkpt>
      <trkpt lat="45.70959" lon="4.62126">
        <ele>523.09</ele>
        <time>2014-11-02T10:49:18Z</time>
      </trkpt>
      <trkpt lat="45.70955" lon="4.62136">
        <ele>523.58</ele>
        <time>2014-11-02T10:49:22Z</time>
      </trkpt>
      <trkpt lat="45.70951" lon="4.6215">
        <ele>522.61</ele>
        <time>2014-11-02T10:49:28Z</time>
      </trkpt>
      <trkpt lat="45.70946" lon="4.6216">
        <ele>520.69</ele>
        <time>2014-11-02T10:49:33Z</time>
      </trkpt>
      <trkpt lat="45.70945" lon="4.62169">
        <ele>520.21</ele>
        <time>2014-11-02T10:49:36Z</time>
      </trkpt>
      <trkpt lat="45.70944" lon="4.622">
        <ele>517.81</ele>
        <time>2014-11-02T10:49:44Z</time>
      </trkpt>
      <trkpt lat="45.70943" lon="4.62208">
        <ele>517.81</ele>
        <time>2014-11-02T10:49:45Z</time>
      </trkpt>
      <trkpt lat="45.70943" lon="4.62216">
        <ele>518.29</ele>
        <time>2014-11-02T10:49:46Z</time>
      </trkpt>
      <trkpt lat="45.70944" lon="4.62224">
        <ele>518.29</ele>
        <time>2014-11-02T10:49:47Z</time>
      </trkpt>
      <trkpt lat="45.70946" lon="4.62233">
        <ele>518.29</ele>
        <time>2014-11-02T10:49:48Z</time>
      </trkpt>
      <trkpt lat="45.70947" lon="4.62242">
        <ele>518.29</ele>
        <time>2014-11-02T10:49:49Z</time>
      </trkpt>
      <trkpt lat="45.70947" lon="4.6225">
        <ele>518.29</ele>
        <time>2014-11-02T10:49:50Z</time>
      </trkpt>
      <trkpt lat="45.70948" lon="4.62257">
        <ele>518.29</ele>
        <time>2014-11-02T10:49:51Z</time>
      </trkpt>
      <trkpt lat="45.7095" lon="4.62263">
        <ele>517.81</ele>
        <time>2014-11-02T10:49:52Z</time>
      </trkpt>
      <trkpt lat="45.70953" lon="4.6227">
        <ele>517.81</ele>
        <time>2014-11-02T10:49:53Z</time>
      </trkpt>
      <trkpt lat="45.70957" lon="4.62278">
        <ele>518.29</ele>
        <time>2014-11-02T10:49:54Z</time>
      </trkpt>
      <trkpt lat="45.70961" lon="4.62286">
        <ele>518.77</ele>
        <time>2014-11-02T10:49:55Z</time>
      </trkpt>
      <trkpt lat="45.70966" lon="4.62295">
        <ele>518.77</ele>
        <time>2014-11-02T10:49:56Z</time>
      </trkpt>
      <trkpt lat="45.70987" lon="4.62333">
        <ele>519.73</ele>
        <time>2014-11-02T10:50:00Z</time>
      </trkpt>
      <trkpt lat="45.70993" lon="4.62342">
        <ele>519.73</ele>
        <time>2014-11-02T10:50:01Z</time>
      </trkpt>
      <trkpt lat="45.71" lon="4.6235">
        <ele>519.73</ele>
        <time>2014-11-02T10:50:02Z</time>
      </trkpt>
      <trkpt lat="45.71018" lon="4.62375">
        <ele>520.69</ele>
        <time>2014-11-02T10:50:05Z</time>
      </trkpt>
      <trkpt lat="45.71023" lon="4.62384">
        <ele>521.65</ele>
        <time>2014-11-02T10:50:06Z</time>
      </trkpt>
      <trkpt lat="45.7103" lon="4.62393">
        <ele>523.09</ele>
        <time>2014-11-02T10:50:07Z</time>
      </trkpt>
      <trkpt lat="45.71044" lon="4.62412">
        <ele>524.54</ele>
        <time>2014-11-02T10:50:10Z</time>
      </trkpt>
      <trkpt lat="45.71056" lon="4.62428">
        <ele>525.5</ele>
        <time>2014-11-02T10:50:13Z</time>
      </trkpt>
      <trkpt lat="45.71085" lon="4.62463">
        <ele>527.9</ele>
        <time>2014-11-02T10:50:22Z</time>
      </trkpt>
      <trkpt lat="45.71092" lon="4.62471">
        <ele>529.34</ele>
        <time>2014-11-02T10:50:25Z</time>
      </trkpt>
      <trkpt lat="45.71109" lon="4.62486">
        <ele>533.67</ele>
        <time>2014-11-02T10:50:32Z</time>
      </trkpt>
      <trkpt lat="45.71111" lon="4.62487">
        <ele>535.11</ele>
        <time>2014-11-02T10:50:33Z</time>
      </trkpt>
      <trkpt lat="45.71123" lon="4.62494">
        <ele>539.44</ele>
        <time>2014-11-02T10:50:45Z</time>
      </trkpt>
      <trkpt lat="45.71126" lon="4.62501">
        <ele>540.4</ele>
        <time>2014-11-02T10:51:06Z</time>
      </trkpt>
      <trkpt lat="45.71127" lon="4.62502">
        <ele>540.4</ele>
        <time>2014-11-02T10:51:07Z</time>
      </trkpt>
      <trkpt lat="45.71128" lon="4.62504">
        <ele>540.4</ele>
        <time>2014-11-02T10:51:08Z</time>
      </trkpt>
      <trkpt lat="45.71131" lon="4.62505">
        <ele>540.4</ele>
        <time>2014-11-02T10:51:09Z</time>
      </trkpt>
      <trkpt lat="45.71135" lon="4.62506">
        <ele>540.4</ele>
        <time>2014-11-02T10:51:10Z</time>
      </trkpt>
      <trkpt lat="45.71149" lon="4.62519">
        <ele>538.48</ele>
        <time>2014-11-02T10:51:14Z</time>
      </trkpt>
      <trkpt lat="45.71153" lon="4.62524">
        <ele>537.99</ele>
        <time>2014-11-02T10:51:15Z</time>
      </trkpt>
      <trkpt lat="45.71156" lon="4.62531">
        <ele>537.51</ele>
        <time>2014-11-02T10:51:16Z</time>
      </trkpt>
      <trkpt lat="45.71159" lon="4.62539">
        <ele>537.51</ele>
        <time>2014-11-02T10:51:17Z</time>
      </trkpt>
      <trkpt lat="45.71161" lon="4.62547">
        <ele>537.03</ele>
        <time>2014-11-02T10:51:18Z</time>
      </trkpt>
      <trkpt lat="45.7117" lon="4.62574">
        <ele>535.59</ele>
        <time>2014-11-02T10:51:21Z</time>
      </trkpt>
      <trkpt lat="45.71192" lon="4.6262">
        <ele>533.67</ele>
        <time>2014-11-02T10:51:26Z</time>
      </trkpt>
      <trkpt lat="45.71259" lon="4.62715">
        <ele>520.21</ele>
        <time>2014-11-02T10:51:35Z</time>
      </trkpt>
      <trkpt lat="45.71266" lon="4.62724">
        <ele>518.77</ele>
        <time>2014-11-02T10:51:36Z</time>
      </trkpt>
      <trkpt lat="45.71304" lon="4.62781">
        <ele>508.67</ele>
        <time>2014-11-02T10:51:43Z</time>
      </trkpt>
      <trkpt lat="45.71329" lon="4.6284">
        <ele>496.18</ele>
        <time>2014-11-02T10:51:51Z</time>
      </trkpt>
      <trkpt lat="45.71339" lon="4.62864">
        <ele>486.56</ele>
        <time>2014-11-02T10:52:00Z</time>
      </trkpt>
      <trkpt lat="45.71341" lon="4.6287">
        <ele>483.68</ele>
        <time>2014-11-02T10:52:03Z</time>
      </trkpt>
      <trkpt lat="45.71342" lon="4.62872">
        <ele>483.2</ele>
        <time>2014-11-02T10:52:04Z</time>
      </trkpt>
      <trkpt lat="45.71343" lon="4.62875">
        <ele>482.72</ele>
        <time>2014-11-02T10:52:05Z</time>
      </trkpt>
      <trkpt lat="45.71344" lon="4.62878">
        <ele>482.24</ele>
        <time>2014-11-02T10:52:06Z</time>
      </trkpt>
      <trkpt lat="45.71346" lon="4.62883">
        <ele>481.76</ele>
        <time>2014-11-02T10:52:07Z</time>
      </trkpt>
      <trkpt lat="45.7135" lon="4.62893">
        <ele>480.8</ele>
        <time>2014-11-02T10:52:09Z</time>
      </trkpt>
      <trkpt lat="45.71354" lon="4.62905">
        <ele>479.35</ele>
        <time>2014-11-02T10:52:11Z</time>
      </trkpt>
      <trkpt lat="45.71356" lon="4.62911">
        <ele>478.87</ele>
        <time>2014-11-02T10:52:12Z</time>
      </trkpt>
      <trkpt lat="45.71359" lon="4.62937">
        <ele>475.99</ele>
        <time>2014-11-02T10:52:16Z</time>
      </trkpt>
      <trkpt lat="45.71357" lon="4.62951">
        <ele>474.07</ele>
        <time>2014-11-02T10:52:18Z</time>
      </trkpt>
      <trkpt lat="45.71344" lon="4.63023">
        <ele>466.38</ele>
        <time>2014-11-02T10:52:26Z</time>
      </trkpt>
      <trkpt lat="45.71344" lon="4.63041">
        <ele>463.01</ele>
        <time>2014-11-02T10:52:29Z</time>
      </trkpt>
      <trkpt lat="45.71356" lon="4.63022">
        <ele>456.76</ele>
        <time>2014-11-02T10:52:35Z</time>
      </trkpt>
      <trkpt lat="45.71359" lon="4.63016">
        <ele>455.8</ele>
        <time>2014-11-02T10:52:36Z</time>
      </trkpt>
      <trkpt lat="45.71362" lon="4.63011">
        <ele>455.32</ele>
        <time>2014-11-02T10:52:37Z</time>
      </trkpt>
      <trkpt lat="45.71366" lon="4.63005">
        <ele>454.36</ele>
        <time>2014-11-02T10:52:38Z</time>
      </trkpt>
      <trkpt lat="45.71407" lon="4.62959">
        <ele>451</ele>
        <time>2014-11-02T10:52:51Z</time>
      </trkpt>
      <trkpt lat="45.7146" lon="4.62949">
        <ele>452.92</ele>
        <time>2014-11-02T10:53:05Z</time>
      </trkpt>
      <trkpt lat="45.71462" lon="4.62946">
        <ele>453.4</ele>
        <time>2014-11-02T10:53:06Z</time>
      </trkpt>
      <trkpt lat="45.71463" lon="4.62943">
        <ele>453.4</ele>
        <time>2014-11-02T10:53:07Z</time>
      </trkpt>
      <trkpt lat="45.71463" lon="4.62939">
        <ele>453.88</ele>
        <time>2014-11-02T10:53:08Z</time>
      </trkpt>
      <trkpt lat="45.71462" lon="4.62936">
        <ele>453.88</ele>
        <time>2014-11-02T10:53:09Z</time>
      </trkpt>
      <trkpt lat="45.71461" lon="4.62933">
        <ele>454.36</ele>
        <time>2014-11-02T10:53:10Z</time>
      </trkpt>
      <trkpt lat="45.7146" lon="4.6293">
        <ele>454.84</ele>
        <time>2014-11-02T10:53:11Z</time>
      </trkpt>
      <trkpt lat="45.71459" lon="4.62925">
        <ele>454.84</ele>
        <time>2014-11-02T10:53:12Z</time>
      </trkpt>
      <trkpt lat="45.71453" lon="4.62873">
        <ele>453.88</ele>
        <time>2014-11-02T10:53:21Z</time>
      </trkpt>
      <trkpt lat="45.71448" lon="4.62778">
        <ele>448.59</ele>
        <time>2014-11-02T10:53:28Z</time>
      </trkpt>
      <trkpt lat="45.71428" lon="4.62606">
        <ele>435.13</ele>
        <time>2014-11-02T10:53:37Z</time>
      </trkpt>
      <trkpt lat="45.71393" lon="4.62439">
        <ele>428.89</ele>
        <time>2014-11-02T10:53:47Z</time>
      </trkpt>
      <trkpt lat="45.71374" lon="4.62364">
        <ele>427.92</ele>
        <time>2014-11-02T10:53:53Z</time>
      </trkpt>
      <trkpt lat="45.71346" lon="4.6227">
        <ele>427.92</ele>
        <time>2014-11-02T10:54:04Z</time>
      </trkpt>
      <trkpt lat="45.71328" lon="4.62184">
        <ele>428.89</ele>
        <time>2014-11-02T10:54:17Z</time>
      </trkpt>
      <trkpt lat="45.7132" lon="4.62141">
        <ele>429.37</ele>
        <time>2014-11-02T10:54:23Z</time>
      </trkpt>
      <trkpt lat="45.71317" lon="4.62109">
        <ele>428.89</ele>
        <time>2014-11-02T10:54:27Z</time>
      </trkpt>
      <trkpt lat="45.71319" lon="4.62101">
        <ele>428.4</ele>
        <time>2014-11-02T10:54:28Z</time>
      </trkpt>
      <trkpt lat="45.71323" lon="4.62094">
        <ele>427.92</ele>
        <time>2014-11-02T10:54:29Z</time>
      </trkpt>
      <trkpt lat="45.71329" lon="4.62089">
        <ele>427.44</ele>
        <time>2014-11-02T10:54:30Z</time>
      </trkpt>
      <trkpt lat="45.71335" lon="4.62084">
        <ele>426.96</ele>
        <time>2014-11-02T10:54:31Z</time>
      </trkpt>
      <trkpt lat="45.71341" lon="4.62079">
        <ele>426.96</ele>
        <time>2014-11-02T10:54:32Z</time>
      </trkpt>
      <trkpt lat="45.71348" lon="4.62073">
        <ele>426.48</ele>
        <time>2014-11-02T10:54:33Z</time>
      </trkpt>
      <trkpt lat="45.71353" lon="4.62066">
        <ele>426</ele>
        <time>2014-11-02T10:54:34Z</time>
      </trkpt>
      <trkpt lat="45.71359" lon="4.62057">
        <ele>425.52</ele>
        <time>2014-11-02T10:54:35Z</time>
      </trkpt>
      <trkpt lat="45.71364" lon="4.62049">
        <ele>425.52</ele>
        <time>2014-11-02T10:54:36Z</time>
      </trkpt>
      <trkpt lat="45.71369" lon="4.62042">
        <ele>425.04</ele>
        <time>2014-11-02T10:54:37Z</time>
      </trkpt>
      <trkpt lat="45.71371" lon="4.62034">
        <ele>424.56</ele>
        <time>2014-11-02T10:54:38Z</time>
      </trkpt>
      <trkpt lat="45.71371" lon="4.62027">
        <ele>424.08</ele>
        <time>2014-11-02T10:54:39Z</time>
      </trkpt>
      <trkpt lat="45.7137" lon="4.62021">
        <ele>423.6</ele>
        <time>2014-11-02T10:54:40Z</time>
      </trkpt>
      <trkpt lat="45.71369" lon="4.62015">
        <ele>423.6</ele>
        <time>2014-11-02T10:54:41Z</time>
      </trkpt>
      <trkpt lat="45.71367" lon="4.6201">
        <ele>423.6</ele>
        <time>2014-11-02T10:54:42Z</time>
      </trkpt>
      <trkpt lat="45.71366" lon="4.62006">
        <ele>424.08</ele>
        <time>2014-11-02T10:54:43Z</time>
      </trkpt>
      <trkpt lat="45.71365" lon="4.62003">
        <ele>424.08</ele>
        <time>2014-11-02T10:54:44Z</time>
      </trkpt>
      <trkpt lat="45.71364" lon="4.61999">
        <ele>424.56</ele>
        <time>2014-11-02T10:54:45Z</time>
      </trkpt>
      <trkpt lat="45.71363" lon="4.61995">
        <ele>425.04</ele>
        <time>2014-11-02T10:54:46Z</time>
      </trkpt>
      <trkpt lat="45.71364" lon="4.61992">
        <ele>425.04</ele>
        <time>2014-11-02T10:54:47Z</time>
      </trkpt>
      <trkpt lat="45.71369" lon="4.61994">
        <ele>427.44</ele>
        <time>2014-11-02T10:54:52Z</time>
      </trkpt>
      <trkpt lat="45.71375" lon="4.62">
        <ele>429.37</ele>
        <time>2014-11-02T10:54:57Z</time>
      </trkpt>
      <trkpt lat="45.71387" lon="4.62003">
        <ele>430.81</ele>
        <time>2014-11-02T10:55:06Z</time>
      </trkpt>
      <trkpt lat="45.71396" lon="4.62005">
        <ele>431.77</ele>
        <time>2014-11-02T10:55:12Z</time>
      </trkpt>
      <trkpt lat="45.71401" lon="4.62023">
        <ele>432.73</ele>
        <time>2014-11-02T10:55:23Z</time>
      </trkpt>
      <trkpt lat="45.71411" lon="4.62041">
        <ele>437.54</ele>
        <time>2014-11-02T10:55:36Z</time>
      </trkpt>
      <trkpt lat="45.71418" lon="4.6205">
        <ele>440.9</ele>
        <time>2014-11-02T10:55:47Z</time>
      </trkpt>
      <trkpt lat="45.71421" lon="4.62052">
        <ele>441.38</ele>
        <time>2014-11-02T10:55:50Z</time>
      </trkpt>
      <trkpt lat="45.71426" lon="4.62065">
        <ele>442.34</ele>
        <time>2014-11-02T10:56:01Z</time>
      </trkpt>
      <trkpt lat="45.71429" lon="4.62073">
        <ele>442.34</ele>
        <time>2014-11-02T10:56:07Z</time>
      </trkpt>
      <trkpt lat="45.71434" lon="4.62081">
        <ele>442.82</ele>
        <time>2014-11-02T10:56:12Z</time>
      </trkpt>
      <trkpt lat="45.71438" lon="4.62091">
        <ele>444.75</ele>
        <time>2014-11-02T10:56:18Z</time>
      </trkpt>
      <trkpt lat="45.71445" lon="4.62105">
        <ele>445.71</ele>
        <time>2014-11-02T10:56:26Z</time>
      </trkpt>
      <trkpt lat="45.71449" lon="4.62113">
        <ele>447.15</ele>
        <time>2014-11-02T10:56:31Z</time>
      </trkpt>
      <trkpt lat="45.71457" lon="4.62123">
        <ele>448.11</ele>
        <time>2014-11-02T10:56:40Z</time>
      </trkpt>
      <trkpt lat="45.71463" lon="4.62133">
        <ele>448.59</ele>
        <time>2014-11-02T10:56:46Z</time>
      </trkpt>
      <trkpt lat="45.71464" lon="4.62136">
        <ele>448.59</ele>
        <time>2014-11-02T10:56:48Z</time>
      </trkpt>
      <trkpt lat="45.71465" lon="4.62138">
        <ele>449.07</ele>
        <time>2014-11-02T10:56:50Z</time>
      </trkpt>
      <trkpt lat="45.71475" lon="4.62144">
        <ele>450.03</ele>
        <time>2014-11-02T10:56:57Z</time>
      </trkpt>
      <trkpt lat="45.71488" lon="4.62154">
        <ele>451.96</ele>
        <time>2014-11-02T10:57:04Z</time>
      </trkpt>
      <trkpt lat="45.71505" lon="4.6216">
        <ele>452.92</ele>
        <time>2014-11-02T10:57:09Z</time>
      </trkpt>
      <trkpt lat="45.71508" lon="4.62166">
        <ele>453.4</ele>
        <time>2014-11-02T10:57:10Z</time>
      </trkpt>
      <trkpt lat="45.71509" lon="4.62172">
        <ele>453.4</ele>
        <time>2014-11-02T10:57:11Z</time>
      </trkpt>
      <trkpt lat="45.7151" lon="4.62179">
        <ele>453.4</ele>
        <time>2014-11-02T10:57:12Z</time>
      </trkpt>
      <trkpt lat="45.71511" lon="4.62185">
        <ele>453.88</ele>
        <time>2014-11-02T10:57:13Z</time>
      </trkpt>
      <trkpt lat="45.71514" lon="4.6221">
        <ele>455.32</ele>
        <time>2014-11-02T10:57:20Z</time>
      </trkpt>
      <trkpt lat="45.71516" lon="4.62223">
        <ele>456.76</ele>
        <time>2014-11-02T10:57:28Z</time>
      </trkpt>
      <trkpt lat="45.71517" lon="4.62225">
        <ele>456.76</ele>
        <time>2014-11-02T10:57:29Z</time>
      </trkpt>
      <trkpt lat="45.71521" lon="4.62247">
        <ele>457.72</ele>
        <time>2014-11-02T10:57:42Z</time>
      </trkpt>
      <trkpt lat="45.71523" lon="4.62255">
        <ele>458.21</ele>
        <time>2014-11-02T10:57:53Z</time>
      </trkpt>
      <trkpt lat="45.71527" lon="4.62265">
        <ele>457.72</ele>
        <time>2014-11-02T10:58:05Z</time>
      </trkpt>
      <trkpt lat="45.7153" lon="4.62276">
        <ele>457.72</ele>
        <time>2014-11-02T10:58:20Z</time>
      </trkpt>
      <trkpt lat="45.71535" lon="4.62286">
        <ele>460.13</ele>
        <time>2014-11-02T10:58:35Z</time>
      </trkpt>
      <trkpt lat="45.71541" lon="4.62294">
        <ele>463.97</ele>
        <time>2014-11-02T10:58:47Z</time>
      </trkpt>
      <trkpt lat="45.71546" lon="4.623">
        <ele>465.42</ele>
        <time>2014-11-02T10:59:01Z</time>
      </trkpt>
      <trkpt lat="45.7155" lon="4.62305">
        <ele>464.93</ele>
        <time>2014-11-02T10:59:14Z</time>
      </trkpt>
      <trkpt lat="45.71555" lon="4.62311">
        <ele>466.86</ele>
        <time>2014-11-02T10:59:26Z</time>
      </trkpt>
      <trkpt lat="45.71563" lon="4.6232">
        <ele>469.74</ele>
        <time>2014-11-02T10:59:41Z</time>
      </trkpt>
      <trkpt lat="45.71569" lon="4.62328">
        <ele>471.18</ele>
        <time>2014-11-02T10:59:54Z</time>
      </trkpt>
      <trkpt lat="45.71571" lon="4.62331">
        <ele>472.14</ele>
        <time>2014-11-02T11:00:09Z</time>
      </trkpt>
      <trkpt lat="45.71579" lon="4.62339">
        <ele>471.66</ele>
        <time>2014-11-02T11:00:19Z</time>
      </trkpt>
      <trkpt lat="45.71592" lon="4.6235">
        <ele>470.22</ele>
        <time>2014-11-02T11:00:29Z</time>
      </trkpt>
      <trkpt lat="45.71594" lon="4.6235">
        <ele>470.22</ele>
        <time>2014-11-02T11:00:30Z</time>
      </trkpt>
      <trkpt lat="45.71595" lon="4.62351">
        <ele>469.74</ele>
        <time>2014-11-02T11:00:31Z</time>
      </trkpt>
      <trkpt lat="45.71596" lon="4.62352">
        <ele>469.74</ele>
        <time>2014-11-02T11:00:32Z</time>
      </trkpt>
      <trkpt lat="45.71597" lon="4.62353">
        <ele>469.74</ele>
        <time>2014-11-02T11:00:33Z</time>
      </trkpt>
      <trkpt lat="45.716" lon="4.62354">
        <ele>470.22</ele>
        <time>2014-11-02T11:00:35Z</time>
      </trkpt>
      <trkpt lat="45.71601" lon="4.62354">
        <ele>470.22</ele>
        <time>2014-11-02T11:00:36Z</time>
      </trkpt>
      <trkpt lat="45.71603" lon="4.62355">
        <ele>469.74</ele>
        <time>2014-11-02T11:00:37Z</time>
      </trkpt>
      <trkpt lat="45.71605" lon="4.62356">
        <ele>470.22</ele>
        <time>2014-11-02T11:00:38Z</time>
      </trkpt>
      <trkpt lat="45.71607" lon="4.62358">
        <ele>470.7</ele>
        <time>2014-11-02T11:00:39Z</time>
      </trkpt>
      <trkpt lat="45.71612" lon="4.6236">
        <ele>471.66</ele>
        <time>2014-11-02T11:00:42Z</time>
      </trkpt>
      <trkpt lat="45.71627" lon="4.62363">
        <ele>475.51</ele>
        <time>2014-11-02T11:00:53Z</time>
      </trkpt>
      <trkpt lat="45.71628" lon="4.62363">
        <ele>475.51</ele>
        <time>2014-11-02T11:00:54Z</time>
      </trkpt>
      <trkpt lat="45.7163" lon="4.62364">
        <ele>475.99</ele>
        <time>2014-11-02T11:00:55Z</time>
      </trkpt>
      <trkpt lat="45.71634" lon="4.62362">
        <ele>477.91</ele>
        <time>2014-11-02T11:01:07Z</time>
      </trkpt>
      <trkpt lat="45.71644" lon="4.62367">
        <ele>477.91</ele>
        <time>2014-11-02T11:01:18Z</time>
      </trkpt>
      <trkpt lat="45.71674" lon="4.6239">
        <ele>477.43</ele>
        <time>2014-11-02T11:01:27Z</time>
      </trkpt>
      <trkpt lat="45.71678" lon="4.62394">
        <ele>476.95</ele>
        <time>2014-11-02T11:01:28Z</time>
      </trkpt>
      <trkpt lat="45.71692" lon="4.62406">
        <ele>476.47</ele>
        <time>2014-11-02T11:01:31Z</time>
      </trkpt>
      <trkpt lat="45.71697" lon="4.62408">
        <ele>475.99</ele>
        <time>2014-11-02T11:01:32Z</time>
      </trkpt>
      <trkpt lat="45.71701" lon="4.6241">
        <ele>475.51</ele>
        <time>2014-11-02T11:01:33Z</time>
      </trkpt>
      <trkpt lat="45.71706" lon="4.62412">
        <ele>475.51</ele>
        <time>2014-11-02T11:01:34Z</time>
      </trkpt>
      <trkpt lat="45.7171" lon="4.62414">
        <ele>475.03</ele>
        <time>2014-11-02T11:01:35Z</time>
      </trkpt>
      <trkpt lat="45.71714" lon="4.62416">
        <ele>475.03</ele>
        <time>2014-11-02T11:01:36Z</time>
      </trkpt>
      <trkpt lat="45.71717" lon="4.62417">
        <ele>475.03</ele>
        <time>2014-11-02T11:01:37Z</time>
      </trkpt>
      <trkpt lat="45.71733" lon="4.62432">
        <ele>472.63</ele>
        <time>2014-11-02T11:01:42Z</time>
      </trkpt>
      <trkpt lat="45.71761" lon="4.62451">
        <ele>470.7</ele>
        <time>2014-11-02T11:01:47Z</time>
      </trkpt>
      <trkpt lat="45.71786" lon="4.62472">
        <ele>469.74</ele>
        <time>2014-11-02T11:01:51Z</time>
      </trkpt>
      <trkpt lat="45.71819" lon="4.62495">
        <ele>467.82</ele>
        <time>2014-11-02T11:02:00Z</time>
      </trkpt>
      <trkpt lat="45.71854" lon="4.62501">
        <ele>467.82</ele>
        <time>2014-11-02T11:02:10Z</time>
      </trkpt>
      <trkpt lat="45.71894" lon="4.62496">
        <ele>466.38</ele>
        <time>2014-11-02T11:02:19Z</time>
      </trkpt>
      <trkpt lat="45.71899" lon="4.62494">
        <ele>465.9</ele>
        <time>2014-11-02T11:02:20Z</time>
      </trkpt>
      <trkpt lat="45.71904" lon="4.62493">
        <ele>465.9</ele>
        <time>2014-11-02T11:02:21Z</time>
      </trkpt>
      <trkpt lat="45.71958" lon="4.62448">
        <ele>468.3</ele>
        <time>2014-11-02T11:02:35Z</time>
      </trkpt>
      <trkpt lat="45.71989" lon="4.62383">
        <ele>469.74</ele>
        <time>2014-11-02T11:02:50Z</time>
      </trkpt>
      <trkpt lat="45.72014" lon="4.6232">
        <ele>471.66</ele>
        <time>2014-11-02T11:03:04Z</time>
      </trkpt>
      <trkpt lat="45.72029" lon="4.62253">
        <ele>474.07</ele>
        <time>2014-11-02T11:03:19Z</time>
      </trkpt>
      <trkpt lat="45.7202" lon="4.62228">
        <ele>474.55</ele>
        <time>2014-11-02T11:03:27Z</time>
      </trkpt>
      <trkpt lat="45.72019" lon="4.62226">
        <ele>475.03</ele>
        <time>2014-11-02T11:03:28Z</time>
      </trkpt>
      <trkpt lat="45.72017" lon="4.62225">
        <ele>475.03</ele>
        <time>2014-11-02T11:03:29Z</time>
      </trkpt>
      <trkpt lat="45.72014" lon="4.62215">
        <ele>475.03</ele>
        <time>2014-11-02T11:03:33Z</time>
      </trkpt>
      <trkpt lat="45.72015" lon="4.62214">
        <ele>475.03</ele>
        <time>2014-11-02T11:03:34Z</time>
      </trkpt>
      <trkpt lat="45.72016" lon="4.62212">
        <ele>475.51</ele>
        <time>2014-11-02T11:03:35Z</time>
      </trkpt>
      <trkpt lat="45.72017" lon="4.62211">
        <ele>475.03</ele>
        <time>2014-11-02T11:03:36Z</time>
      </trkpt>
      <trkpt lat="45.72018" lon="4.6221">
        <ele>475.03</ele>
        <time>2014-11-02T11:03:37Z</time>
      </trkpt>
      <trkpt lat="45.7202" lon="4.6221">
        <ele>474.55</ele>
        <time>2014-11-02T11:03:38Z</time>
      </trkpt>
      <trkpt lat="45.72022" lon="4.62209">
        <ele>474.55</ele>
        <time>2014-11-02T11:03:39Z</time>
      </trkpt>
      <trkpt lat="45.72023" lon="4.62208">
        <ele>475.03</ele>
        <time>2014-11-02T11:03:40Z</time>
      </trkpt>
      <trkpt lat="45.72024" lon="4.62207">
        <ele>475.03</ele>
        <time>2014-11-02T11:03:41Z</time>
      </trkpt>
      <trkpt lat="45.72025" lon="4.62206">
        <ele>475.03</ele>
        <time>2014-11-02T11:03:42Z</time>
      </trkpt>
      <trkpt lat="45.72027" lon="4.62206">
        <ele>475.51</ele>
        <time>2014-11-02T11:03:43Z</time>
      </trkpt>
      <trkpt lat="45.72028" lon="4.62206">
        <ele>475.51</ele>
        <time>2014-11-02T11:03:44Z</time>
      </trkpt>
      <trkpt lat="45.72029" lon="4.62205">
        <ele>475.51</ele>
        <time>2014-11-02T11:03:45Z</time>
      </trkpt>
      <trkpt lat="45.72031" lon="4.62205">
        <ele>475.51</ele>
        <time>2014-11-02T11:03:46Z</time>
      </trkpt>
      <trkpt lat="45.72033" lon="4.62205">
        <ele>475.51</ele>
        <time>2014-11-02T11:03:47Z</time>
      </trkpt>
      <trkpt lat="45.72035" lon="4.62205">
        <ele>475.99</ele>
        <time>2014-11-02T11:03:48Z</time>
      </trkpt>
      <trkpt lat="45.72038" lon="4.62205">
        <ele>475.99</ele>
        <time>2014-11-02T11:03:49Z</time>
      </trkpt>
      <trkpt lat="45.72045" lon="4.62206">
        <ele>476.95</ele>
        <time>2014-11-02T11:03:53Z</time>
      </trkpt>
      <trkpt lat="45.72047" lon="4.62206">
        <ele>477.43</ele>
        <time>2014-11-02T11:03:54Z</time>
      </trkpt>
      <trkpt lat="45.72049" lon="4.62207">
        <ele>477.91</ele>
        <time>2014-11-02T11:03:55Z</time>
      </trkpt>
      <trkpt lat="45.72052" lon="4.62208">
        <ele>478.87</ele>
        <time>2014-11-02T11:03:56Z</time>
      </trkpt>
      <trkpt lat="45.72054" lon="4.6221">
        <ele>479.84</ele>
        <time>2014-11-02T11:03:57Z</time>
      </trkpt>
      <trkpt lat="45.72056" lon="4.6221">
        <ele>480.32</ele>
        <time>2014-11-02T11:03:58Z</time>
      </trkpt>
      <trkpt lat="45.72082" lon="4.62207">
        <ele>481.28</ele>
        <time>2014-11-02T11:04:10Z</time>
      </trkpt>
      <trkpt lat="45.7211" lon="4.62183">
        <ele>482.24</ele>
        <time>2014-11-02T11:04:23Z</time>
      </trkpt>
      <trkpt lat="45.72143" lon="4.62149">
        <ele>483.68</ele>
        <time>2014-11-02T11:04:37Z</time>
      </trkpt>
      <trkpt lat="45.72174" lon="4.62134">
        <ele>479.84</ele>
        <time>2014-11-02T11:04:45Z</time>
      </trkpt>
      <trkpt lat="45.72179" lon="4.62132">
        <ele>479.35</ele>
        <time>2014-11-02T11:04:46Z</time>
      </trkpt>
      <trkpt lat="45.72195" lon="4.62126">
        <ele>478.39</ele>
        <time>2014-11-02T11:04:49Z</time>
      </trkpt>
      <trkpt lat="45.722" lon="4.62126">
        <ele>478.39</ele>
        <time>2014-11-02T11:04:50Z</time>
      </trkpt>
      <trkpt lat="45.72203" lon="4.62129">
        <ele>478.39</ele>
        <time>2014-11-02T11:04:51Z</time>
      </trkpt>
      <trkpt lat="45.7223" lon="4.62164">
        <ele>480.32</ele>
        <time>2014-11-02T11:05:04Z</time>
      </trkpt>
      <trkpt lat="45.72235" lon="4.62172">
        <ele>480.8</ele>
        <time>2014-11-02T11:05:08Z</time>
      </trkpt>
      <trkpt lat="45.72236" lon="4.62174">
        <ele>481.28</ele>
        <time>2014-11-02T11:05:09Z</time>
      </trkpt>
      <trkpt lat="45.72236" lon="4.62177">
        <ele>481.28</ele>
        <time>2014-11-02T11:05:10Z</time>
      </trkpt>
      <trkpt lat="45.72236" lon="4.62179">
        <ele>481.28</ele>
        <time>2014-11-02T11:05:11Z</time>
      </trkpt>
      <trkpt lat="45.72237" lon="4.62182">
        <ele>481.28</ele>
        <time>2014-11-02T11:05:12Z</time>
      </trkpt>
      <trkpt lat="45.72237" lon="4.62185">
        <ele>481.76</ele>
        <time>2014-11-02T11:05:13Z</time>
      </trkpt>
      <trkpt lat="45.72238" lon="4.62188">
        <ele>481.76</ele>
        <time>2014-11-02T11:05:14Z</time>
      </trkpt>
      <trkpt lat="45.72238" lon="4.62205">
        <ele>481.28</ele>
        <time>2014-11-02T11:05:20Z</time>
      </trkpt>
      <trkpt lat="45.72243" lon="4.62241">
        <ele>484.16</ele>
        <time>2014-11-02T11:05:33Z</time>
      </trkpt>
      <trkpt lat="45.72254" lon="4.6227">
        <ele>485.6</ele>
        <time>2014-11-02T11:05:45Z</time>
      </trkpt>
      <trkpt lat="45.72254" lon="4.62271">
        <ele>486.08</ele>
        <time>2014-11-02T11:05:46Z</time>
      </trkpt>
      <trkpt lat="45.72255" lon="4.62273">
        <ele>486.08</ele>
        <time>2014-11-02T11:05:47Z</time>
      </trkpt>
      <trkpt lat="45.72257" lon="4.62275">
        <ele>486.56</ele>
        <time>2014-11-02T11:05:48Z</time>
      </trkpt>
      <trkpt lat="45.72258" lon="4.62277">
        <ele>486.56</ele>
        <time>2014-11-02T11:05:49Z</time>
      </trkpt>
      <trkpt lat="45.72259" lon="4.62278">
        <ele>486.56</ele>
        <time>2014-11-02T11:05:50Z</time>
      </trkpt>
      <trkpt lat="45.7226" lon="4.62281">
        <ele>486.56</ele>
        <time>2014-11-02T11:05:51Z</time>
      </trkpt>
      <trkpt lat="45.72261" lon="4.62283">
        <ele>486.56</ele>
        <time>2014-11-02T11:05:52Z</time>
      </trkpt>
      <trkpt lat="45.72263" lon="4.62286">
        <ele>486.56</ele>
        <time>2014-11-02T11:05:53Z</time>
      </trkpt>
      <trkpt lat="45.72276" lon="4.62302">
        <ele>485.12</ele>
        <time>2014-11-02T11:05:58Z</time>
      </trkpt>
      <trkpt lat="45.72281" lon="4.62306">
        <ele>484.64</ele>
        <time>2014-11-02T11:05:59Z</time>
      </trkpt>
      <trkpt lat="45.7229" lon="4.62312">
        <ele>483.68</ele>
        <time>2014-11-02T11:06:01Z</time>
      </trkpt>
      <trkpt lat="45.72314" lon="4.62325">
        <ele>483.68</ele>
        <time>2014-11-02T11:06:10Z</time>
      </trkpt>
      <trkpt lat="45.72337" lon="4.62363">
        <ele>485.12</ele>
        <time>2014-11-02T11:06:24Z</time>
      </trkpt>
      <trkpt lat="45.72346" lon="4.62393">
        <ele>488.01</ele>
        <time>2014-11-02T11:06:34Z</time>
      </trkpt>
      <trkpt lat="45.72356" lon="4.62423">
        <ele>487.05</ele>
        <time>2014-11-02T11:06:46Z</time>
      </trkpt>
      <trkpt lat="45.72361" lon="4.62444">
        <ele>487.53</ele>
        <time>2014-11-02T11:06:53Z</time>
      </trkpt>
      <trkpt lat="45.72373" lon="4.62486">
        <ele>493.29</ele>
        <time>2014-11-02T11:07:08Z</time>
      </trkpt>
      <trkpt lat="45.72373" lon="4.62488">
        <ele>493.29</ele>
        <time>2014-11-02T11:07:09Z</time>
      </trkpt>
      <trkpt lat="45.72374" lon="4.6249">
        <ele>493.77</ele>
        <time>2014-11-02T11:07:10Z</time>
      </trkpt>
      <trkpt lat="45.72375" lon="4.62492">
        <ele>493.77</ele>
        <time>2014-11-02T11:07:11Z</time>
      </trkpt>
      <trkpt lat="45.72375" lon="4.62494">
        <ele>494.26</ele>
        <time>2014-11-02T11:07:12Z</time>
      </trkpt>
      <trkpt lat="45.72375" lon="4.62496">
        <ele>494.26</ele>
        <time>2014-11-02T11:07:13Z</time>
      </trkpt>
      <trkpt lat="45.72376" lon="4.62498">
        <ele>494.74</ele>
        <time>2014-11-02T11:07:14Z</time>
      </trkpt>
      <trkpt lat="45.72376" lon="4.625">
        <ele>494.74</ele>
        <time>2014-11-02T11:07:15Z</time>
      </trkpt>
      <trkpt lat="45.72377" lon="4.62502">
        <ele>494.74</ele>
        <time>2014-11-02T11:07:16Z</time>
      </trkpt>
      <trkpt lat="45.72378" lon="4.62503">
        <ele>494.74</ele>
        <time>2014-11-02T11:07:17Z</time>
      </trkpt>
      <trkpt lat="45.72378" lon="4.62505">
        <ele>494.74</ele>
        <time>2014-11-02T11:07:18Z</time>
      </trkpt>
      <trkpt lat="45.72379" lon="4.62506">
        <ele>494.74</ele>
        <time>2014-11-02T11:07:19Z</time>
      </trkpt>
      <trkpt lat="45.72379" lon="4.62508">
        <ele>495.22</ele>
        <time>2014-11-02T11:07:20Z</time>
      </trkpt>
      <trkpt lat="45.7238" lon="4.6251">
        <ele>495.22</ele>
        <time>2014-11-02T11:07:21Z</time>
      </trkpt>
      <trkpt lat="45.7238" lon="4.62512">
        <ele>495.7</ele>
        <time>2014-11-02T11:07:22Z</time>
      </trkpt>
      <trkpt lat="45.72389" lon="4.62541">
        <ele>499.54</ele>
        <time>2014-11-02T11:07:36Z</time>
      </trkpt>
      <trkpt lat="45.72393" lon="4.6255">
        <ele>500.5</ele>
        <time>2014-11-02T11:07:40Z</time>
      </trkpt>
      <trkpt lat="45.72393" lon="4.62553">
        <ele>500.5</ele>
        <time>2014-11-02T11:07:41Z</time>
      </trkpt>
      <trkpt lat="45.72394" lon="4.62556">
        <ele>500.98</ele>
        <time>2014-11-02T11:07:42Z</time>
      </trkpt>
      <trkpt lat="45.72394" lon="4.62559">
        <ele>500.98</ele>
        <time>2014-11-02T11:07:43Z</time>
      </trkpt>
      <trkpt lat="45.72395" lon="4.62561">
        <ele>500.98</ele>
        <time>2014-11-02T11:07:44Z</time>
      </trkpt>
      <trkpt lat="45.72396" lon="4.62564">
        <ele>501.46</ele>
        <time>2014-11-02T11:07:45Z</time>
      </trkpt>
      <trkpt lat="45.7241" lon="4.62592">
        <ele>501.95</ele>
        <time>2014-11-02T11:07:58Z</time>
      </trkpt>
      <trkpt lat="45.72418" lon="4.62602">
        <ele>502.91</ele>
        <time>2014-11-02T11:08:07Z</time>
      </trkpt>
      <trkpt lat="45.72419" lon="4.62601">
        <ele>502.91</ele>
        <time>2014-11-02T11:08:08Z</time>
      </trkpt>
      <trkpt lat="45.7242" lon="4.62601">
        <ele>502.91</ele>
        <time>2014-11-02T11:08:09Z</time>
      </trkpt>
      <trkpt lat="45.72421" lon="4.62592">
        <ele>503.87</ele>
        <time>2014-11-02T11:08:16Z</time>
      </trkpt>
      <trkpt lat="45.72424" lon="4.62583">
        <ele>504.83</ele>
        <time>2014-11-02T11:08:24Z</time>
      </trkpt>
      <trkpt lat="45.72426" lon="4.62566">
        <ele>508.19</ele>
        <time>2014-11-02T11:08:38Z</time>
      </trkpt>
      <trkpt lat="45.72426" lon="4.62563">
        <ele>508.67</ele>
        <time>2014-11-02T11:08:41Z</time>
      </trkpt>
      <trkpt lat="45.72429" lon="4.6255">
        <ele>510.12</ele>
        <time>2014-11-02T11:08:53Z</time>
      </trkpt>
      <trkpt lat="45.72433" lon="4.62535">
        <ele>513</ele>
        <time>2014-11-02T11:09:07Z</time>
      </trkpt>
      <trkpt lat="45.72434" lon="4.62529">
        <ele>513.48</ele>
        <time>2014-11-02T11:09:24Z</time>
      </trkpt>
      <trkpt lat="45.72434" lon="4.62527">
        <ele>513.48</ele>
        <time>2014-11-02T11:09:39Z</time>
      </trkpt>
      <trkpt lat="45.72435" lon="4.62526">
        <ele>513.48</ele>
        <time>2014-11-02T11:09:40Z</time>
      </trkpt>
      <trkpt lat="45.72435" lon="4.62524">
        <ele>513.48</ele>
        <time>2014-11-02T11:09:41Z</time>
      </trkpt>
      <trkpt lat="45.72441" lon="4.62501">
        <ele>517.81</ele>
        <time>2014-11-02T11:09:57Z</time>
      </trkpt>
      <trkpt lat="45.72442" lon="4.625">
        <ele>516.37</ele>
        <time>2014-11-02T11:10:22Z</time>
      </trkpt>
      <trkpt lat="45.72442" lon="4.625">
        <ele>516.85</ele>
        <time>2014-11-02T11:10:48Z</time>
      </trkpt>
      <trkpt lat="45.72442" lon="4.625">
        <ele>516.85</ele>
        <time>2014-11-02T11:11:11Z</time>
      </trkpt>
      <trkpt lat="45.72442" lon="4.62499">
        <ele>517.33</ele>
        <time>2014-11-02T11:11:28Z</time>
      </trkpt>
      <trkpt lat="45.72442" lon="4.62499">
        <ele>517.33</ele>
        <time>2014-11-02T11:11:52Z</time>
      </trkpt>
      <trkpt lat="45.72442" lon="4.62499">
        <ele>516.85</ele>
        <time>2014-11-02T11:12:20Z</time>
      </trkpt>
      <trkpt lat="45.72442" lon="4.62501">
        <ele>516.85</ele>
        <time>2014-11-02T11:12:46Z</time>
      </trkpt>
      <trkpt lat="45.72444" lon="4.625">
        <ele>516.85</ele>
        <time>2014-11-02T11:12:49Z</time>
      </trkpt>
      <trkpt lat="45.72445" lon="4.62501">
        <ele>516.85</ele>
        <time>2014-11-02T11:12:50Z</time>
      </trkpt>
      <trkpt lat="45.72447" lon="4.62502">
        <ele>516.85</ele>
        <time>2014-11-02T11:12:51Z</time>
      </trkpt>
      <trkpt lat="45.72449" lon="4.62503">
        <ele>516.85</ele>
        <time>2014-11-02T11:12:52Z</time>
      </trkpt>
      <trkpt lat="45.72451" lon="4.62504">
        <ele>516.85</ele>
        <time>2014-11-02T11:12:53Z</time>
      </trkpt>
      <trkpt lat="45.72472" lon="4.62499">
        <ele>516.37</ele>
        <time>2014-11-02T11:12:59Z</time>
      </trkpt>
      <trkpt lat="45.72476" lon="4.62496">
        <ele>516.37</ele>
        <time>2014-11-02T11:13:00Z</time>
      </trkpt>
      <trkpt lat="45.7248" lon="4.62492">
        <ele>516.37</ele>
        <time>2014-11-02T11:13:01Z</time>
      </trkpt>
      <trkpt lat="45.72484" lon="4.62487">
        <ele>516.37</ele>
        <time>2014-11-02T11:13:02Z</time>
      </trkpt>
      <trkpt lat="45.72487" lon="4.62482">
        <ele>515.88</ele>
        <time>2014-11-02T11:13:03Z</time>
      </trkpt>
      <trkpt lat="45.7249" lon="4.62476">
        <ele>515.88</ele>
        <time>2014-11-02T11:13:04Z</time>
      </trkpt>
      <trkpt lat="45.72493" lon="4.62469">
        <ele>515.88</ele>
        <time>2014-11-02T11:13:05Z</time>
      </trkpt>
      <trkpt lat="45.72502" lon="4.62448">
        <ele>515.4</ele>
        <time>2014-11-02T11:13:08Z</time>
      </trkpt>
      <trkpt lat="45.72534" lon="4.62339">
        <ele>513.96</ele>
        <time>2014-11-02T11:13:21Z</time>
      </trkpt>
      <trkpt lat="45.72558" lon="4.62295">
        <ele>513</ele>
        <time>2014-11-02T11:13:27Z</time>
      </trkpt>
      <trkpt lat="45.72563" lon="4.6229">
        <ele>512.52</ele>
        <time>2014-11-02T11:13:28Z</time>
      </trkpt>
      <trkpt lat="45.72569" lon="4.62286">
        <ele>512.52</ele>
        <time>2014-11-02T11:13:29Z</time>
      </trkpt>
      <trkpt lat="45.72576" lon="4.62286">
        <ele>512.52</ele>
        <time>2014-11-02T11:13:30Z</time>
      </trkpt>
      <trkpt lat="45.72582" lon="4.62289">
        <ele>512.04</ele>
        <time>2014-11-02T11:13:31Z</time>
      </trkpt>
      <trkpt lat="45.72588" lon="4.62295">
        <ele>511.56</ele>
        <time>2014-11-02T11:13:32Z</time>
      </trkpt>
      <trkpt lat="45.72594" lon="4.62303">
        <ele>511.56</ele>
        <time>2014-11-02T11:13:33Z</time>
      </trkpt>
      <trkpt lat="45.72599" lon="4.62311">
        <ele>511.08</ele>
        <time>2014-11-02T11:13:34Z</time>
      </trkpt>
      <trkpt lat="45.72609" lon="4.62328">
        <ele>511.08</ele>
        <time>2014-11-02T11:13:36Z</time>
      </trkpt>
      <trkpt lat="45.72614" lon="4.62335">
        <ele>511.08</ele>
        <time>2014-11-02T11:13:37Z</time>
      </trkpt>
      <trkpt lat="45.7262" lon="4.62341">
        <ele>510.6</ele>
        <time>2014-11-02T11:13:38Z</time>
      </trkpt>
      <trkpt lat="45.72627" lon="4.62345">
        <ele>510.6</ele>
        <time>2014-11-02T11:13:39Z</time>
      </trkpt>
      <trkpt lat="45.72634" lon="4.62347">
        <ele>510.6</ele>
        <time>2014-11-02T11:13:40Z</time>
      </trkpt>
      <trkpt lat="45.72641" lon="4.62348">
        <ele>510.6</ele>
        <time>2014-11-02T11:13:41Z</time>
      </trkpt>
      <trkpt lat="45.72648" lon="4.62348">
        <ele>510.12</ele>
        <time>2014-11-02T11:13:42Z</time>
      </trkpt>
      <trkpt lat="45.72663" lon="4.62351">
        <ele>509.64</ele>
        <time>2014-11-02T11:13:44Z</time>
      </trkpt>
      <trkpt lat="45.7267" lon="4.62356">
        <ele>509.16</ele>
        <time>2014-11-02T11:13:45Z</time>
      </trkpt>
      <trkpt lat="45.72676" lon="4.62363">
        <ele>508.67</ele>
        <time>2014-11-02T11:13:46Z</time>
      </trkpt>
      <trkpt lat="45.72682" lon="4.62372">
        <ele>508.67</ele>
        <time>2014-11-02T11:13:47Z</time>
      </trkpt>
      <trkpt lat="45.72687" lon="4.62381">
        <ele>508.67</ele>
        <time>2014-11-02T11:13:48Z</time>
      </trkpt>
      <trkpt lat="45.72694" lon="4.62401">
        <ele>508.19</ele>
        <time>2014-11-02T11:13:50Z</time>
      </trkpt>
      <trkpt lat="45.72697" lon="4.62412">
        <ele>507.71</ele>
        <time>2014-11-02T11:13:51Z</time>
      </trkpt>
      <trkpt lat="45.72705" lon="4.62456">
        <ele>507.23</ele>
        <time>2014-11-02T11:13:55Z</time>
      </trkpt>
      <trkpt lat="45.72713" lon="4.62517">
        <ele>506.27</ele>
        <time>2014-11-02T11:14:01Z</time>
      </trkpt>
      <trkpt lat="45.72716" lon="4.62526">
        <ele>506.27</ele>
        <time>2014-11-02T11:14:02Z</time>
      </trkpt>
      <trkpt lat="45.7272" lon="4.62533">
        <ele>506.27</ele>
        <time>2014-11-02T11:14:03Z</time>
      </trkpt>
      <trkpt lat="45.72725" lon="4.62538">
        <ele>506.27</ele>
        <time>2014-11-02T11:14:04Z</time>
      </trkpt>
      <trkpt lat="45.72731" lon="4.62542">
        <ele>506.27</ele>
        <time>2014-11-02T11:14:05Z</time>
      </trkpt>
      <trkpt lat="45.72738" lon="4.62544">
        <ele>505.79</ele>
        <time>2014-11-02T11:14:06Z</time>
      </trkpt>
      <trkpt lat="45.72744" lon="4.62545">
        <ele>505.31</ele>
        <time>2014-11-02T11:14:07Z</time>
      </trkpt>
      <trkpt lat="45.72752" lon="4.62545">
        <ele>505.31</ele>
        <time>2014-11-02T11:14:08Z</time>
      </trkpt>
      <trkpt lat="45.72759" lon="4.62544">
        <ele>505.31</ele>
        <time>2014-11-02T11:14:09Z</time>
      </trkpt>
      <trkpt lat="45.72766" lon="4.62542">
        <ele>505.31</ele>
        <time>2014-11-02T11:14:10Z</time>
      </trkpt>
      <trkpt lat="45.72773" lon="4.62539">
        <ele>504.83</ele>
        <time>2014-11-02T11:14:11Z</time>
      </trkpt>
      <trkpt lat="45.7278" lon="4.62535">
        <ele>504.83</ele>
        <time>2014-11-02T11:14:12Z</time>
      </trkpt>
      <trkpt lat="45.72786" lon="4.62531">
        <ele>504.35</ele>
        <time>2014-11-02T11:14:13Z</time>
      </trkpt>
      <trkpt lat="45.7284" lon="4.62487">
        <ele>502.43</ele>
        <time>2014-11-02T11:14:22Z</time>
      </trkpt>
      <trkpt lat="45.72865" lon="4.62456">
        <ele>500.98</ele>
        <time>2014-11-02T11:14:27Z</time>
      </trkpt>
      <trkpt lat="45.72868" lon="4.62448">
        <ele>500.5</ele>
        <time>2014-11-02T11:14:28Z</time>
      </trkpt>
      <trkpt lat="45.72875" lon="4.62435">
        <ele>499.54</ele>
        <time>2014-11-02T11:14:30Z</time>
      </trkpt>
      <trkpt lat="45.72877" lon="4.62431">
        <ele>499.06</ele>
        <time>2014-11-02T11:14:31Z</time>
      </trkpt>
      <trkpt lat="45.7288" lon="4.62428">
        <ele>499.06</ele>
        <time>2014-11-02T11:14:32Z</time>
      </trkpt>
      <trkpt lat="45.72883" lon="4.62425">
        <ele>498.58</ele>
        <time>2014-11-02T11:14:33Z</time>
      </trkpt>
      <trkpt lat="45.72885" lon="4.62423">
        <ele>498.1</ele>
        <time>2014-11-02T11:14:34Z</time>
      </trkpt>
      <trkpt lat="45.72887" lon="4.62421">
        <ele>497.62</ele>
        <time>2014-11-02T11:14:35Z</time>
      </trkpt>
      <trkpt lat="45.72889" lon="4.62419">
        <ele>497.62</ele>
        <time>2014-11-02T11:14:36Z</time>
      </trkpt>
      <trkpt lat="45.7289" lon="4.62417">
        <ele>497.14</ele>
        <time>2014-11-02T11:14:37Z</time>
      </trkpt>
      <trkpt lat="45.72892" lon="4.62416">
        <ele>497.14</ele>
        <time>2014-11-02T11:14:38Z</time>
      </trkpt>
      <trkpt lat="45.72893" lon="4.62415">
        <ele>497.14</ele>
        <time>2014-11-02T11:14:39Z</time>
      </trkpt>
      <trkpt lat="45.72894" lon="4.62414">
        <ele>496.66</ele>
        <time>2014-11-02T11:14:40Z</time>
      </trkpt>
      <trkpt lat="45.72895" lon="4.62413">
        <ele>496.66</ele>
        <time>2014-11-02T11:14:41Z</time>
      </trkpt>
      <trkpt lat="45.72897" lon="4.62412">
        <ele>497.14</ele>
        <time>2014-11-02T11:14:42Z</time>
      </trkpt>
      <trkpt lat="45.72898" lon="4.62411">
        <ele>497.14</ele>
        <time>2014-11-02T11:14:43Z</time>
      </trkpt>
      <trkpt lat="45.72911" lon="4.62402">
        <ele>500.98</ele>
        <time>2014-11-02T11:14:54Z</time>
      </trkpt>
      <trkpt lat="45.72931" lon="4.62394">
        <ele>507.23</ele>
        <time>2014-11-02T11:15:04Z</time>
      </trkpt>
      <trkpt lat="45.72945" lon="4.62386">
        <ele>511.08</ele>
        <time>2014-11-02T11:15:14Z</time>
      </trkpt>
      <trkpt lat="45.72963" lon="4.62372">
        <ele>514.92</ele>
        <time>2014-11-02T11:15:25Z</time>
      </trkpt>
      <trkpt lat="45.72978" lon="4.62357">
        <ele>516.37</ele>
        <time>2014-11-02T11:15:34Z</time>
      </trkpt>
      <trkpt lat="45.72999" lon="4.6234">
        <ele>520.69</ele>
        <time>2014-11-02T11:15:44Z</time>
      </trkpt>
      <trkpt lat="45.73002" lon="4.62336">
        <ele>522.13</ele>
        <time>2014-11-02T11:15:46Z</time>
      </trkpt>
      <trkpt lat="45.73003" lon="4.62334">
        <ele>522.61</ele>
        <time>2014-11-02T11:15:47Z</time>
      </trkpt>
      <trkpt lat="45.73006" lon="4.62329">
        <ele>525.02</ele>
        <time>2014-11-02T11:15:50Z</time>
      </trkpt>
      <trkpt lat="45.73006" lon="4.62326">
        <ele>525.98</ele>
        <time>2014-11-02T11:15:51Z</time>
      </trkpt>
      <trkpt lat="45.73007" lon="4.62324">
        <ele>527.42</ele>
        <time>2014-11-02T11:15:52Z</time>
      </trkpt>
      <trkpt lat="45.73008" lon="4.62322">
        <ele>527.9</ele>
        <time>2014-11-02T11:15:53Z</time>
      </trkpt>
      <trkpt lat="45.7301" lon="4.62321">
        <ele>528.86</ele>
        <time>2014-11-02T11:15:54Z</time>
      </trkpt>
      <trkpt lat="45.73011" lon="4.62319">
        <ele>529.82</ele>
        <time>2014-11-02T11:15:55Z</time>
      </trkpt>
      <trkpt lat="45.73012" lon="4.62316">
        <ele>529.82</ele>
        <time>2014-11-02T11:15:56Z</time>
      </trkpt>
      <trkpt lat="45.73014" lon="4.62309">
        <ele>530.3</ele>
        <time>2014-11-02T11:15:59Z</time>
      </trkpt>
      <trkpt lat="45.73014" lon="4.62306">
        <ele>530.3</ele>
        <time>2014-11-02T11:16:00Z</time>
      </trkpt>
      <trkpt lat="45.73015" lon="4.62303">
        <ele>530.3</ele>
        <time>2014-11-02T11:16:01Z</time>
      </trkpt>
      <trkpt lat="45.73015" lon="4.62301">
        <ele>530.79</ele>
        <time>2014-11-02T11:16:02Z</time>
      </trkpt>
      <trkpt lat="45.73016" lon="4.62298">
        <ele>530.79</ele>
        <time>2014-11-02T11:16:03Z</time>
      </trkpt>
      <trkpt lat="45.73016" lon="4.62289">
        <ele>532.23</ele>
        <time>2014-11-02T11:16:07Z</time>
      </trkpt>
      <trkpt lat="45.73016" lon="4.62286">
        <ele>532.23</ele>
        <time>2014-11-02T11:16:08Z</time>
      </trkpt>
      <trkpt lat="45.73015" lon="4.62284">
        <ele>532.71</ele>
        <time>2014-11-02T11:16:09Z</time>
      </trkpt>
      <trkpt lat="45.73013" lon="4.62282">
        <ele>532.71</ele>
        <time>2014-11-02T11:16:10Z</time>
      </trkpt>
      <trkpt lat="45.73013" lon="4.6228">
        <ele>533.19</ele>
        <time>2014-11-02T11:16:11Z</time>
      </trkpt>
      <trkpt lat="45.73012" lon="4.62278">
        <ele>533.19</ele>
        <time>2014-11-02T11:16:12Z</time>
      </trkpt>
      <trkpt lat="45.73012" lon="4.62276">
        <ele>533.67</ele>
        <time>2014-11-02T11:16:13Z</time>
      </trkpt>
      <trkpt lat="45.73012" lon="4.62273">
        <ele>534.15</ele>
        <time>2014-11-02T11:16:14Z</time>
      </trkpt>
      <trkpt lat="45.73012" lon="4.62271">
        <ele>534.63</ele>
        <time>2014-11-02T11:16:15Z</time>
      </trkpt>
      <trkpt lat="45.73011" lon="4.62263">
        <ele>536.55</ele>
        <time>2014-11-02T11:16:19Z</time>
      </trkpt>
      <trkpt lat="45.73011" lon="4.62261">
        <ele>536.55</ele>
        <time>2014-11-02T11:16:20Z</time>
      </trkpt>
      <trkpt lat="45.73011" lon="4.62253">
        <ele>537.51</ele>
        <time>2014-11-02T11:16:24Z</time>
      </trkpt>
      <trkpt lat="45.73009" lon="4.62245">
        <ele>538.48</ele>
        <time>2014-11-02T11:16:28Z</time>
      </trkpt>
      <trkpt lat="45.73009" lon="4.62242">
        <ele>538.48</ele>
        <time>2014-11-02T11:16:29Z</time>
      </trkpt>
      <trkpt lat="45.73009" lon="4.62239">
        <ele>538.96</ele>
        <time>2014-11-02T11:16:30Z</time>
      </trkpt>
      <trkpt lat="45.73009" lon="4.62237">
        <ele>538.96</ele>
        <time>2014-11-02T11:16:31Z</time>
      </trkpt>
      <trkpt lat="45.73008" lon="4.62235">
        <ele>538.96</ele>
        <time>2014-11-02T11:16:32Z</time>
      </trkpt>
      <trkpt lat="45.73007" lon="4.62232">
        <ele>538.96</ele>
        <time>2014-11-02T11:16:33Z</time>
      </trkpt>
      <trkpt lat="45.73007" lon="4.6223">
        <ele>538.96</ele>
        <time>2014-11-02T11:16:34Z</time>
      </trkpt>
      <trkpt lat="45.73006" lon="4.62228">
        <ele>538.96</ele>
        <time>2014-11-02T11:16:35Z</time>
      </trkpt>
      <trkpt lat="45.73005" lon="4.62225">
        <ele>539.44</ele>
        <time>2014-11-02T11:16:36Z</time>
      </trkpt>
      <trkpt lat="45.73005" lon="4.62223">
        <ele>539.44</ele>
        <time>2014-11-02T11:16:37Z</time>
      </trkpt>
      <trkpt lat="45.73004" lon="4.6222">
        <ele>539.92</ele>
        <time>2014-11-02T11:16:38Z</time>
      </trkpt>
      <trkpt lat="45.73003" lon="4.62218">
        <ele>539.92</ele>
        <time>2014-11-02T11:16:39Z</time>
      </trkpt>
      <trkpt lat="45.73001" lon="4.62212">
        <ele>540.88</ele>
        <time>2014-11-02T11:16:42Z</time>
      </trkpt>
      <trkpt lat="45.72998" lon="4.62204">
        <ele>539.44</ele>
        <time>2014-11-02T11:16:46Z</time>
      </trkpt>
      <trkpt lat="45.72996" lon="4.622">
        <ele>538.96</ele>
        <time>2014-11-02T11:16:48Z</time>
      </trkpt>
      <trkpt lat="45.72996" lon="4.62198">
        <ele>538.96</ele>
        <time>2014-11-02T11:16:49Z</time>
      </trkpt>
      <trkpt lat="45.72991" lon="4.62174">
        <ele>535.11</ele>
        <time>2014-11-02T11:16:58Z</time>
      </trkpt>
      <trkpt lat="45.72994" lon="4.62172">
        <ele>534.63</ele>
        <time>2014-11-02T11:17:00Z</time>
      </trkpt>
      <trkpt lat="45.73" lon="4.6215">
        <ele>532.71</ele>
        <time>2014-11-02T11:17:08Z</time>
      </trkpt>
      <trkpt lat="45.73001" lon="4.62144">
        <ele>532.23</ele>
        <time>2014-11-02T11:17:11Z</time>
      </trkpt>
      <trkpt lat="45.72992" lon="4.62107">
        <ele>532.23</ele>
        <time>2014-11-02T11:17:21Z</time>
      </trkpt>
      <trkpt lat="45.72994" lon="4.62074">
        <ele>530.79</ele>
        <time>2014-11-02T11:17:32Z</time>
      </trkpt>
      <trkpt lat="45.72999" lon="4.62063">
        <ele>532.71</ele>
        <time>2014-11-02T11:17:37Z</time>
      </trkpt>
      <trkpt lat="45.73006" lon="4.62044">
        <ele>533.67</ele>
        <time>2014-11-02T11:17:48Z</time>
      </trkpt>
      <trkpt lat="45.7301" lon="4.62033">
        <ele>533.67</ele>
        <time>2014-11-02T11:17:55Z</time>
      </trkpt>
      <trkpt lat="45.73017" lon="4.6202">
        <ele>535.11</ele>
        <time>2014-11-02T11:18:05Z</time>
      </trkpt>
      <trkpt lat="45.73019" lon="4.62016">
        <ele>535.11</ele>
        <time>2014-11-02T11:18:08Z</time>
      </trkpt>
      <trkpt lat="45.73021" lon="4.62006">
        <ele>536.55</ele>
        <time>2014-11-02T11:18:14Z</time>
      </trkpt>
      <trkpt lat="45.73023" lon="4.62004">
        <ele>537.03</ele>
        <time>2014-11-02T11:18:17Z</time>
      </trkpt>
      <trkpt lat="45.73028" lon="4.61993">
        <ele>538.48</ele>
        <time>2014-11-02T11:18:25Z</time>
      </trkpt>
      <trkpt lat="45.7303" lon="4.61991">
        <ele>537.99</ele>
        <time>2014-11-02T11:18:27Z</time>
      </trkpt>
      <trkpt lat="45.73039" lon="4.61972">
        <ele>537.99</ele>
        <time>2014-11-02T11:18:40Z</time>
      </trkpt>
      <trkpt lat="45.73044" lon="4.61959">
        <ele>539.92</ele>
        <time>2014-11-02T11:18:51Z</time>
      </trkpt>
      <trkpt lat="45.73048" lon="4.61947">
        <ele>542.8</ele>
        <time>2014-11-02T11:19:03Z</time>
      </trkpt>
      <trkpt lat="45.73054" lon="4.6193">
        <ele>544.72</ele>
        <time>2014-11-02T11:19:15Z</time>
      </trkpt>
      <trkpt lat="45.73059" lon="4.61911">
        <ele>546.65</ele>
        <time>2014-11-02T11:19:29Z</time>
      </trkpt>
      <trkpt lat="45.73065" lon="4.61897">
        <ele>548.09</ele>
        <time>2014-11-02T11:19:40Z</time>
      </trkpt>
      <trkpt lat="45.73065" lon="4.61895">
        <ele>548.09</ele>
        <time>2014-11-02T11:19:41Z</time>
      </trkpt>
      <trkpt lat="45.73069" lon="4.61872">
        <ele>549.05</ele>
        <time>2014-11-02T11:19:55Z</time>
      </trkpt>
      <trkpt lat="45.73067" lon="4.61853">
        <ele>550.01</ele>
        <time>2014-11-02T11:20:09Z</time>
      </trkpt>
      <trkpt lat="45.73064" lon="4.61837">
        <ele>552.41</ele>
        <time>2014-11-02T11:20:23Z</time>
      </trkpt>
      <trkpt lat="45.73063" lon="4.61825">
        <ele>551.93</ele>
        <time>2014-11-02T11:20:33Z</time>
      </trkpt>
      <trkpt lat="45.73062" lon="4.61808">
        <ele>553.38</ele>
        <time>2014-11-02T11:20:46Z</time>
      </trkpt>
      <trkpt lat="45.73066" lon="4.61793">
        <ele>554.82</ele>
        <time>2014-11-02T11:20:56Z</time>
      </trkpt>
      <trkpt lat="45.73065" lon="4.61777">
        <ele>555.78</ele>
        <time>2014-11-02T11:21:06Z</time>
      </trkpt>
      <trkpt lat="45.73064" lon="4.61766">
        <ele>556.74</ele>
        <time>2014-11-02T11:21:13Z</time>
      </trkpt>
      <trkpt lat="45.73059" lon="4.61749">
        <ele>558.18</ele>
        <time>2014-11-02T11:21:24Z</time>
      </trkpt>
      <trkpt lat="45.73058" lon="4.61746">
        <ele>559.14</ele>
        <time>2014-11-02T11:21:27Z</time>
      </trkpt>
      <trkpt lat="45.73058" lon="4.61741">
        <ele>559.62</ele>
        <time>2014-11-02T11:21:30Z</time>
      </trkpt>
      <trkpt lat="45.73056" lon="4.61729">
        <ele>560.11</ele>
        <time>2014-11-02T11:21:38Z</time>
      </trkpt>
      <trkpt lat="45.73055" lon="4.61721">
        <ele>560.59</ele>
        <time>2014-11-02T11:21:43Z</time>
      </trkpt>
      <trkpt lat="45.73059" lon="4.61705">
        <ele>562.51</ele>
        <time>2014-11-02T11:21:57Z</time>
      </trkpt>
      <trkpt lat="45.73065" lon="4.61699">
        <ele>566.35</ele>
        <time>2014-11-02T11:22:10Z</time>
      </trkpt>
      <trkpt lat="45.7307" lon="4.61703">
        <ele>567.32</ele>
        <time>2014-11-02T11:22:19Z</time>
      </trkpt>
      <trkpt lat="45.73071" lon="4.61709">
        <ele>567.32</ele>
        <time>2014-11-02T11:22:23Z</time>
      </trkpt>
      <trkpt lat="45.73081" lon="4.61748">
        <ele>568.76</ele>
        <time>2014-11-02T11:22:39Z</time>
      </trkpt>
      <trkpt lat="45.73102" lon="4.61788">
        <ele>568.28</ele>
        <time>2014-11-02T11:22:52Z</time>
      </trkpt>
      <trkpt lat="45.73125" lon="4.61825">
        <ele>568.28</ele>
        <time>2014-11-02T11:23:08Z</time>
      </trkpt>
      <trkpt lat="45.73144" lon="4.61869">
        <ele>570.68</ele>
        <time>2014-11-02T11:23:23Z</time>
      </trkpt>
      <trkpt lat="45.73145" lon="4.61871">
        <ele>570.68</ele>
        <time>2014-11-02T11:23:24Z</time>
      </trkpt>
      <trkpt lat="45.73148" lon="4.61914">
        <ele>573.56</ele>
        <time>2014-11-02T11:23:38Z</time>
      </trkpt>
      <trkpt lat="45.73144" lon="4.61959">
        <ele>575.97</ele>
        <time>2014-11-02T11:23:51Z</time>
      </trkpt>
      <trkpt lat="45.73146" lon="4.62006">
        <ele>579.33</ele>
        <time>2014-11-02T11:24:09Z</time>
      </trkpt>
      <trkpt lat="45.73146" lon="4.6201">
        <ele>579.33</ele>
        <time>2014-11-02T11:24:11Z</time>
      </trkpt>
      <trkpt lat="45.73154" lon="4.62039">
        <ele>580.77</ele>
        <time>2014-11-02T11:24:25Z</time>
      </trkpt>
      <trkpt lat="45.73166" lon="4.62067">
        <ele>582.22</ele>
        <time>2014-11-02T11:24:39Z</time>
      </trkpt>
      <trkpt lat="45.73188" lon="4.62086">
        <ele>581.73</ele>
        <time>2014-11-02T11:24:51Z</time>
      </trkpt>
      <trkpt lat="45.73218" lon="4.62104">
        <ele>582.7</ele>
        <time>2014-11-02T11:25:02Z</time>
      </trkpt>
      <trkpt lat="45.7323" lon="4.62116">
        <ele>584.14</ele>
        <time>2014-11-02T11:25:10Z</time>
      </trkpt>
      <trkpt lat="45.73233" lon="4.6212">
        <ele>584.62</ele>
        <time>2014-11-02T11:25:13Z</time>
      </trkpt>
      <trkpt lat="45.73241" lon="4.62138">
        <ele>586.54</ele>
        <time>2014-11-02T11:25:25Z</time>
      </trkpt>
      <trkpt lat="45.73247" lon="4.6215">
        <ele>588.46</ele>
        <time>2014-11-02T11:25:35Z</time>
      </trkpt>
      <trkpt lat="45.73248" lon="4.62157">
        <ele>588.95</ele>
        <time>2014-11-02T11:25:39Z</time>
      </trkpt>
      <trkpt lat="45.73251" lon="4.62184">
        <ele>590.87</ele>
        <time>2014-11-02T11:25:53Z</time>
      </trkpt>
      <trkpt lat="45.73253" lon="4.622">
        <ele>591.83</ele>
        <time>2014-11-02T11:26:00Z</time>
      </trkpt>
      <trkpt lat="45.73254" lon="4.62235">
        <ele>592.79</ele>
        <time>2014-11-02T11:26:16Z</time>
      </trkpt>
      <trkpt lat="45.73254" lon="4.62243">
        <ele>593.75</ele>
        <time>2014-11-02T11:26:21Z</time>
      </trkpt>
      <trkpt lat="45.73253" lon="4.62253">
        <ele>595.19</ele>
        <time>2014-11-02T11:26:27Z</time>
      </trkpt>
      <trkpt lat="45.73253" lon="4.62258">
        <ele>596.15</ele>
        <time>2014-11-02T11:26:30Z</time>
      </trkpt>
      <trkpt lat="45.73253" lon="4.62266">
        <ele>598.08</ele>
        <time>2014-11-02T11:26:36Z</time>
      </trkpt>
      <trkpt lat="45.73253" lon="4.62278">
        <ele>599.52</ele>
        <time>2014-11-02T11:26:46Z</time>
      </trkpt>
      <trkpt lat="45.73253" lon="4.62287">
        <ele>600.96</ele>
        <time>2014-11-02T11:26:53Z</time>
      </trkpt>
      <trkpt lat="45.73252" lon="4.62296">
        <ele>601.92</ele>
        <time>2014-11-02T11:26:58Z</time>
      </trkpt>
      <trkpt lat="45.73255" lon="4.62321">
        <ele>603.36</ele>
        <time>2014-11-02T11:27:11Z</time>
      </trkpt>
      <trkpt lat="45.73257" lon="4.62336">
        <ele>603.36</ele>
        <time>2014-11-02T11:27:18Z</time>
      </trkpt>
      <trkpt lat="45.73258" lon="4.62352">
        <ele>602.88</ele>
        <time>2014-11-02T11:27:27Z</time>
      </trkpt>
      <trkpt lat="45.73259" lon="4.62368">
        <ele>603.85</ele>
        <time>2014-11-02T11:27:35Z</time>
      </trkpt>
      <trkpt lat="45.7326" lon="4.62389">
        <ele>604.33</ele>
        <time>2014-11-02T11:27:46Z</time>
      </trkpt>
      <trkpt lat="45.73256" lon="4.62424">
        <ele>603.85</ele>
        <time>2014-11-02T11:28:00Z</time>
      </trkpt>
      <trkpt lat="45.7326" lon="4.62463">
        <ele>607.21</ele>
        <time>2014-11-02T11:28:15Z</time>
      </trkpt>
      <trkpt lat="45.73277" lon="4.62493">
        <ele>610.09</ele>
        <time>2014-11-02T11:28:29Z</time>
      </trkpt>
      <trkpt lat="45.73289" lon="4.62517">
        <ele>612.5</ele>
        <time>2014-11-02T11:28:40Z</time>
      </trkpt>
      <trkpt lat="45.7329" lon="4.62524">
        <ele>612.98</ele>
        <time>2014-11-02T11:28:43Z</time>
      </trkpt>
      <trkpt lat="45.73289" lon="4.62536">
        <ele>613.46</ele>
        <time>2014-11-02T11:28:49Z</time>
      </trkpt>
      <trkpt lat="45.73288" lon="4.6254">
        <ele>613.46</ele>
        <time>2014-11-02T11:28:51Z</time>
      </trkpt>
      <trkpt lat="45.73268" lon="4.62575">
        <ele>615.38</ele>
        <time>2014-11-02T11:29:07Z</time>
      </trkpt>
      <trkpt lat="45.73238" lon="4.62636">
        <ele>615.38</ele>
        <time>2014-11-02T11:29:23Z</time>
      </trkpt>
      <trkpt lat="45.73211" lon="4.62691">
        <ele>615.38</ele>
        <time>2014-11-02T11:29:36Z</time>
      </trkpt>
      <trkpt lat="45.73198" lon="4.62723">
        <ele>617.78</ele>
        <time>2014-11-02T11:29:46Z</time>
      </trkpt>
      <trkpt lat="45.73194" lon="4.62738">
        <ele>618.26</ele>
        <time>2014-11-02T11:29:58Z</time>
      </trkpt>
      <trkpt lat="45.73193" lon="4.62739">
        <ele>619.23</ele>
        <time>2014-11-02T11:30:23Z</time>
      </trkpt>
      <trkpt lat="45.73193" lon="4.62739">
        <ele>619.23</ele>
        <time>2014-11-02T11:30:46Z</time>
      </trkpt>
      <trkpt lat="45.73193" lon="4.62739">
        <ele>619.23</ele>
        <time>2014-11-02T11:30:53Z</time>
      </trkpt>
      <trkpt lat="45.73192" lon="4.62748">
        <ele>619.23</ele>
        <time>2014-11-02T11:30:57Z</time>
      </trkpt>
      <trkpt lat="45.73185" lon="4.62779">
        <ele>616.82</ele>
        <time>2014-11-02T11:31:02Z</time>
      </trkpt>
      <trkpt lat="45.73166" lon="4.62829">
        <ele>613.46</ele>
        <time>2014-11-02T11:31:08Z</time>
      </trkpt>
      <trkpt lat="45.7316" lon="4.62849">
        <ele>612.5</ele>
        <time>2014-11-02T11:31:10Z</time>
      </trkpt>
      <trkpt lat="45.73155" lon="4.62882">
        <ele>611.54</ele>
        <time>2014-11-02T11:31:13Z</time>
      </trkpt>
      <trkpt lat="45.73152" lon="4.63013">
        <ele>609.61</ele>
        <time>2014-11-02T11:31:25Z</time>
      </trkpt>
      <trkpt lat="45.73153" lon="4.63022">
        <ele>609.61</ele>
        <time>2014-11-02T11:31:26Z</time>
      </trkpt>
      <trkpt lat="45.73156" lon="4.63031">
        <ele>609.13</ele>
        <time>2014-11-02T11:31:27Z</time>
      </trkpt>
      <trkpt lat="45.73159" lon="4.63037">
        <ele>609.13</ele>
        <time>2014-11-02T11:31:28Z</time>
      </trkpt>
      <trkpt lat="45.73163" lon="4.63042">
        <ele>609.13</ele>
        <time>2014-11-02T11:31:29Z</time>
      </trkpt>
      <trkpt lat="45.73165" lon="4.63046">
        <ele>608.65</ele>
        <time>2014-11-02T11:31:30Z</time>
      </trkpt>
      <trkpt lat="45.73167" lon="4.6305">
        <ele>608.17</ele>
        <time>2014-11-02T11:31:31Z</time>
      </trkpt>
      <trkpt lat="45.73169" lon="4.63054">
        <ele>608.17</ele>
        <time>2014-11-02T11:31:32Z</time>
      </trkpt>
      <trkpt lat="45.73171" lon="4.63058">
        <ele>607.69</ele>
        <time>2014-11-02T11:31:33Z</time>
      </trkpt>
      <trkpt lat="45.73173" lon="4.63061">
        <ele>607.69</ele>
        <time>2014-11-02T11:31:34Z</time>
      </trkpt>
      <trkpt lat="45.73175" lon="4.63066">
        <ele>607.21</ele>
        <time>2014-11-02T11:31:35Z</time>
      </trkpt>
      <trkpt lat="45.73178" lon="4.6307">
        <ele>606.73</ele>
        <time>2014-11-02T11:31:36Z</time>
      </trkpt>
      <trkpt lat="45.73182" lon="4.63075">
        <ele>606.25</ele>
        <time>2014-11-02T11:31:37Z</time>
      </trkpt>
      <trkpt lat="45.73185" lon="4.6308">
        <ele>605.77</ele>
        <time>2014-11-02T11:31:38Z</time>
      </trkpt>
      <trkpt lat="45.73189" lon="4.63085">
        <ele>605.29</ele>
        <time>2014-11-02T11:31:39Z</time>
      </trkpt>
      <trkpt lat="45.73218" lon="4.63117">
        <ele>597.12</ele>
        <time>2014-11-02T11:31:48Z</time>
      </trkpt>
      <trkpt lat="45.73218" lon="4.6312">
        <ele>595.67</ele>
        <time>2014-11-02T11:31:49Z</time>
      </trkpt>
      <trkpt lat="45.73219" lon="4.63122">
        <ele>594.23</ele>
        <time>2014-11-02T11:31:50Z</time>
      </trkpt>
      <trkpt lat="45.7322" lon="4.63126">
        <ele>592.79</ele>
        <time>2014-11-02T11:31:51Z</time>
      </trkpt>
      <trkpt lat="45.73222" lon="4.6313">
        <ele>591.35</ele>
        <time>2014-11-02T11:31:52Z</time>
      </trkpt>
      <trkpt lat="45.73224" lon="4.63133">
        <ele>589.91</ele>
        <time>2014-11-02T11:31:53Z</time>
      </trkpt>
      <trkpt lat="45.73226" lon="4.63138">
        <ele>588.46</ele>
        <time>2014-11-02T11:31:54Z</time>
      </trkpt>
      <trkpt lat="45.73228" lon="4.63141">
        <ele>587.02</ele>
        <time>2014-11-02T11:31:55Z</time>
      </trkpt>
      <trkpt lat="45.73229" lon="4.63144">
        <ele>586.06</ele>
        <time>2014-11-02T11:31:56Z</time>
      </trkpt>
      <trkpt lat="45.73231" lon="4.63153">
        <ele>579.81</ele>
        <time>2014-11-02T11:32:06Z</time>
      </trkpt>
      <trkpt lat="45.73231" lon="4.63165">
        <ele>575.49</ele>
        <time>2014-11-02T11:32:18Z</time>
      </trkpt>
      <trkpt lat="45.7323" lon="4.63167">
        <ele>574.53</ele>
        <time>2014-11-02T11:32:19Z</time>
      </trkpt>
      <trkpt lat="45.7323" lon="4.63171">
        <ele>574.04</ele>
        <time>2014-11-02T11:32:20Z</time>
      </trkpt>
      <trkpt lat="45.7323" lon="4.63179">
        <ele>572.12</ele>
        <time>2014-11-02T11:32:22Z</time>
      </trkpt>
      <trkpt lat="45.7324" lon="4.63216">
        <ele>563.47</ele>
        <time>2014-11-02T11:32:30Z</time>
      </trkpt>
      <trkpt lat="45.73246" lon="4.63235">
        <ele>559.62</ele>
        <time>2014-11-02T11:32:34Z</time>
      </trkpt>
      <trkpt lat="45.73248" lon="4.63236">
        <ele>558.66</ele>
        <time>2014-11-02T11:32:35Z</time>
      </trkpt>
      <trkpt lat="45.73251" lon="4.63247">
        <ele>556.74</ele>
        <time>2014-11-02T11:32:43Z</time>
      </trkpt>
      <trkpt lat="45.73252" lon="4.63253">
        <ele>558.18</ele>
        <time>2014-11-02T11:32:58Z</time>
      </trkpt>
      <trkpt lat="45.73254" lon="4.63261">
        <ele>557.7</ele>
        <time>2014-11-02T11:33:03Z</time>
      </trkpt>
      <trkpt lat="45.73261" lon="4.63271">
        <ele>555.78</ele>
        <time>2014-11-02T11:33:09Z</time>
      </trkpt>
      <trkpt lat="45.73261" lon="4.63273">
        <ele>555.3</ele>
        <time>2014-11-02T11:33:10Z</time>
      </trkpt>
      <trkpt lat="45.73262" lon="4.63275">
        <ele>555.3</ele>
        <time>2014-11-02T11:33:11Z</time>
      </trkpt>
      <trkpt lat="45.73263" lon="4.63277">
        <ele>554.82</ele>
        <time>2014-11-02T11:33:12Z</time>
      </trkpt>
      <trkpt lat="45.73264" lon="4.6328">
        <ele>554.82</ele>
        <time>2014-11-02T11:33:13Z</time>
      </trkpt>
      <trkpt lat="45.73265" lon="4.63283">
        <ele>554.34</ele>
        <time>2014-11-02T11:33:14Z</time>
      </trkpt>
      <trkpt lat="45.73267" lon="4.63285">
        <ele>553.86</ele>
        <time>2014-11-02T11:33:15Z</time>
      </trkpt>
      <trkpt lat="45.73269" lon="4.63288">
        <ele>553.38</ele>
        <time>2014-11-02T11:33:16Z</time>
      </trkpt>
      <trkpt lat="45.7327" lon="4.63292">
        <ele>551.93</ele>
        <time>2014-11-02T11:33:18Z</time>
      </trkpt>
      <trkpt lat="45.73273" lon="4.63315">
        <ele>548.57</ele>
        <time>2014-11-02T11:33:29Z</time>
      </trkpt>
      <trkpt lat="45.73274" lon="4.63317">
        <ele>548.09</ele>
        <time>2014-11-02T11:33:30Z</time>
      </trkpt>
      <trkpt lat="45.73275" lon="4.63319">
        <ele>547.61</ele>
        <time>2014-11-02T11:33:31Z</time>
      </trkpt>
      <trkpt lat="45.73277" lon="4.63326">
        <ele>546.17</ele>
        <time>2014-11-02T11:33:34Z</time>
      </trkpt>
      <trkpt lat="45.73277" lon="4.63328">
        <ele>545.69</ele>
        <time>2014-11-02T11:33:35Z</time>
      </trkpt>
      <trkpt lat="45.73276" lon="4.63333">
        <ele>544.24</ele>
        <time>2014-11-02T11:33:37Z</time>
      </trkpt>
      <trkpt lat="45.73276" lon="4.63335">
        <ele>543.76</ele>
        <time>2014-11-02T11:33:38Z</time>
      </trkpt>
      <trkpt lat="45.73277" lon="4.63339">
        <ele>543.28</ele>
        <time>2014-11-02T11:33:39Z</time>
      </trkpt>
      <trkpt lat="45.73278" lon="4.63344">
        <ele>542.8</ele>
        <time>2014-11-02T11:33:40Z</time>
      </trkpt>
      <trkpt lat="45.73278" lon="4.63349">
        <ele>542.32</ele>
        <time>2014-11-02T11:33:41Z</time>
      </trkpt>
      <trkpt lat="45.7328" lon="4.63356">
        <ele>541.84</ele>
        <time>2014-11-02T11:33:42Z</time>
      </trkpt>
      <trkpt lat="45.73282" lon="4.63363">
        <ele>541.36</ele>
        <time>2014-11-02T11:33:43Z</time>
      </trkpt>
      <trkpt lat="45.73284" lon="4.63372">
        <ele>540.4</ele>
        <time>2014-11-02T11:33:44Z</time>
      </trkpt>
      <trkpt lat="45.73289" lon="4.63401">
        <ele>537.51</ele>
        <time>2014-11-02T11:33:47Z</time>
      </trkpt>
      <trkpt lat="45.7329" lon="4.63423">
        <ele>535.11</ele>
        <time>2014-11-02T11:33:49Z</time>
      </trkpt>
      <trkpt lat="45.7329" lon="4.63434">
        <ele>534.63</ele>
        <time>2014-11-02T11:33:50Z</time>
      </trkpt>
      <trkpt lat="45.7329" lon="4.63444">
        <ele>533.67</ele>
        <time>2014-11-02T11:33:51Z</time>
      </trkpt>
      <trkpt lat="45.73292" lon="4.6347">
        <ele>531.27</ele>
        <time>2014-11-02T11:33:54Z</time>
      </trkpt>
      <trkpt lat="45.73293" lon="4.63478">
        <ele>530.79</ele>
        <time>2014-11-02T11:33:55Z</time>
      </trkpt>
      <trkpt lat="45.73294" lon="4.63487">
        <ele>530.3</ele>
        <time>2014-11-02T11:33:56Z</time>
      </trkpt>
      <trkpt lat="45.73295" lon="4.63494">
        <ele>529.34</ele>
        <time>2014-11-02T11:33:57Z</time>
      </trkpt>
      <trkpt lat="45.73297" lon="4.63503">
        <ele>528.86</ele>
        <time>2014-11-02T11:33:58Z</time>
      </trkpt>
      <trkpt lat="45.73303" lon="4.63561">
        <ele>523.58</ele>
        <time>2014-11-02T11:34:04Z</time>
      </trkpt>
      <trkpt lat="45.73319" lon="4.6369">
        <ele>519.25</ele>
        <time>2014-11-02T11:34:15Z</time>
      </trkpt>
      <trkpt lat="45.73322" lon="4.63699">
        <ele>518.77</ele>
        <time>2014-11-02T11:34:16Z</time>
      </trkpt>
      <trkpt lat="45.7333" lon="4.63725">
        <ele>517.33</ele>
        <time>2014-11-02T11:34:19Z</time>
      </trkpt>
      <trkpt lat="45.73339" lon="4.63766">
        <ele>511.08</ele>
        <time>2014-11-02T11:34:26Z</time>
      </trkpt>
      <trkpt lat="45.73339" lon="4.63774">
        <ele>509.64</ele>
        <time>2014-11-02T11:34:27Z</time>
      </trkpt>
      <trkpt lat="45.73341" lon="4.63793">
        <ele>507.23</ele>
        <time>2014-11-02T11:34:29Z</time>
      </trkpt>
      <trkpt lat="45.73343" lon="4.63803">
        <ele>506.27</ele>
        <time>2014-11-02T11:34:30Z</time>
      </trkpt>
      <trkpt lat="45.73346" lon="4.63826">
        <ele>502.43</ele>
        <time>2014-11-02T11:34:33Z</time>
      </trkpt>
      <trkpt lat="45.7335" lon="4.63844">
        <ele>500.02</ele>
        <time>2014-11-02T11:34:35Z</time>
      </trkpt>
      <trkpt lat="45.73353" lon="4.63854">
        <ele>499.06</ele>
        <time>2014-11-02T11:34:36Z</time>
      </trkpt>
      <trkpt lat="45.73355" lon="4.63863">
        <ele>497.62</ele>
        <time>2014-11-02T11:34:37Z</time>
      </trkpt>
      <trkpt lat="45.73364" lon="4.63904">
        <ele>492.81</ele>
        <time>2014-11-02T11:34:41Z</time>
      </trkpt>
      <trkpt lat="45.73378" lon="4.63953">
        <ele>488.01</ele>
        <time>2014-11-02T11:34:46Z</time>
      </trkpt>
      <trkpt lat="45.73383" lon="4.63963">
        <ele>486.56</ele>
        <time>2014-11-02T11:34:47Z</time>
      </trkpt>
      <trkpt lat="45.73398" lon="4.63988">
        <ele>483.2</ele>
        <time>2014-11-02T11:34:50Z</time>
      </trkpt>
      <trkpt lat="45.73402" lon="4.63997">
        <ele>482.24</ele>
        <time>2014-11-02T11:34:51Z</time>
      </trkpt>
      <trkpt lat="45.73405" lon="4.64005">
        <ele>481.28</ele>
        <time>2014-11-02T11:34:52Z</time>
      </trkpt>
      <trkpt lat="45.73413" lon="4.64032">
        <ele>478.39</ele>
        <time>2014-11-02T11:34:55Z</time>
      </trkpt>
      <trkpt lat="45.73417" lon="4.64039">
        <ele>477.43</ele>
        <time>2014-11-02T11:34:56Z</time>
      </trkpt>
      <trkpt lat="45.73421" lon="4.64047">
        <ele>476.47</ele>
        <time>2014-11-02T11:34:57Z</time>
      </trkpt>
      <trkpt lat="45.73439" lon="4.64073">
        <ele>473.59</ele>
        <time>2014-11-02T11:35:01Z</time>
      </trkpt>
      <trkpt lat="45.73447" lon="4.64087">
        <ele>472.63</ele>
        <time>2014-11-02T11:35:03Z</time>
      </trkpt>
      <trkpt lat="45.73451" lon="4.64093">
        <ele>472.63</ele>
        <time>2014-11-02T11:35:04Z</time>
      </trkpt>
      <trkpt lat="45.73476" lon="4.64129">
        <ele>470.7</ele>
        <time>2014-11-02T11:35:10Z</time>
      </trkpt>
      <trkpt lat="45.7349" lon="4.64148">
        <ele>469.26</ele>
        <time>2014-11-02T11:35:13Z</time>
      </trkpt>
      <trkpt lat="45.73499" lon="4.6416">
        <ele>467.34</ele>
        <time>2014-11-02T11:35:15Z</time>
      </trkpt>
      <trkpt lat="45.73502" lon="4.64165">
        <ele>466.86</ele>
        <time>2014-11-02T11:35:16Z</time>
      </trkpt>
      <trkpt lat="45.73508" lon="4.64176">
        <ele>464.93</ele>
        <time>2014-11-02T11:35:18Z</time>
      </trkpt>
      <trkpt lat="45.73511" lon="4.6418">
        <ele>463.97</ele>
        <time>2014-11-02T11:35:19Z</time>
      </trkpt>
      <trkpt lat="45.73515" lon="4.64185">
        <ele>462.53</ele>
        <time>2014-11-02T11:35:20Z</time>
      </trkpt>
      <trkpt lat="45.73519" lon="4.6419">
        <ele>461.57</ele>
        <time>2014-11-02T11:35:21Z</time>
      </trkpt>
      <trkpt lat="45.73524" lon="4.64196">
        <ele>460.13</ele>
        <time>2014-11-02T11:35:22Z</time>
      </trkpt>
      <trkpt lat="45.73529" lon="4.64201">
        <ele>458.69</ele>
        <time>2014-11-02T11:35:23Z</time>
      </trkpt>
      <trkpt lat="45.73533" lon="4.64208">
        <ele>457.72</ele>
        <time>2014-11-02T11:35:24Z</time>
      </trkpt>
      <trkpt lat="45.73538" lon="4.64215">
        <ele>456.28</ele>
        <time>2014-11-02T11:35:25Z</time>
      </trkpt>
      <trkpt lat="45.73543" lon="4.64224">
        <ele>454.84</ele>
        <time>2014-11-02T11:35:26Z</time>
      </trkpt>
      <trkpt lat="45.73559" lon="4.64251">
        <ele>450.52</ele>
        <time>2014-11-02T11:35:29Z</time>
      </trkpt>
      <trkpt lat="45.73565" lon="4.6426">
        <ele>449.07</ele>
        <time>2014-11-02T11:35:30Z</time>
      </trkpt>
      <trkpt lat="45.73571" lon="4.64269">
        <ele>447.63</ele>
        <time>2014-11-02T11:35:31Z</time>
      </trkpt>
      <trkpt lat="45.73613" lon="4.64333">
        <ele>438.02</ele>
        <time>2014-11-02T11:35:39Z</time>
      </trkpt>
      <trkpt lat="45.73624" lon="4.64356">
        <ele>434.17</ele>
        <time>2014-11-02T11:35:42Z</time>
      </trkpt>
      <trkpt lat="45.73637" lon="4.64376">
        <ele>431.29</ele>
        <time>2014-11-02T11:35:45Z</time>
      </trkpt>
      <trkpt lat="45.73641" lon="4.64381">
        <ele>430.33</ele>
        <time>2014-11-02T11:35:46Z</time>
      </trkpt>
      <trkpt lat="45.73645" lon="4.64387">
        <ele>429.85</ele>
        <time>2014-11-02T11:35:47Z</time>
      </trkpt>
      <trkpt lat="45.73648" lon="4.64393">
        <ele>429.37</ele>
        <time>2014-11-02T11:35:48Z</time>
      </trkpt>
      <trkpt lat="45.73652" lon="4.64398">
        <ele>428.89</ele>
        <time>2014-11-02T11:35:49Z</time>
      </trkpt>
      <trkpt lat="45.73674" lon="4.64435">
        <ele>422.64</ele>
        <time>2014-11-02T11:35:56Z</time>
      </trkpt>
      <trkpt lat="45.73675" lon="4.64439">
        <ele>421.19</ele>
        <time>2014-11-02T11:36:04Z</time>
      </trkpt>
      <trkpt lat="45.73676" lon="4.64439">
        <ele>421.19</ele>
        <time>2014-11-02T11:36:23Z</time>
      </trkpt>
      <trkpt lat="45.73679" lon="4.64455">
        <ele>420.71</ele>
        <time>2014-11-02T11:36:34Z</time>
      </trkpt>
      <trkpt lat="45.73681" lon="4.64469">
        <ele>420.71</ele>
        <time>2014-11-02T11:36:36Z</time>
      </trkpt>
      <trkpt lat="45.73695" lon="4.64524">
        <ele>417.35</ele>
        <time>2014-11-02T11:36:41Z</time>
      </trkpt>
      <trkpt lat="45.73701" lon="4.64536">
        <ele>416.39</ele>
        <time>2014-11-02T11:36:42Z</time>
      </trkpt>
      <trkpt lat="45.73719" lon="4.64575">
        <ele>412.54</ele>
        <time>2014-11-02T11:36:45Z</time>
      </trkpt>
      <trkpt lat="45.73723" lon="4.64591">
        <ele>410.62</ele>
        <time>2014-11-02T11:36:46Z</time>
      </trkpt>
      <trkpt lat="45.73747" lon="4.64741">
        <ele>398.6</ele>
        <time>2014-11-02T11:36:54Z</time>
      </trkpt>
      <trkpt lat="45.73751" lon="4.64797">
        <ele>395.24</ele>
        <time>2014-11-02T11:36:57Z</time>
      </trkpt>
      <trkpt lat="45.7375" lon="4.64813">
        <ele>394.28</ele>
        <time>2014-11-02T11:36:58Z</time>
      </trkpt>
      <trkpt lat="45.73748" lon="4.64829">
        <ele>393.32</ele>
        <time>2014-11-02T11:36:59Z</time>
      </trkpt>
      <trkpt lat="45.73748" lon="4.64845">
        <ele>392.84</ele>
        <time>2014-11-02T11:37:00Z</time>
      </trkpt>
      <trkpt lat="45.73749" lon="4.64859">
        <ele>391.87</ele>
        <time>2014-11-02T11:37:01Z</time>
      </trkpt>
      <trkpt lat="45.73752" lon="4.64872">
        <ele>391.39</ele>
        <time>2014-11-02T11:37:02Z</time>
      </trkpt>
      <trkpt lat="45.73758" lon="4.64896">
        <ele>389.95</ele>
        <time>2014-11-02T11:37:04Z</time>
      </trkpt>
      <trkpt lat="45.73762" lon="4.64906">
        <ele>389.47</ele>
        <time>2014-11-02T11:37:05Z</time>
      </trkpt>
      <trkpt lat="45.73766" lon="4.64914">
        <ele>388.99</ele>
        <time>2014-11-02T11:37:06Z</time>
      </trkpt>
      <trkpt lat="45.73791" lon="4.64952">
        <ele>389.95</ele>
        <time>2014-11-02T11:37:12Z</time>
      </trkpt>
      <trkpt lat="45.73811" lon="4.64986">
        <ele>394.76</ele>
        <time>2014-11-02T11:37:22Z</time>
      </trkpt>
      <trkpt lat="45.73814" lon="4.6499">
        <ele>395.72</ele>
        <time>2014-11-02T11:37:24Z</time>
      </trkpt>
      <trkpt lat="45.73814" lon="4.64993">
        <ele>396.2</ele>
        <time>2014-11-02T11:37:25Z</time>
      </trkpt>
      <trkpt lat="45.73815" lon="4.64996">
        <ele>396.68</ele>
        <time>2014-11-02T11:37:26Z</time>
      </trkpt>
      <trkpt lat="45.73815" lon="4.64998">
        <ele>397.16</ele>
        <time>2014-11-02T11:37:27Z</time>
      </trkpt>
      <trkpt lat="45.73815" lon="4.65001">
        <ele>397.64</ele>
        <time>2014-11-02T11:37:28Z</time>
      </trkpt>
      <trkpt lat="45.73816" lon="4.65003">
        <ele>398.12</ele>
        <time>2014-11-02T11:37:29Z</time>
      </trkpt>
      <trkpt lat="45.73816" lon="4.65006">
        <ele>398.6</ele>
        <time>2014-11-02T11:37:30Z</time>
      </trkpt>
      <trkpt lat="45.73817" lon="4.65009">
        <ele>399.08</ele>
        <time>2014-11-02T11:37:31Z</time>
      </trkpt>
      <trkpt lat="45.73817" lon="4.65011">
        <ele>399.57</ele>
        <time>2014-11-02T11:37:32Z</time>
      </trkpt>
      <trkpt lat="45.73823" lon="4.65033">
        <ele>404.37</ele>
        <time>2014-11-02T11:37:41Z</time>
      </trkpt>
      <trkpt lat="45.73824" lon="4.65035">
        <ele>404.37</ele>
        <time>2014-11-02T11:37:42Z</time>
      </trkpt>
      <trkpt lat="45.73825" lon="4.65038">
        <ele>404.85</ele>
        <time>2014-11-02T11:37:43Z</time>
      </trkpt>
      <trkpt lat="45.73825" lon="4.6504">
        <ele>404.85</ele>
        <time>2014-11-02T11:37:44Z</time>
      </trkpt>
      <trkpt lat="45.73825" lon="4.65043">
        <ele>405.33</ele>
        <time>2014-11-02T11:37:45Z</time>
      </trkpt>
      <trkpt lat="45.73826" lon="4.65045">
        <ele>405.33</ele>
        <time>2014-11-02T11:37:46Z</time>
      </trkpt>
      <trkpt lat="45.73827" lon="4.65047">
        <ele>405.33</ele>
        <time>2014-11-02T11:37:47Z</time>
      </trkpt>
      <trkpt lat="45.73828" lon="4.6505">
        <ele>405.81</ele>
        <time>2014-11-02T11:37:48Z</time>
      </trkpt>
      <trkpt lat="45.73828" lon="4.65052">
        <ele>405.81</ele>
        <time>2014-11-02T11:37:49Z</time>
      </trkpt>
      <trkpt lat="45.73828" lon="4.65054">
        <ele>406.29</ele>
        <time>2014-11-02T11:37:50Z</time>
      </trkpt>
      <trkpt lat="45.73838" lon="4.65091">
        <ele>408.7</ele>
        <time>2014-11-02T11:38:06Z</time>
      </trkpt>
      <trkpt lat="45.73854" lon="4.6513">
        <ele>410.62</ele>
        <time>2014-11-02T11:38:20Z</time>
      </trkpt>
      <trkpt lat="45.73873" lon="4.65159">
        <ele>410.62</ele>
        <time>2014-11-02T11:38:31Z</time>
      </trkpt>
      <trkpt lat="45.73902" lon="4.65187">
        <ele>412.06</ele>
        <time>2014-11-02T11:38:43Z</time>
      </trkpt>
      <trkpt lat="45.73923" lon="4.65217">
        <ele>411.1</ele>
        <time>2014-11-02T11:38:52Z</time>
      </trkpt>
      <trkpt lat="45.73924" lon="4.65225">
        <ele>410.62</ele>
        <time>2014-11-02T11:38:54Z</time>
      </trkpt>
      <trkpt lat="45.73923" lon="4.65229">
        <ele>410.14</ele>
        <time>2014-11-02T11:38:55Z</time>
      </trkpt>
      <trkpt lat="45.73923" lon="4.65234">
        <ele>410.14</ele>
        <time>2014-11-02T11:38:56Z</time>
      </trkpt>
      <trkpt lat="45.73922" lon="4.65238">
        <ele>410.14</ele>
        <time>2014-11-02T11:38:57Z</time>
      </trkpt>
      <trkpt lat="45.73921" lon="4.65241">
        <ele>409.66</ele>
        <time>2014-11-02T11:38:58Z</time>
      </trkpt>
      <trkpt lat="45.73896" lon="4.65273">
        <ele>408.22</ele>
        <time>2014-11-02T11:39:07Z</time>
      </trkpt>
      <trkpt lat="45.73859" lon="4.65324">
        <ele>405.81</ele>
        <time>2014-11-02T11:39:20Z</time>
      </trkpt>
      <trkpt lat="45.73843" lon="4.65375">
        <ele>406.29</ele>
        <time>2014-11-02T11:39:31Z</time>
      </trkpt>
      <trkpt lat="45.73833" lon="4.65403">
        <ele>410.14</ele>
        <time>2014-11-02T11:39:40Z</time>
      </trkpt>
      <trkpt lat="45.73832" lon="4.65406">
        <ele>411.58</ele>
        <time>2014-11-02T11:39:50Z</time>
      </trkpt>
      <trkpt lat="45.73832" lon="4.65407">
        <ele>415.43</ele>
        <time>2014-11-02T11:40:12Z</time>
      </trkpt>
      <trkpt lat="45.73832" lon="4.65407">
        <ele>416.39</ele>
        <time>2014-11-02T11:40:34Z</time>
      </trkpt>
      <trkpt lat="45.73831" lon="4.65415">
        <ele>416.87</ele>
        <time>2014-11-02T11:40:47Z</time>
      </trkpt>
      <trkpt lat="45.73823" lon="4.65475">
        <ele>417.83</ele>
        <time>2014-11-02T11:40:58Z</time>
      </trkpt>
      <trkpt lat="45.73822" lon="4.65483">
        <ele>417.83</ele>
        <time>2014-11-02T11:40:59Z</time>
      </trkpt>
      <trkpt lat="45.73822" lon="4.65506">
        <ele>417.83</ele>
        <time>2014-11-02T11:41:02Z</time>
      </trkpt>
      <trkpt lat="45.73829" lon="4.65554">
        <ele>418.79</ele>
        <time>2014-11-02T11:41:08Z</time>
      </trkpt>
      <trkpt lat="45.73826" lon="4.65593">
        <ele>418.79</ele>
        <time>2014-11-02T11:41:13Z</time>
      </trkpt>
      <trkpt lat="45.73824" lon="4.656">
        <ele>418.79</ele>
        <time>2014-11-02T11:41:14Z</time>
      </trkpt>
      <trkpt lat="45.73801" lon="4.6566">
        <ele>418.31</ele>
        <time>2014-11-02T11:41:26Z</time>
      </trkpt>
      <trkpt lat="45.73799" lon="4.65666">
        <ele>418.31</ele>
        <time>2014-11-02T11:41:28Z</time>
      </trkpt>
      <trkpt lat="45.73797" lon="4.65668">
        <ele>418.79</ele>
        <time>2014-11-02T11:41:29Z</time>
      </trkpt>
      <trkpt lat="45.73796" lon="4.65671">
        <ele>418.79</ele>
        <time>2014-11-02T11:41:30Z</time>
      </trkpt>
      <trkpt lat="45.73795" lon="4.65675">
        <ele>419.27</ele>
        <time>2014-11-02T11:41:31Z</time>
      </trkpt>
      <trkpt lat="45.73795" lon="4.65679">
        <ele>419.75</ele>
        <time>2014-11-02T11:41:32Z</time>
      </trkpt>
      <trkpt lat="45.73795" lon="4.6572">
        <ele>421.19</ele>
        <time>2014-11-02T11:41:43Z</time>
      </trkpt>
      <trkpt lat="45.73794" lon="4.65761">
        <ele>420.71</ele>
        <time>2014-11-02T11:41:51Z</time>
      </trkpt>
      <trkpt lat="45.73794" lon="4.65767">
        <ele>421.19</ele>
        <time>2014-11-02T11:41:52Z</time>
      </trkpt>
      <trkpt lat="45.73794" lon="4.65774">
        <ele>421.68</ele>
        <time>2014-11-02T11:41:53Z</time>
      </trkpt>
      <trkpt lat="45.73794" lon="4.6578">
        <ele>421.68</ele>
        <time>2014-11-02T11:41:54Z</time>
      </trkpt>
      <trkpt lat="45.73794" lon="4.65786">
        <ele>421.68</ele>
        <time>2014-11-02T11:41:55Z</time>
      </trkpt>
      <trkpt lat="45.73794" lon="4.65804">
        <ele>421.19</ele>
        <time>2014-11-02T11:41:58Z</time>
      </trkpt>
      <trkpt lat="45.73794" lon="4.6581">
        <ele>421.68</ele>
        <time>2014-11-02T11:41:59Z</time>
      </trkpt>
      <trkpt lat="45.73795" lon="4.65817">
        <ele>421.68</ele>
        <time>2014-11-02T11:42:00Z</time>
      </trkpt>
      <trkpt lat="45.73796" lon="4.65824">
        <ele>421.68</ele>
        <time>2014-11-02T11:42:01Z</time>
      </trkpt>
      <trkpt lat="45.73797" lon="4.6583">
        <ele>421.68</ele>
        <time>2014-11-02T11:42:02Z</time>
      </trkpt>
      <trkpt lat="45.73798" lon="4.65837">
        <ele>422.16</ele>
        <time>2014-11-02T11:42:03Z</time>
      </trkpt>
      <trkpt lat="45.73793" lon="4.65876">
        <ele>422.16</ele>
        <time>2014-11-02T11:42:12Z</time>
      </trkpt>
      <trkpt lat="45.73789" lon="4.65887">
        <ele>423.12</ele>
        <time>2014-11-02T11:42:16Z</time>
      </trkpt>
      <trkpt lat="45.73789" lon="4.6589">
        <ele>423.12</ele>
        <time>2014-11-02T11:42:17Z</time>
      </trkpt>
      <trkpt lat="45.73788" lon="4.65893">
        <ele>423.12</ele>
        <time>2014-11-02T11:42:18Z</time>
      </trkpt>
      <trkpt lat="45.73783" lon="4.65912">
        <ele>424.56</ele>
        <time>2014-11-02T11:42:25Z</time>
      </trkpt>
      <trkpt lat="45.73782" lon="4.65914">
        <ele>424.56</ele>
        <time>2014-11-02T11:42:26Z</time>
      </trkpt>
      <trkpt lat="45.7378" lon="4.65923">
        <ele>426</ele>
        <time>2014-11-02T11:42:30Z</time>
      </trkpt>
      <trkpt lat="45.73779" lon="4.65925">
        <ele>426.48</ele>
        <time>2014-11-02T11:42:31Z</time>
      </trkpt>
      <trkpt lat="45.73777" lon="4.65931">
        <ele>426.96</ele>
        <time>2014-11-02T11:42:34Z</time>
      </trkpt>
      <trkpt lat="45.73777" lon="4.65933">
        <ele>426.96</ele>
        <time>2014-11-02T11:42:35Z</time>
      </trkpt>
      <trkpt lat="45.73777" lon="4.65935">
        <ele>427.44</ele>
        <time>2014-11-02T11:42:36Z</time>
      </trkpt>
      <trkpt lat="45.73776" lon="4.65969">
        <ele>430.81</ele>
        <time>2014-11-02T11:42:51Z</time>
      </trkpt>
      <trkpt lat="45.73775" lon="4.66003">
        <ele>432.73</ele>
        <time>2014-11-02T11:43:03Z</time>
      </trkpt>
      <trkpt lat="45.73768" lon="4.66063">
        <ele>434.17</ele>
        <time>2014-11-02T11:43:20Z</time>
      </trkpt>
      <trkpt lat="45.73758" lon="4.66108">
        <ele>434.65</ele>
        <time>2014-11-02T11:43:33Z</time>
      </trkpt>
      <trkpt lat="45.7375" lon="4.66144">
        <ele>437.54</ele>
        <time>2014-11-02T11:43:43Z</time>
      </trkpt>
      <trkpt lat="45.73739" lon="4.66194">
        <ele>438.5</ele>
        <time>2014-11-02T11:43:58Z</time>
      </trkpt>
      <trkpt lat="45.73729" lon="4.66245">
        <ele>441.38</ele>
        <time>2014-11-02T11:44:13Z</time>
      </trkpt>
      <trkpt lat="45.73715" lon="4.66304">
        <ele>440.42</ele>
        <time>2014-11-02T11:44:27Z</time>
      </trkpt>
      <trkpt lat="45.73706" lon="4.66339">
        <ele>438.98</ele>
        <time>2014-11-02T11:44:33Z</time>
      </trkpt>
      <trkpt lat="45.73705" lon="4.66345">
        <ele>438.98</ele>
        <time>2014-11-02T11:44:34Z</time>
      </trkpt>
      <trkpt lat="45.73714" lon="4.66434">
        <ele>438.02</ele>
        <time>2014-11-02T11:44:46Z</time>
      </trkpt>
      <trkpt lat="45.73716" lon="4.6644">
        <ele>438.02</ele>
        <time>2014-11-02T11:44:47Z</time>
      </trkpt>
      <trkpt lat="45.7374" lon="4.66503">
        <ele>435.61</ele>
        <time>2014-11-02T11:44:55Z</time>
      </trkpt>
      <trkpt lat="45.73743" lon="4.66513">
        <ele>435.13</ele>
        <time>2014-11-02T11:44:56Z</time>
      </trkpt>
      <trkpt lat="45.73772" lon="4.66592">
        <ele>430.81</ele>
        <time>2014-11-02T11:45:04Z</time>
      </trkpt>
      <trkpt lat="45.7378" lon="4.66622">
        <ele>426.96</ele>
        <time>2014-11-02T11:45:11Z</time>
      </trkpt>
      <trkpt lat="45.7378" lon="4.66624">
        <ele>428.89</ele>
        <time>2014-11-02T11:45:24Z</time>
      </trkpt>
      <trkpt lat="45.73784" lon="4.66644">
        <ele>429.37</ele>
        <time>2014-11-02T11:45:36Z</time>
      </trkpt>
      <trkpt lat="45.73794" lon="4.66695">
        <ele>426.48</ele>
        <time>2014-11-02T11:45:49Z</time>
      </trkpt>
      <trkpt lat="45.73803" lon="4.66754">
        <ele>425.04</ele>
        <time>2014-11-02T11:45:59Z</time>
      </trkpt>
      <trkpt lat="45.73804" lon="4.66761">
        <ele>425.04</ele>
        <time>2014-11-02T11:46:00Z</time>
      </trkpt>
      <trkpt lat="45.73806" lon="4.66768">
        <ele>425.04</ele>
        <time>2014-11-02T11:46:01Z</time>
      </trkpt>
      <trkpt lat="45.73807" lon="4.66776">
        <ele>424.56</ele>
        <time>2014-11-02T11:46:02Z</time>
      </trkpt>
      <trkpt lat="45.73809" lon="4.66785">
        <ele>424.56</ele>
        <time>2014-11-02T11:46:03Z</time>
      </trkpt>
      <trkpt lat="45.7381" lon="4.66794">
        <ele>424.08</ele>
        <time>2014-11-02T11:46:04Z</time>
      </trkpt>
      <trkpt lat="45.73825" lon="4.66868">
        <ele>423.12</ele>
        <time>2014-11-02T11:46:11Z</time>
      </trkpt>
      <trkpt lat="45.73863" lon="4.67012">
        <ele>417.35</ele>
        <time>2014-11-02T11:46:23Z</time>
      </trkpt>
      <trkpt lat="45.73875" lon="4.67072">
        <ele>415.43</ele>
        <time>2014-11-02T11:46:28Z</time>
      </trkpt>
      <trkpt lat="45.7388" lon="4.67083">
        <ele>415.43</ele>
        <time>2014-11-02T11:46:29Z</time>
      </trkpt>
      <trkpt lat="45.7394" lon="4.67206">
        <ele>406.77</ele>
        <time>2014-11-02T11:46:39Z</time>
      </trkpt>
      <trkpt lat="45.74012" lon="4.67304">
        <ele>395.72</ele>
        <time>2014-11-02T11:46:46Z</time>
      </trkpt>
      <trkpt lat="45.74021" lon="4.67321">
        <ele>393.8</ele>
        <time>2014-11-02T11:46:47Z</time>
      </trkpt>
      <trkpt lat="45.74028" lon="4.67339">
        <ele>391.87</ele>
        <time>2014-11-02T11:46:48Z</time>
      </trkpt>
      <trkpt lat="45.74033" lon="4.67359">
        <ele>390.43</ele>
        <time>2014-11-02T11:46:49Z</time>
      </trkpt>
      <trkpt lat="45.74037" lon="4.6738">
        <ele>388.99</ele>
        <time>2014-11-02T11:46:50Z</time>
      </trkpt>
      <trkpt lat="45.74101" lon="4.67581">
        <ele>374.09</ele>
        <time>2014-11-02T11:47:01Z</time>
      </trkpt>
      <trkpt lat="45.74224" lon="4.67834">
        <ele>357.75</ele>
        <time>2014-11-02T11:47:17Z</time>
      </trkpt>
      <trkpt lat="45.74312" lon="4.68033">
        <ele>344.77</ele>
        <time>2014-11-02T11:47:29Z</time>
      </trkpt>
      <trkpt lat="45.74379" lon="4.68196">
        <ele>335.64</ele>
        <time>2014-11-02T11:47:39Z</time>
      </trkpt>
      <trkpt lat="45.74437" lon="4.68273">
        <ele>334.2</ele>
        <time>2014-11-02T11:47:47Z</time>
      </trkpt>
      <trkpt lat="45.74449" lon="4.68287">
        <ele>334.68</ele>
        <time>2014-11-02T11:47:49Z</time>
      </trkpt>
      <trkpt lat="45.74453" lon="4.68295">
        <ele>334.68</ele>
        <time>2014-11-02T11:47:50Z</time>
      </trkpt>
      <trkpt lat="45.74457" lon="4.68303">
        <ele>335.16</ele>
        <time>2014-11-02T11:47:51Z</time>
      </trkpt>
      <trkpt lat="45.74459" lon="4.68311">
        <ele>335.64</ele>
        <time>2014-11-02T11:47:52Z</time>
      </trkpt>
      <trkpt lat="45.74461" lon="4.68318">
        <ele>336.12</ele>
        <time>2014-11-02T11:47:53Z</time>
      </trkpt>
      <trkpt lat="45.74486" lon="4.68373">
        <ele>339.96</ele>
        <time>2014-11-02T11:48:05Z</time>
      </trkpt>
      <trkpt lat="45.74514" lon="4.68422">
        <ele>341.89</ele>
        <time>2014-11-02T11:48:18Z</time>
      </trkpt>
      <trkpt lat="45.74535" lon="4.68449">
        <ele>341.41</ele>
        <time>2014-11-02T11:48:25Z</time>
      </trkpt>
      <trkpt lat="45.74538" lon="4.68455">
        <ele>340.92</ele>
        <time>2014-11-02T11:48:26Z</time>
      </trkpt>
      <trkpt lat="45.7454" lon="4.6846">
        <ele>340.92</ele>
        <time>2014-11-02T11:48:27Z</time>
      </trkpt>
      <trkpt lat="45.74542" lon="4.68466">
        <ele>340.92</ele>
        <time>2014-11-02T11:48:28Z</time>
      </trkpt>
      <trkpt lat="45.74544" lon="4.68473">
        <ele>340.92</ele>
        <time>2014-11-02T11:48:29Z</time>
      </trkpt>
      <trkpt lat="45.74565" lon="4.68555">
        <ele>339.96</ele>
        <time>2014-11-02T11:48:40Z</time>
      </trkpt>
      <trkpt lat="45.74608" lon="4.68625">
        <ele>339.48</ele>
        <time>2014-11-02T11:48:51Z</time>
      </trkpt>
      <trkpt lat="45.74627" lon="4.68661">
        <ele>339.48</ele>
        <time>2014-11-02T11:48:56Z</time>
      </trkpt>
      <trkpt lat="45.74653" lon="4.68733">
        <ele>339</ele>
        <time>2014-11-02T11:49:05Z</time>
      </trkpt>
      <trkpt lat="45.74657" lon="4.6874">
        <ele>339.48</ele>
        <time>2014-11-02T11:49:06Z</time>
      </trkpt>
      <trkpt lat="45.74676" lon="4.68799">
        <ele>339.96</ele>
        <time>2014-11-02T11:49:14Z</time>
      </trkpt>
      <trkpt lat="45.74678" lon="4.68805">
        <ele>339.96</ele>
        <time>2014-11-02T11:49:15Z</time>
      </trkpt>
      <trkpt lat="45.7468" lon="4.68812">
        <ele>339.96</ele>
        <time>2014-11-02T11:49:16Z</time>
      </trkpt>
      <trkpt lat="45.74682" lon="4.68818">
        <ele>339.48</ele>
        <time>2014-11-02T11:49:17Z</time>
      </trkpt>
      <trkpt lat="45.74684" lon="4.68824">
        <ele>339.48</ele>
        <time>2014-11-02T11:49:18Z</time>
      </trkpt>
      <trkpt lat="45.74686" lon="4.6883">
        <ele>339.48</ele>
        <time>2014-11-02T11:49:19Z</time>
      </trkpt>
      <trkpt lat="45.74689" lon="4.68836">
        <ele>339.48</ele>
        <time>2014-11-02T11:49:20Z</time>
      </trkpt>
      <trkpt lat="45.74709" lon="4.68898">
        <ele>338.52</ele>
        <time>2014-11-02T11:49:30Z</time>
      </trkpt>
      <trkpt lat="45.74711" lon="4.68904">
        <ele>338.52</ele>
        <time>2014-11-02T11:49:31Z</time>
      </trkpt>
      <trkpt lat="45.74715" lon="4.68915">
        <ele>339</ele>
        <time>2014-11-02T11:49:33Z</time>
      </trkpt>
      <trkpt lat="45.74716" lon="4.6892">
        <ele>339</ele>
        <time>2014-11-02T11:49:34Z</time>
      </trkpt>
      <trkpt lat="45.74718" lon="4.68926">
        <ele>339</ele>
        <time>2014-11-02T11:49:35Z</time>
      </trkpt>
      <trkpt lat="45.74739" lon="4.68972">
        <ele>339.48</ele>
        <time>2014-11-02T11:49:45Z</time>
      </trkpt>
      <trkpt lat="45.74742" lon="4.68975">
        <ele>339.48</ele>
        <time>2014-11-02T11:49:46Z</time>
      </trkpt>
      <trkpt lat="45.74745" lon="4.68976">
        <ele>339.96</ele>
        <time>2014-11-02T11:49:47Z</time>
      </trkpt>
      <trkpt lat="45.74749" lon="4.68978">
        <ele>339.96</ele>
        <time>2014-11-02T11:49:48Z</time>
      </trkpt>
      <trkpt lat="45.74752" lon="4.68979">
        <ele>339.96</ele>
        <time>2014-11-02T11:49:49Z</time>
      </trkpt>
      <trkpt lat="45.74761" lon="4.68988">
        <ele>340.44</ele>
        <time>2014-11-02T11:49:52Z</time>
      </trkpt>
      <trkpt lat="45.74762" lon="4.68991">
        <ele>340.44</ele>
        <time>2014-11-02T11:49:53Z</time>
      </trkpt>
      <trkpt lat="45.74763" lon="4.68995">
        <ele>340.92</ele>
        <time>2014-11-02T11:49:54Z</time>
      </trkpt>
      <trkpt lat="45.74764" lon="4.68999">
        <ele>340.92</ele>
        <time>2014-11-02T11:49:55Z</time>
      </trkpt>
      <trkpt lat="45.74766" lon="4.69001">
        <ele>340.44</ele>
        <time>2014-11-02T11:49:56Z</time>
      </trkpt>
      <trkpt lat="45.74769" lon="4.69002">
        <ele>340.92</ele>
        <time>2014-11-02T11:49:57Z</time>
      </trkpt>
      <trkpt lat="45.74772" lon="4.69001">
        <ele>340.92</ele>
        <time>2014-11-02T11:49:58Z</time>
      </trkpt>
      <trkpt lat="45.74774" lon="4.69">
        <ele>340.92</ele>
        <time>2014-11-02T11:49:59Z</time>
      </trkpt>
      <trkpt lat="45.74777" lon="4.68998">
        <ele>341.41</ele>
        <time>2014-11-02T11:50:00Z</time>
      </trkpt>
      <trkpt lat="45.74779" lon="4.68997">
        <ele>341.41</ele>
        <time>2014-11-02T11:50:01Z</time>
      </trkpt>
      <trkpt lat="45.74819" lon="4.68993">
        <ele>344.29</ele>
        <time>2014-11-02T11:50:12Z</time>
      </trkpt>
      <trkpt lat="45.7484" lon="4.68991">
        <ele>345.73</ele>
        <time>2014-11-02T11:50:18Z</time>
      </trkpt>
      <trkpt lat="45.74843" lon="4.68993">
        <ele>346.21</ele>
        <time>2014-11-02T11:50:19Z</time>
      </trkpt>
      <trkpt lat="45.74845" lon="4.68997">
        <ele>346.21</ele>
        <time>2014-11-02T11:50:20Z</time>
      </trkpt>
      <trkpt lat="45.74846" lon="4.69002">
        <ele>346.21</ele>
        <time>2014-11-02T11:50:21Z</time>
      </trkpt>
      <trkpt lat="45.74847" lon="4.69007">
        <ele>346.21</ele>
        <time>2014-11-02T11:50:22Z</time>
      </trkpt>
      <trkpt lat="45.74848" lon="4.69011">
        <ele>346.69</ele>
        <time>2014-11-02T11:50:23Z</time>
      </trkpt>
      <trkpt lat="45.7485" lon="4.69016">
        <ele>346.69</ele>
        <time>2014-11-02T11:50:24Z</time>
      </trkpt>
      <trkpt lat="45.74851" lon="4.69019">
        <ele>346.69</ele>
        <time>2014-11-02T11:50:25Z</time>
      </trkpt>
      <trkpt lat="45.74853" lon="4.69022">
        <ele>347.17</ele>
        <time>2014-11-02T11:50:26Z</time>
      </trkpt>
      <trkpt lat="45.74855" lon="4.69025">
        <ele>347.17</ele>
        <time>2014-11-02T11:50:27Z</time>
      </trkpt>
      <trkpt lat="45.74861" lon="4.69027">
        <ele>348.62</ele>
        <time>2014-11-02T11:50:32Z</time>
      </trkpt>
      <trkpt lat="45.74865" lon="4.69021">
        <ele>349.1</ele>
        <time>2014-11-02T11:50:34Z</time>
      </trkpt>
      <trkpt lat="45.74867" lon="4.69017">
        <ele>349.58</ele>
        <time>2014-11-02T11:50:35Z</time>
      </trkpt>
      <trkpt lat="45.7487" lon="4.69015">
        <ele>350.06</ele>
        <time>2014-11-02T11:50:36Z</time>
      </trkpt>
      <trkpt lat="45.74874" lon="4.69013">
        <ele>351.5</ele>
        <time>2014-11-02T11:50:46Z</time>
      </trkpt>
      <trkpt lat="45.74879" lon="4.69007">
        <ele>351.02</ele>
        <time>2014-11-02T11:50:59Z</time>
      </trkpt>
      <trkpt lat="45.7488" lon="4.69005">
        <ele>352.94</ele>
        <time>2014-11-02T11:51:10Z</time>
      </trkpt>
      <trkpt lat="45.74879" lon="4.69005">
        <ele>351.98</ele>
        <time>2014-11-02T11:51:45Z</time>
      </trkpt>
      <trkpt lat="45.74878" lon="4.69006">
        <ele>350.06</ele>
        <time>2014-11-02T11:52:21Z</time>
      </trkpt>
      <trkpt lat="45.74877" lon="4.69008">
        <ele>349.1</ele>
        <time>2014-11-02T11:52:54Z</time>
      </trkpt>
      <trkpt lat="45.74876" lon="4.69007">
        <ele>348.62</ele>
        <time>2014-11-02T11:53:30Z</time>
      </trkpt>
      <trkpt lat="45.74876" lon="4.69005">
        <ele>347.65</ele>
        <time>2014-11-02T11:54:07Z</time>
      </trkpt>
      <trkpt lat="45.74877" lon="4.69003">
        <ele>348.13</ele>
        <time>2014-11-02T11:54:42Z</time>
      </trkpt>
      <trkpt lat="45.74877" lon="4.69004">
        <ele>348.13</ele>
        <time>2014-11-02T11:55:03Z</time>
      </trkpt>
      <trkpt lat="45.74878" lon="4.69001">
        <ele>347.65</ele>
        <time>2014-11-02T11:55:12Z</time>
      </trkpt>
    </trkseg>
  </trk>
</gpx>